[[{"header":{"parameterUnit":"m.s-1","parameterCategory":1,"la1":30.6,"la2":28.766,"lo1":-90.7593,"lo2":-88.6598,"dy":0.0162,"dx":0.0183,"nx":116,"ny":114,"refTime":"2023-05-01T12:00:00:Z","depth":0,"parameterNumber":2,"parameterNumberName":"U-component_of_WINDS"},"data":[0.0,0.0,0.0,0.0,0.0,0.0,0.0,0.0,0.0,0.0,0.0,0.0,0.0,0.0,0.0,0.0,0.0,0.0,0.0,0.0,0.0,0.0,0.0,0.0,0.0,0.0,0.0,0.0,0.0,0.0,0.0,0.0,0.0,0.0,0.0,0.0,0.0,0.0,0.0,0.0,0.0,0.0,0.0,0.0,0.0,0.0,0.0,0.0,0.0,0.0,0.0,0.0,0.0,0.0,0.0,0.0,0.0,0.0,0.0,0.0,0.0,0.0,0.0,0.0,0.0,0.0,0.0,0.0,0.0,0.0,0.0,0.0,0.0,0.0,0.0,0.0,0.0,0.0,0.0,0.0,0.0,0.0,0.0,0.0,0.0,0.0,0.0,0.0,0.0,0.0,0.0,0.0,0.0,0.0,0.0,0.0,0.0,0.0,0.0,0.0,0.0,0.0,0.0,0.0,0.0,0.0,0.0,0.0,0.0,0.0,0.0,0.0,0.0,0.0,0.0,0.0,0.0,0.0,0.0,0.0,0.0,0.0,0.0,0.0,0.0,0.0,0.0,0.0,0.0,0.0,0.0,0.0,0.0,0.0,0.0,0.0,0.0,0.0,0.0,0.0,0.0,0.0,0.0,0.0,0.0,0.0,0.0,0.0,0.0,0.0,0.0,0.0,0.0,0.0,0.0,0.0,0.0,0.0,0.0,0.0,0.0,0.0,0.0,0.0,0.0,0.0,0.0,0.0,0.0,0.0,0.0,0.0,0.0,0.0,0.0,0.0,0.0,0.0,0.0,0.0,0.0,0.0,0.0,0.0,0.0,0.0,0.0,0.0,0.0,0.0,0.0,0.0,0.0,0.0,0.0,0.0,0.0,0.0,0.0,0.0,0.0,0.0,0.0,0.0,0.0,0.0,0.0,0.0,0.0,0.0,0.0,0.0,0.0,0.0,0.0,0.0,0.0,0.0,0.0,0.0,0.0,0.0,0.0,0.0,0.0,0.0,0.0,0.0,0.0,0.0,0.0,0.0,0.0,0.0,0.0,0.0,0.0,0.0,0.0,0.0,0.0,0.0,0.0,0.0,0.0,0.0,0.0,0.0,0.0,0.0,0.0,0.0,0.0,0.0,0.0,0.0,0.0,0.0,0.0,0.0,0.0,0.0,0.0,0.0,0.0,0.0,0.0,0.0,0.0,0.0,0.0,0.0,0.0,0.0,0.0,0.0,0.0,0.0,0.0,0.0,0.0,0.0,0.0,0.0,0.0,0.0,0.0,0.0,0.0,0.0,0.0,0.0,0.0,0.0,0.0,0.0,0.0,0.0,0.0,0.0,0.0,0.0,0.0,0.0,0.0,0.0,0.0,0.0,0.0,0.0,0.0,0.0,0.0,0.0,0.0,0.0,0.0,0.0,0.0,0.0,0.0,0.0,0.0,0.0,0.0,0.0,0.0,0.0,0.0,0.0,0.0,0.0,0.0,0.0,0.0,0.0,0.0,0.0,0.0,0.0,0.0,0.0,0.0,0.0,0.0,0.0,0.0,0.0,0.0,0.0,0.0,0.0,0.0,0.0,0.0,0.0,0.0,0.0,0.0,0.0,0.0,0.0,0.0,0.0,0.0,0.0,0.0,0.0,0.0,0.0,0.0,0.0,0.0,0.0,0.0,0.0,0.0,0.0,0.0,0.0,0.0,0.0,0.0,0.0,0.0,0.0,0.0,0.0,0.0,0.0,0.0,0.0,0.0,0.0,0.0,0.0,0.0,0.0,0.0,0.0,0.0,0.0,0.0,0.0,0.0,0.0,0.0,0.0,0.0,0.0,0.0,0.0,0.0,0.0,0.0,0.0,0.0,0.0,0.0,0.0,0.0,0.0,0.0,0.0,0.0,0.0,0.0,0.0,0.0,0.0,0.0,0.0,0.0,0.0,0.0,0.0,0.0,0.0,0.0,0.0,0.0,0.0,0.0,0.0,0.0,0.0,0.0,0.0,0.0,0.0,0.0,0.0,0.0,0.0,0.0,0.0,0.0,0.0,0.0,0.0,0.0,0.0,0.0,0.0,0.0,0.0,0.0,0.0,0.0,0.0,0.0,0.0,0.0,0.0,0.0,0.0,0.0,0.0,0.0,0.0,0.0,0.0,0.0,0.0,0.0,0.0,0.0,0.0,0.0,0.0,0.0,0.0,0.0,0.0,0.0,0.0,0.0,0.0,0.0,0.0,0.0,0.0,0.0,0.0,0.0,0.0,0.0,0.0,0.0,0.0,0.0,0.0,0.0,0.0,0.0,0.0,0.0,0.0,0.0,0.0,0.0,0.0,0.0,0.0,0.0,0.0,0.0,0.0,0.0,0.0,0.0,0.0,0.0,0.0,0.0,0.0,0.0,0.0,0.0,0.0,0.0,0.0,0.0,0.0,0.0,0.0,0.0,0.0,0.0,0.0,0.0,0.0,0.0,0.0,0.0,0.0,0.0,0.0,0.0,0.0,0.0,0.0,0.0,0.0,0.0,0.0,0.0,0.0,0.0,0.0,0.0,0.0,0.0,0.0,0.0,0.0,0.0,0.0,0.0,0.0,0.0,0.0,0.0,0.0,0.0,0.0,0.0,0.0,0.0,0.0,0.0,0.0,0.0,0.0,0.0,0.0,0.0,0.0,0.0,0.0,0.0,0.0,0.0,0.0,0.0,0.0,0.0,0.0,0.0,0.0,0.0,0.0,0.0,0.0,0.0,0.0,0.0,0.0,0.0,0.0,0.0,0.0,0.0,0.0,0.0,0.0,0.0,0.0,0.0,0.0,0.0,0.0,0.0,0.0,0.0,0.0,0.0,0.0,0.0,0.0,0.0,0.0,0.0,0.0,0.0,0.0,0.0,0.0,0.0,0.0,0.0,0.0,0.0,0.0,0.0,0.0,0.0,0.0,0.0,0.0,0.0,0.0,0.0,0.0,0.0,0.0,0.0,0.0,0.0,0.0,0.0,0.0,0.0,0.0,0.0,0.0,0.0,0.0,0.0,0.0,0.0,0.0,0.0,0.0,0.0,0.0,0.0,0.0,0.0,0.0,0.0,0.0,0.0,0.0,0.0,0.0,0.0,0.0,0.0,0.0,0.0,0.0,0.0,0.0,0.0,0.0,0.0,0.0,0.0,0.0,0.0,0.0,0.0,0.0,0.0,0.0,0.0,0.0,0.0,0.0,0.0,0.0,0.0,0.0,0.0,0.0,0.0,0.0,0.0,0.0,0.0,0.0,0.0,0.0,0.0,0.0,0.0,0.0,0.0,0.0,0.0,0.0,0.0,0.0,0.0,0.0,0.0,0.0,0.0,0.0,0.0,0.0,0.0,0.0,0.0,0.0,0.0,0.0,0.0,0.0,0.0,0.0,0.0,0.0,0.0,0.0,0.0,0.0,0.0,0.0,0.0,0.0,0.0,0.0,0.0,0.0,0.0,0.0,0.0,0.0,0.0,0.0,0.0,0.0,0.0,0.0,0.0,0.0,0.0,0.0,0.0,0.0,0.0,0.0,0.0,0.0,0.0,0.0,0.0,0.0,0.0,0.0,0.0,0.0,0.0,0.0,0.0,0.0,0.0,0.0,0.0,0.0,0.0,0.0,0.0,0.0,0.0,0.0,0.0,0.0,0.0,0.0,0.0,0.0,0.0,0.0,0.0,0.0,0.0,0.0,0.0,0.0,0.0,0.0,0.0,0.0,0.0,0.0,0.0,0.0,0.0,0.0,0.0,0.0,0.0,0.0,0.0,0.0,0.0,0.0,0.0,0.0,0.0,0.0,0.0,0.0,0.0,0.0,0.0,0.0,0.0,0.0,0.0,0.0,0.0,0.0,0.0,0.0,0.0,0.0,0.0,0.0,0.0,0.0,0.0,0.0,0.0,0.0,0.0,0.0,0.0,0.0,0.0,0.0,0.0,0.0,0.0,0.0,0.0,0.0,0.0,0.0,0.0,0.0,0.0,0.0,0.0,0.0,0.0,0.0,0.0,0.0,0.0,0.0,0.0,0.0,0.0,0.0,0.0,0.0,0.0,0.0,0.0,0.0,0.0,0.0,0.0,0.0,0.0,0.0,0.0,0.0,0.0,0.0,0.0,0.0,0.0,0.0,0.0,0.0,0.0,0.0,0.0,0.0,0.0,0.0,0.0,0.0,0.0,0.0,0.0,0.0,0.0,0.0,0.0,0.0,0.0,0.0,0.0,0.0,0.0,0.0,0.0,0.0,0.0,0.0,0.0,0.0,0.0,0.0,0.0,0.0,0.0,0.0,0.0,0.0,0.0,0.0,0.0,0.0,0.0,0.0,0.0,0.0,0.0,0.0,0.0,0.0,0.0,0.0,0.0,0.0,0.0,0.0,0.0,0.0,0.0,0.0,0.0,0.0,0.0,0.0,0.0,0.0,0.0,0.0,0.0,0.0,0.0,0.0,0.0,0.0,0.0,0.0,0.0,0.0,0.0,0.0,0.0,0.0,0.0,0.0,0.0,0.0,0.0,0.0,0.0,0.0,0.0,0.0,0.0,0.0,0.0,0.0,0.0,0.0,0.0,0.0,0.0,0.0,0.0,0.0,0.0,0.0,0.0,0.0,0.0,0.0,0.0,0.0,0.0,0.0,0.0,0.0,0.0,0.0,0.0,0.0,0.0,0.0,0.0,0.0,0.0,0.0,0.0,0.0,0.0,0.0,0.0,0.0,0.0,0.0,0.0,0.0,0.0,0.0,0.0,0.0,0.0,0.0,0.0,0.0,0.0,0.0,0.0,0.0,0.0,0.0,0.0,0.0,0.0,0.0,0.0,0.0,0.0,0.0,0.0,0.0,0.0,0.0,0.0,0.0,0.0,0.0,0.0,0.0,0.0,0.0,0.0,0.0,0.0,0.0,0.0,0.0,0.0,0.0,0.0,0.0,0.0,0.0,0.0,0.0,0.0,0.0,0.0,0.0,0.0,0.0,0.0,0.0,0.0,0.0,0.0,0.0,0.0,0.0,0.0,0.0,0.0,0.0,0.0,0.0,0.0,0.0,0.0,0.0,0.0,0.0,0.0,0.0,0.0,0.0,0.0,0.0,0.0,0.0,0.0,0.0,0.0,0.0,0.0,0.0,0.0,0.0,0.0,0.0,0.0,0.0,0.0,0.0,0.0,0.0,0.0,0.0,0.0,0.0,0.0,0.0,0.0,0.0,0.0,0.0,0.0,0.0,0.0,0.0,0.0,0.0,0.0,0.0,0.0,0.0,0.0,0.0,0.0,0.0,0.0,0.0,0.0,0.0,0.0,0.0,0.0,0.0,0.0,0.0,0.0,0.0,0.0,0.0,0.0,0.0,0.0,0.0,0.0,0.0,0.0,0.0,0.0,0.0,0.0,0.0,0.0,0.0,0.0,0.0,0.0,0.0,0.0,0.0,0.0,0.0,0.0,0.0,0.0,0.0,0.0,0.0,0.0,0.0,0.0,0.0,0.0,0.0,0.0,0.0,0.0,0.0,0.0,0.0,0.0,0.0,0.0,0.0,0.0,0.0,0.0,0.0,0.0,0.0,0.0,0.0,0.0,0.0,0.0,0.0,0.0,0.0,0.0,0.0,0.0,0.0,0.0,0.0,0.0,0.0,0.0,0.0,0.0,0.0,0.0,0.0,0.0,0.0,0.0,0.0,0.0,0.0,0.0,0.0,0.0,0.0,0.0,0.0,0.0,0.0,0.0,0.0,0.0,0.0,0.0,0.0,0.0,0.0,0.0,0.0,0.0,0.0,0.0,0.0,0.0,0.0,0.0,0.0,0.0,0.0,0.0,0.0,0.0,0.0,0.0,0.0,0.0,0.0,0.0,0.0,0.0,0.0,0.0,0.0,0.0,0.0,0.0,0.0,0.0,0.0,0.0,0.0,0.0,0.0,0.0,0.0,0.0,0.0,0.0,0.0,0.0,0.0,0.0,0.0,0.0,0.0,0.0,0.0,0.0,0.0,0.0,0.0,0.0,0.0,0.0,0.0,0.0,0.0,0.0,0.0,0.0,0.0,0.0,0.0,0.0,0.0,0.0,0.0,0.0,0.0,0.0,0.0,0.0,0.0,0.0,0.0,0.0,0.0,0.0,0.0,0.0,0.0,0.0,0.0,-3.6346,0.0,0.0,0.0,0.0,0.0,0.0,0.0,0.0,0.0,0.0,0.0,0.0,0.0,0.0,0.0,0.0,0.0,0.0,0.0,0.0,0.0,0.0,0.0,0.0,0.0,0.0,0.0,0.0,0.0,0.0,0.0,0.0,0.0,0.0,0.0,0.0,0.0,0.0,0.0,-3.6176,-3.6848,-3.7646,-3.6628,-3.5954,-3.5569,0.0,0.0,0.0,0.0,0.0,0.0,0.0,0.0,0.0,0.0,0.0,0.0,0.0,0.0,0.0,0.0,0.0,0.0,0.0,0.0,0.0,0.0,0.0,0.0,0.0,0.0,0.0,0.0,0.0,0.0,0.0,0.0,0.0,0.0,0.0,0.0,0.0,0.0,0.0,0.0,0.0,0.0,0.0,0.0,0.0,0.0,0.0,0.0,0.0,0.0,0.0,0.0,0.0,0.0,0.0,0.0,0.0,0.0,0.0,0.0,0.0,0.0,0.0,0.0,0.0,0.0,0.0,0.0,0.0,0.0,0.0,-3.6481,0.0,0.0,0.0,0.0,0.0,0.0,0.0,0.0,0.0,0.0,0.0,0.0,0.0,0.0,0.0,0.0,0.0,0.0,0.0,0.0,0.0,0.0,0.0,0.0,0.0,0.0,0.0,0.0,0.0,0.0,0.0,0.0,0.0,0.0,0.0,0.0,0.0,0.0,-3.8186,-3.9019,-3.9272,-3.9301,-3.8964,-3.83,-3.7364,0.0,0.0,0.0,0.0,0.0,0.0,0.0,0.0,0.0,0.0,0.0,0.0,0.0,0.0,0.0,0.0,0.0,0.0,0.0,0.0,0.0,0.0,0.0,0.0,0.0,0.0,0.0,0.0,0.0,0.0,0.0,0.0,0.0,0.0,0.0,0.0,0.0,0.0,0.0,0.0,0.0,0.0,0.0,0.0,0.0,0.0,0.0,0.0,0.0,0.0,0.0,0.0,0.0,0.0,0.0,0.0,0.0,0.0,0.0,0.0,0.0,0.0,0.0,-3.7623,-3.7642,-3.7777,-3.7623,-3.7257,-3.6692,-3.6538,-3.6192,-3.575,0.0,0.0,0.0,0.0,0.0,0.0,0.0,0.0,0.0,0.0,0.0,0.0,0.0,0.0,0.0,0.0,0.0,0.0,0.0,0.0,0.0,0.0,0.0,0.0,0.0,0.0,0.0,0.0,0.0,0.0,0.0,0.0,0.0,0.0,-3.7557,-3.7837,-3.8564,-4.0321,-4.1309,-4.158,-4.1743,-4.1772,-4.1607,-4.0102,-3.9423,-3.9423,0.0,0.0,0.0,0.0,0.0,0.0,0.0,0.0,0.0,0.0,0.0,0.0,0.0,0.0,0.0,0.0,0.0,0.0,0.0,0.0,0.0,0.0,0.0,0.0,0.0,0.0,0.0,0.0,0.0,0.0,0.0,0.0,0.0,0.0,0.0,0.0,0.0,0.0,0.0,0.0,0.0,-3.6482,-3.6323,0.0,0.0,0.0,0.0,0.0,0.0,0.0,0.0,0.0,0.0,0.0,0.0,0.0,-3.8219,-3.8007,-3.7257,-3.6865,-3.6865,-3.6154,-3.6192,-3.6846,-3.6154,-3.6154,-3.6654,-3.5962,0.0,-3.6538,-3.6654,0.0,0.0,0.0,0.0,0.0,0.0,0.0,0.0,0.0,0.0,0.0,0.0,0.0,0.0,0.0,0.0,0.0,0.0,0.0,0.0,0.0,0.0,0.0,0.0,0.0,0.0,0.0,0.0,0.0,0.0,0.0,0.0,-3.8007,-3.8815,-4.0029,-4.1655,-4.2253,-4.2752,-4.3119,-4.3008,-4.2965,-4.2928,-4.2231,-4.1423,-4.0579,-4.0579,0.0,0.0,0.0,0.0,0.0,0.0,0.0,0.0,0.0,0.0,0.0,0.0,0.0,0.0,0.0,0.0,0.0,0.0,0.0,0.0,0.0,0.0,0.0,0.0,0.0,0.0,0.0,0.0,0.0,0.0,0.0,0.0,0.0,0.0,0.0,0.0,0.0,0.0,0.0,-3.7803,-3.7542,-3.7233,-3.7997,-3.884,0.0,0.0,0.0,0.0,0.0,0.0,0.0,0.0,0.0,-3.7825,-3.8839,-3.895,-3.8007,-3.7623,-3.743,-3.743,-3.7065,-3.7084,-3.743,-3.7065,-3.7103,-3.7411,-3.7065,-3.7103,-3.7392,-3.6904,-3.7353,-3.8411,0.0,0.0,0.0,0.0,-3.8873,-3.843,0.0,0.0,0.0,0.0,0.0,0.0,0.0,0.0,0.0,0.0,0.0,0.0,0.0,0.0,0.0,-3.8642,0.0,0.0,0.0,0.0,0.0,0.0,0.0,-3.8642,-3.8642,-4.0304,-4.2078,-4.3931,-4.3954,-4.4119,-4.4468,-4.4229,-4.4103,-4.4103,-4.3901,-4.302,-4.1699,-4.148,-4.1056,-4.0524,0.0,0.0,0.0,0.0,0.0,0.0,0.0,0.0,0.0,0.0,0.0,0.0,0.0,0.0,0.0,0.0,0.0,0.0,0.0,0.0,0.0,0.0,0.0,0.0,0.0,0.0,0.0,0.0,0.0,0.0,0.0,0.0,0.0,0.0,0.0,0.0,0.0,-3.7807,-3.7634,-3.7884,-3.7816,-3.8469,0.0,0.0,0.0,0.0,0.0,0.0,-3.7919,-3.9376,-3.9419,-3.7755,-3.9322,-3.9592,-3.8334,-3.8546,-3.8642,-3.8642,-3.8642,-3.8757,-3.8969,-3.8738,-3.8757,-3.895,-3.8527,-3.8334,-3.8277,-3.7392,-3.7161,-3.743,-3.8084,-3.8334,-3.8315,-3.8084,-3.7853,-3.7546,0.0,0.0,0.0,0.0,0.0,0.0,0.0,0.0,0.0,0.0,0.0,0.0,0.0,0.0,-4.0362,-4.0362,-4.0458,-4.0169,0.0,0.0,0.0,0.0,0.0,-4.0362,-4.0362,-4.2085,-4.3404,-4.4261,-4.5207,-4.569,-4.5719,-4.5751,-4.5773,-4.5755,-4.4984,-4.4176,-4.3331,-4.2561,-4.2213,-4.2047,-4.0561,0.0,0.0,0.0,0.0,0.0,0.0,0.0,0.0,0.0,0.0,0.0,0.0,0.0,0.0,0.0,0.0,0.0,0.0,0.0,0.0,0.0,0.0,0.0,0.0,0.0,0.0,0.0,0.0,0.0,0.0,0.0,0.0,0.0,0.0,0.0,0.0,0.0,0.0,-3.7778,-3.6329,0.0,0.0,0.0,0.0,-4.0142,-4.0547,-4.0454,-3.9888,-4.0253,-3.9712,-3.8031,-3.8873,-3.9323,-3.9246,-3.9996,-4.0362,-4.0362,-4.0362,-4.0816,-4.1577,-4.0739,-4.0835,-4.1519,-3.9931,-3.9227,-3.9169,-3.8296,-3.8411,-3.9169,-3.9227,-3.9227,-3.913,-3.8315,-3.7488,-3.6654,0.0,0.0,0.0,0.0,0.0,0.0,0.0,0.0,0.0,0.0,0.0,0.0,0.0,-4.0508,-4.2162,-4.2162,-4.317,-4.3421,-4.2566,0.0,0.0,0.0,0.0,-4.1035,-4.2143,-4.3297,-4.4566,-4.597,-4.6064,-4.6291,-4.6571,-4.6389,-4.6147,-4.5883,-4.5608,-4.5039,-4.4213,-4.3406,-4.2763,-4.2304,-4.2231,-4.1901,0.0,0.0,0.0,0.0,0.0,0.0,0.0,0.0,0.0,0.0,0.0,0.0,0.0,0.0,0.0,0.0,0.0,0.0,0.0,0.0,0.0,0.0,0.0,0.0,0.0,0.0,0.0,0.0,0.0,0.0,0.0,0.0,0.0,0.0,0.0,0.0,0.0,-3.7802,-3.7613,0.0,-3.9801,-3.8939,-3.8851,-4.0258,-3.9328,-3.8831,-3.9154,-3.9933,-4.0101,-3.9493,-4.0689,-4.137,-4.137,-4.1895,-4.2162,-4.2162,-4.2162,-4.2335,-4.2624,-4.2316,-4.2335,-4.2604,-4.2008,-4.1739,-4.172,-4.1412,-4.0162,-3.845,-3.845,-3.845,-3.843,-3.8104,-3.7796,-3.7507,0.0,0.0,0.0,0.0,0.0,0.0,0.0,0.0,0.0,0.0,0.0,-3.9065,-3.9662,-4.2239,-4.3932,-4.3932,-4.496,-4.5114,-4.397,0.0,0.0,0.0,-4.1527,-4.2181,-4.3912,-4.447,-4.5586,-4.7288,-4.7067,-4.7106,-4.7414,-4.721,-4.6979,-4.6709,-4.6434,-4.6012,-4.5461,-4.4654,-4.3681,-4.2727,-4.2983,-4.2782,-4.2176,0.0,0.0,0.0,0.0,0.0,0.0,0.0,0.0,0.0,0.0,0.0,0.0,0.0,0.0,0.0,0.0,0.0,0.0,0.0,0.0,0.0,0.0,0.0,0.0,0.0,0.0,0.0,0.0,0.0,0.0,0.0,0.0,0.0,0.0,0.0,-3.7509,-3.8968,-3.8629,-3.9054,-4.1017,-3.9922,-3.963,-4.0878,-3.9667,-3.9201,-3.9937,-4.0669,-4.1048,-4.1048,-4.2398,-4.3111,-4.3111,-4.3661,-4.3932,-4.3932,-4.3932,-4.3932,-4.3932,-4.3932,-4.3932,-4.3932,-4.3624,-4.3508,-4.347,-4.3201,-4.1758,-3.9662,-3.9065,-3.8681,-3.8392,-3.8104,-3.8007,-3.8007,0.0,0.0,0.0,0.0,0.0,0.0,0.0,0.0,0.0,0.0,-3.9457,-4.117,-4.2912,-4.4613,-4.5594,-4.5594,-4.5594,-4.4902,-4.3258,-4.3104,0.0,0.0,0.0,0.0,-4.5556,-4.5652,-4.649,-4.8144,-4.8188,-4.8225,-4.8235,-4.8286,-4.8306,-4.8269,-4.748,-4.7113,-4.7058,-4.6269,-4.5021,-4.3515,-4.2708,-4.2359,-4.2158,0.0,0.0,0.0,0.0,0.0,0.0,0.0,0.0,0.0,0.0,0.0,0.0,0.0,0.0,0.0,0.0,0.0,0.0,0.0,0.0,0.0,0.0,0.0,0.0,0.0,0.0,0.0,0.0,0.0,0.0,0.0,0.0,0.0,-3.7566,-3.7547,-3.8538,-4.1231,-3.9217,-3.8962,-4.2404,-4.1049,-4.0533,-4.2002,-4.18,-4.189,-4.2495,-4.2517,-4.2517,-4.2517,-4.3675,-4.4282,-4.4282,-4.5145,-4.5586,-4.5586,-4.5586,-4.5594,-4.5594,-4.5594,-4.5594,-4.5556,-4.4701,-4.4335,-4.4278,-4.3508,-4.3181,-4.3008,-4.1266,-4.0092,-3.9323,-3.8469,-3.8161,-3.8161,0.0,0.0,0.0,0.0,0.0,0.0,0.0,0.0,0.0,0.0,-3.9457,-4.117,-4.2912,-4.4613,-4.5594,-4.5594,-4.5594,-4.5152,-4.4047,0.0,0.0,0.0,0.0,0.0,-4.5594,-4.6778,-4.7952,-4.9048,-4.8778,-4.8806,-4.9135,-4.8868,-4.8568,-4.8306,-4.8086,-4.7645,-4.7094,-4.6856,-4.6195,-4.5168,-4.436,-4.3699,-4.3057,0.0,0.0,0.0,0.0,0.0,0.0,0.0,0.0,0.0,0.0,0.0,0.0,0.0,0.0,0.0,0.0,0.0,0.0,0.0,0.0,0.0,0.0,0.0,0.0,0.0,0.0,0.0,0.0,0.0,0.0,0.0,0.0,-3.9237,-3.9237,-3.8744,-3.8863,-4.0201,-4.0218,-4.0499,-4.1456,-4.1084,-4.119,-4.2168,-4.2147,-4.2435,-4.3191,-4.3243,-4.3243,-4.3243,-4.3774,-4.4078,-4.4078,-4.4855,-4.5232,-4.5232,-4.5485,-4.5594,-4.5594,-4.5594,-4.5594,-4.5594,-4.5344,-4.5248,-4.5229,-4.4998,-4.4921,-4.4748,-4.3047,-4.2239,-4.2027,-4.1797,-4.17,-4.1604,0.0,0.0,0.0,0.0,0.0,0.0,0.0,0.0,0.0,0.0,-3.99,-4.1439,-4.3874,-4.5017,-4.5594,-4.5594,-4.5594,-4.5229,-4.4355,0.0,0.0,0.0,0.0,-4.6471,-4.7191,-4.8144,-4.9067,-4.9933,-4.9537,-4.9467,-4.9746,-4.9171,-4.8779,-4.8532,-4.8383,-4.8049,-4.759,-4.759,-4.7131,-4.6361,-4.5883,-4.5021,-4.3901,-4.3112,-4.2598,-4.2194,-4.1389,-4.1095,-4.1022,-4.0561,0.0,0.0,0.0,0.0,0.0,0.0,0.0,0.0,0.0,0.0,0.0,0.0,0.0,0.0,0.0,0.0,0.0,0.0,0.0,0.0,0.0,0.0,0.0,0.0,-4.0396,-4.0524,-4.0855,-4.0212,-4.001,-4.0818,-4.1332,-4.1866,-4.2526,-4.2599,-4.2996,-4.3954,-4.3894,-4.408,-4.469,-4.4709,-4.4709,-4.4709,-4.5072,-4.5248,-4.5248,-4.5817,-4.6115,-4.6115,-4.6465,-4.6644,-4.6644,-4.6297,-4.6144,0.0,-4.5768,-4.5594,-4.5594,-4.5594,-4.5594,0.0,0.0,0.0,0.0,0.0,-4.3104,-4.3028,0.0,0.0,0.0,0.0,0.0,0.0,0.0,0.0,0.0,0.0,0.0,-4.1805,-4.5229,-4.5594,-4.5594,-4.5594,-4.5518,-4.5094,0.0,0.0,0.0,-4.5556,-4.6528,-4.7778,-4.9375,-4.949,-4.9933,-5.0712,-5.039,-5.0245,-5.0214,-4.9472,-4.9094,-4.9029,-4.8569,-4.8345,-4.8306,-4.8306,-4.7902,-4.7241,-4.7241,-4.6269,-4.4764,-4.3938,-4.3185,-4.247,-4.1645,-4.137,-4.1352,-4.126,0.0,0.0,0.0,0.0,0.0,0.0,0.0,0.0,0.0,0.0,0.0,0.0,0.0,0.0,0.0,0.0,0.0,0.0,0.0,0.0,0.0,0.0,0.0,0.0,-4.1279,-4.1535,-4.2451,-4.1957,-4.1756,-4.2488,-4.258,-4.3167,-4.469,-4.4838,-4.5253,-4.6273,-4.6079,-4.6044,-4.6327,0.0,0.0,0.0,0.0,-4.6896,-4.6953,-4.7283,-4.7467,-4.7514,-4.7913,-4.8105,-4.8086,-4.7355,-4.7038,-4.6981,-4.622,-4.5825,-4.5748,-4.5748,-4.5691,-4.5518,-4.4739,-4.4451,-4.4355,-4.3643,-4.3374,-4.3374,0.0,0.0,0.0,0.0,0.0,0.0,0.0,0.0,0.0,-4.0054,-4.0496,-4.1805,-4.5229,-4.5594,-4.5594,-4.5594,-4.496,-4.4201,0.0,0.0,-4.4682,-4.5556,-4.7067,-4.8355,-4.9375,-5.0087,-5.0539,-5.0712,-5.0945,-5.1077,-5.1065,-5.0634,-5.0263,-4.9901,-4.9128,-4.8604,-4.8306,-4.8306,-4.8214,-4.8086,-4.8086,-4.7113,-4.5571,-4.4782,-4.4378,-4.414,-4.3314,-4.3039,-4.2928,-4.2286,-4.2066,-4.1956,-4.1297,0.0,0.0,0.0,0.0,0.0,0.0,0.0,0.0,0.0,0.0,0.0,0.0,0.0,0.0,0.0,0.0,0.0,0.0,0.0,0.0,-4.2928,-4.2488,-4.258,-4.403,-4.4086,-4.4049,-4.4232,-4.4232,-4.4617,-4.5571,-4.5663,-4.5754,-4.5991,-4.5938,-4.592,-4.5991,-4.5991,0.0,-4.5991,-4.6061,-4.6264,-4.6579,-4.693,-4.7264,-4.7579,0.0,0.0,-4.8086,-4.7952,-4.7875,-4.7855,-4.7682,-4.7259,-4.6644,-4.6644,-4.622,-4.5575,-4.5421,-4.5344,-4.5325,-4.5171,-4.5114,-4.5017,0.0,0.0,0.0,0.0,0.0,0.0,0.0,0.0,0.0,0.0,-3.9238,-4.0373,-4.3374,-4.3701,-4.3874,-4.4316,-4.4316,0.0,0.0,-4.4489,-4.5509,-4.6797,-4.7644,-4.8702,-5.001,-5.0481,-5.0712,-5.0712,-5.0896,-5.1004,-5.0993,-5.0615,-5.0232,-4.9821,-4.9164,-4.8675,-4.8306,-4.8306,-4.8306,-4.8306,-4.8306,-4.7829,-4.7021,-4.6195,-4.5388,-4.4636,-4.425,-4.3828,-4.3441,-4.3039,-4.2892,-4.2818,-4.2433,-4.2304,-4.2213,0.0,0.0,0.0,0.0,0.0,0.0,0.0,0.0,0.0,0.0,0.0,0.0,0.0,0.0,-4.2304,0.0,0.0,-4.2892,-4.2892,-4.324,-4.3791,-4.4581,-4.5057,-4.5296,-4.5296,-4.5296,-4.5626,-4.6434,-4.6507,-4.6673,-4.7076,-4.7095,-4.7095,-4.7095,-4.7095,-4.7095,-4.7095,-4.7095,-4.7206,-4.7401,-4.778,-4.8139,-4.8561,-4.8915,-4.9208,-4.9394,-4.8952,-4.8759,-4.8721,-4.8298,-4.7875,-4.7471,-4.7058,-4.6394,-4.5594,-4.5594,-4.5594,-4.5594,-4.5594,-4.5594,-4.5537,0.0,0.0,0.0,0.0,0.0,0.0,0.0,0.0,0.0,0.0,-3.8086,-3.9096,-4.1538,-4.189,-4.2172,0.0,0.0,0.0,0.0,-4.4991,-4.6355,-4.8029,-4.8105,-4.8913,-5.0654,-5.0712,-5.0712,-5.0712,-5.0768,-5.0824,-5.0814,-5.0419,-5.002,-4.9616,-4.9118,-4.8675,-4.8306,-4.8306,-4.8306,-4.8306,-4.8306,-4.8306,-4.8214,-4.7406,-4.6195,-4.4911,-4.4746,-4.4176,-4.3515,-4.3515,-4.3515,-4.3515,-4.3515,-4.3515,-4.3369,-4.2708,-4.2066,0.0,0.0,0.0,0.0,0.0,0.0,0.0,0.0,0.0,-4.2268,-4.2103,-4.2708,-4.3057,-4.2415,-4.3094,-4.3516,-4.2873,-4.3993,-4.5002,-4.5131,-4.5718,-4.6195,-4.6342,-4.6232,-4.6452,-4.7259,-4.7333,-4.759,-4.8251,-4.8306,-4.8306,-4.8306,-4.8306,-4.8306,-4.8306,-4.8306,-4.8344,-4.842,-4.8727,-4.9092,-4.9504,-4.9827,-5.0159,-5.0453,-4.9815,-4.9528,-4.9499,-4.8702,-4.8355,-4.8269,-4.7223,-4.6425,-4.5836,-4.5599,-4.5531,-4.5594,-4.5594,-4.5594,-4.5594,0.0,0.0,0.0,0.0,0.0,0.0,0.0,0.0,0.0,0.0,0.0,0.0,0.0,0.0,0.0,0.0,0.0,0.0,-4.2861,-4.4546,-4.6355,-4.8029,-4.8105,-4.8913,-5.0654,-5.0712,-5.0712,-5.0712,-5.1055,-5.1233,-5.1221,-5.0873,-5.0515,-5.0098,-4.9266,-4.8675,-4.8306,-4.8306,-4.8306,-4.8306,-4.8306,-4.8306,-4.8214,-4.7406,-4.6526,-4.5663,-4.4966,-4.4176,-4.3515,-4.3515,-4.3515,-4.3515,-4.3515,-4.3515,-4.3478,-4.3404,0.0,-4.324,-4.3332,-4.3222,-4.2947,-4.2323,-4.269,-4.2855,0.0,0.0,-4.2103,-4.137,-4.1882,-4.2415,-4.2323,-4.3552,-4.4544,-4.4452,-4.5186,-4.603,-4.6727,-4.6911,-4.7223,-4.7957,-4.7388,-4.7278,-4.8104,-4.8177,-4.8214,-4.8306,-4.8306,-4.8306,-4.8306,-4.8306,-4.8306,-4.8306,-4.8306,-4.8458,-4.883,-4.888,-4.9092,-4.9489,-4.9566,-4.9575,-4.9631,-4.9892,-5.0018,-4.9992,-4.9488,-4.924,-4.9087,-4.7167,-4.652,-4.6655,-4.5569,-4.5332,-4.5594,-4.5594,-4.5594,-4.5594,0.0,0.0,0.0,0.0,0.0,0.0,0.0,0.0,0.0,0.0,0.0,0.0,0.0,0.0,0.0,0.0,0.0,0.0,-4.2917,-4.46,-4.6144,-4.7355,-4.7413,-4.8202,-4.9913,-4.9933,-5.0183,-5.0712,-5.0639,-5.06,-5.0588,-5.0217,-4.9821,-4.9435,-4.9046,-4.8675,-4.8306,-4.8306,-4.8306,-4.8306,-4.8306,-4.8012,-4.7553,-4.7223,-4.6305,-4.5168,-4.4837,-4.4176,0.0,0.0,-4.3515,-4.3515,-4.3515,-4.3515,-4.3515,-4.3515,-4.3167,0.0,-4.2231,-4.2451,0.0,0.0,-4.2543,-4.2745,-4.2543,-4.2763,-4.3039,-4.3168,-4.3462,-4.3846,-4.4305,-4.4947,-4.5406,0.0,-4.6085,-4.6709,-4.7058,-4.7498,-4.7921,-4.8269,-4.8012,-4.792,-4.8269,-4.8306,-4.8306,-4.8306,-4.8306,-4.8306,-4.8306,-4.8306,-4.8306,-4.8306,-4.8306,-4.8383,-4.855,-4.855,-4.8744,-4.9155,-4.9155,-4.928,-4.9522,-4.9659,-4.9746,-4.9754,-4.9789,-4.9513,-4.8996,-4.837,-4.7489,-4.6489,-4.599,-4.5475,-4.5074,-4.5448,-4.5594,-4.5594,0.0,0.0,0.0,0.0,0.0,0.0,0.0,0.0,0.0,0.0,0.0,0.0,0.0,0.0,0.0,0.0,0.0,0.0,0.0,-4.4221,-4.5534,-4.6846,-4.6791,-4.7463,-4.9009,-4.8952,-4.92,-4.9844,-4.9567,-4.9445,-4.9432,-4.9243,-4.9013,-4.8727,-4.8727,-4.8568,-4.8306,-4.8067,-4.7957,-4.7957,-4.7737,-4.7297,-4.6727,-4.6526,-4.57,-4.4691,-4.4691,-4.4176,0.0,0.0,-4.3515,-4.3515,-4.3515,-4.3515,-4.3515,-4.3515,-4.3075,-4.2506,-4.1919,0.0,0.0,-4.291,-4.2965,-4.3167,-4.3975,-4.4158,-4.4323,-4.4911,-4.5039,-4.5223,-4.5792,-4.6085,-4.6232,-4.6232,-4.6911,-4.7424,-4.7424,-4.792,-4.8306,-4.8306,-4.8306,-4.8306,-4.8306,-4.8306,-4.8306,-4.8306,-4.8306,-4.8306,-4.8306,-4.8306,-4.8306,-4.8306,-4.8306,-4.8306,-4.8306,-4.8306,-4.8458,-4.8727,-4.8727,-4.888,-4.9171,-4.928,-4.9401,-4.9504,-4.98,-4.9581,-4.8986,-4.8953,-4.8022,-4.6591,-4.6149,-4.5483,-4.48,-4.5171,-4.5371,-4.5485,0.0,0.0,0.0,0.0,0.0,0.0,0.0,0.0,0.0,0.0,0.0,0.0,0.0,0.0,0.0,0.0,0.0,0.0,0.0,-4.3092,-4.4429,-4.6789,-4.6527,-4.6889,-4.8115,-4.7809,-4.7678,-4.7697,-4.7743,-4.7772,-4.7791,-4.8163,-4.8344,-4.8325,-4.8325,-4.8306,-4.8251,-4.7461,-4.7131,-4.7058,-4.6287,-4.5957,-4.5847,-4.5076,-4.4728,-4.4691,-4.4691,0.0,0.0,-4.3515,-4.3515,-4.3515,-4.3515,-4.3515,0.0,-4.3515,-4.3478,0.0,0.0,0.0,-4.3644,-4.4433,-4.4635,-4.4837,-4.5645,-4.5828,-4.5828,-4.5865,-4.5865,-4.5865,-4.5902,-4.6526,-4.7058,-4.7058,-4.7736,-4.8269,-4.8269,-4.8288,-4.8306,-4.8306,-4.8306,-4.8306,0.0,-4.8306,-4.8306,-4.8306,-4.8306,-4.8306,-4.8306,-4.8306,-4.8306,-4.8306,-4.8306,-4.8306,-4.8306,-4.8306,-4.8306,-4.8325,-4.8325,-4.8307,-4.8345,-4.8727,-4.9123,-4.9489,-4.9504,-4.9499,-4.9395,-4.8244,-4.765,-4.731,-4.5819,-4.5165,-4.5052,-4.4732,-4.4837,-4.515,0.0,0.0,0.0,0.0,0.0,0.0,0.0,0.0,0.0,0.0,0.0,0.0,0.0,0.0,0.0,0.0,0.0,0.0,0.0,-4.3047,-4.413,-4.4509,-4.5359,-4.6176,-4.69,-4.7058,-4.7286,-4.761,-4.7365,-4.7128,-4.6903,-4.678,-4.6709,-4.6709,-4.6709,-4.6709,-4.6691,-4.6416,-4.6305,-4.6287,-4.6012,-4.5571,-4.5076,-4.48,-4.4378,-4.3901,0.0,0.0,0.0,-4.3515,-4.3515,-4.3515,-4.3515,-4.3515,-4.3515,-4.3515,-4.3515,-4.3608,0.0,0.0,-4.4488,-4.5296,-4.5498,-4.5571,-4.5847,-4.5902,-4.6049,-4.6581,-4.6269,-4.6067,-4.6599,-4.6911,-4.7094,-4.7094,-4.7773,-4.8306,-4.8306,-4.8306,-4.8306,-4.8306,-4.8306,0.0,0.0,0.0,0.0,-4.8306,-4.8306,-4.8306,-4.8306,-4.8306,-4.8306,-4.8306,-4.8306,-4.8306,-4.8306,-4.8306,-4.8306,-4.8306,-4.8306,-4.8306,-4.8306,-4.8439,-4.8568,-4.871,-4.8996,-4.9092,-4.9089,-4.8949,-4.8394,-4.7548,-4.6722,-4.5754,-4.4826,-4.4667,-4.4495,-4.4468,0.0,0.0,0.0,0.0,0.0,0.0,0.0,0.0,0.0,0.0,0.0,0.0,0.0,0.0,0.0,0.0,0.0,0.0,0.0,0.0,-4.2758,-4.2862,-4.3715,-4.45,-4.5209,-4.5365,-4.5719,-4.631,-4.6219,-4.6075,-4.5857,-4.588,-4.5902,-4.5902,-4.5902,-4.5902,-4.5883,-4.559,-4.548,-4.5461,-4.5149,-4.4727,-4.4268,-4.4268,-4.3956,0.0,0.0,0.0,-4.3515,-4.3515,-4.3515,-4.3515,-4.3515,-4.3515,-4.3515,-4.3515,-4.3699,-4.4048,-4.4562,-4.4911,-4.5333,-4.614,-4.6342,-4.6397,-4.6691,-4.6764,-4.6911,-4.7406,-4.6874,-4.6489,-4.7003,-4.7094,-4.7003,-4.6709,-4.7351,-4.7865,-4.7865,-4.7865,-4.7994,-4.8269,-4.8306,0.0,0.0,0.0,0.0,-4.8306,-4.8306,-4.8306,-4.8306,-4.8306,-4.8306,-4.8306,-4.8306,-4.8306,-4.8306,-4.8306,-4.8306,-4.8306,-4.8306,-4.8306,-4.8306,-4.8306,-4.8306,-4.8325,-4.8568,-4.8692,-4.871,-4.8963,-4.853,-4.763,-4.6881,-4.5908,-4.4818,-4.4363,-4.405,-4.3927,0.0,0.0,0.0,0.0,0.0,0.0,0.0,0.0,0.0,0.0,0.0,0.0,0.0,0.0,0.0,0.0,0.0,0.0,0.0,0.0,0.0,-4.192,-4.1756,-4.2117,-4.319,-4.296,-4.3189,-4.3942,-4.4435,-4.4671,-4.4672,-4.5424,-4.5773,-4.5773,-4.5773,-4.5773,-4.5736,-4.4966,-4.4654,-4.4563,-4.3809,-4.3515,-4.3515,-4.3515,0.0,0.0,0.0,0.0,0.0,0.0,0.0,0.0,0.0,-4.3478,-4.3515,-4.3551,-4.4103,-4.4709,-4.4801,-4.5388,-4.6159,-4.6947,-4.7168,-4.7351,-4.8141,-4.8306,-4.8306,-4.8251,-4.759,-4.7021,0.0,0.0,-4.6782,-4.6012,-4.6617,-4.7168,-4.7168,-4.7168,-4.7443,0.0,0.0,0.0,0.0,0.0,0.0,-4.8306,0.0,-4.8306,-4.8306,-4.8306,-4.8306,-4.8306,-4.8306,-4.8306,-4.8306,-4.8306,-4.8306,-4.8306,-4.8306,-4.8306,-4.8306,-4.8306,-4.8306,-4.8306,-4.8306,-4.8306,-4.8306,-4.8306,-4.8089,-4.7607,-4.6394,-4.5632,-4.5095,-4.3942,-4.3513,-4.3597,0.0,0.0,0.0,0.0,0.0,0.0,0.0,0.0,0.0,0.0,0.0,0.0,0.0,0.0,0.0,0.0,0.0,0.0,0.0,0.0,0.0,0.0,0.0,0.0,0.0,0.0,0.0,-4.31,-4.3835,-4.4056,-4.3809,-4.4011,-4.4103,-4.4103,-4.4103,-4.4103,-4.4102,-4.3883,-4.3809,-4.3791,0.0,-4.3515,-4.3515,0.0,0.0,0.0,0.0,0.0,0.0,0.0,0.0,0.0,0.0,-4.302,-4.3608,-4.4213,-4.4544,-4.4948,-4.6159,-4.6636,-4.6984,-4.7791,-4.7975,-4.8048,-4.8251,-4.8306,-4.8141,-4.7516,-4.6783,-4.603,-4.5406,0.0,0.0,-4.592,-4.7076,0.0,-4.7975,-4.7975,0.0,-4.8288,0.0,-4.8306,-4.8306,-4.8306,0.0,0.0,-4.8306,-4.8306,-4.8306,-4.8306,-4.8306,-4.8306,-4.8306,-4.8306,-4.8306,-4.8306,-4.8306,-4.8306,-4.8306,-4.8306,-4.8306,-4.8306,-4.8306,-4.8306,-4.8306,-4.8306,-4.8306,-4.8306,-4.8235,-4.8016,-4.6769,-4.6052,-4.5564,-4.4323,-4.371,-4.3531,0.0,0.0,0.0,0.0,0.0,0.0,0.0,0.0,0.0,0.0,0.0,0.0,0.0,0.0,0.0,0.0,0.0,0.0,0.0,0.0,0.0,0.0,0.0,0.0,0.0,0.0,0.0,0.0,0.0,0.0,-4.3515,-4.3515,-4.3515,-4.3515,-4.3515,-4.3515,-4.3515,-4.3515,0.0,0.0,0.0,0.0,0.0,0.0,0.0,0.0,0.0,0.0,0.0,0.0,0.0,-4.2892,-4.2433,-4.2837,-4.3644,-4.447,0.0,-4.5498,-4.6764,-4.7351,-4.7736,-4.8196,-4.8306,-4.8214,-4.7846,-4.7755,-4.7535,-4.6746,-4.5938,0.0,-4.4764,0.0,0.0,0.0,0.0,0.0,-4.7755,-4.7755,-4.7901,0.0,-4.8306,0.0,-4.8306,-4.8306,-4.8306,0.0,-4.8306,-4.8306,-4.8306,-4.8306,-4.8306,-4.8306,-4.8306,-4.8306,-4.8306,-4.8306,-4.8306,-4.8306,-4.8306,-4.8306,-4.8306,-4.8306,-4.8306,-4.8306,0.0,-4.8306,-4.8306,-4.8306,-4.8306,-4.8197,-4.7129,-4.6375,-4.5773,-4.469,-4.3957,-4.3515,0.0,0.0,0.0,0.0,0.0,0.0,0.0,0.0,0.0,0.0,0.0,0.0,0.0,0.0,0.0,0.0,0.0,0.0,0.0,0.0,0.0,0.0,0.0,0.0,0.0,0.0,0.0,0.0,0.0,0.0,0.0,0.0,0.0,0.0,0.0,0.0,0.0,0.0,0.0,0.0,0.0,0.0,0.0,0.0,0.0,0.0,0.0,0.0,0.0,0.0,-4.1627,-4.2286,-4.2176,-4.2837,-4.3809,-4.4635,-4.5443,-4.6232,-4.7039,-4.7755,-4.8306,-4.8306,-4.8306,-4.8104,-4.7278,-4.7094,-4.6837,-4.5938,0.0,-4.4654,-4.4562,-4.5204,-4.5553,-4.4966,0.0,-4.7131,-4.7241,-4.7259,-4.7516,-4.8233,-4.8306,-4.8306,-4.8306,-4.8306,-4.8306,-4.8306,-4.8306,-4.8306,-4.8306,-4.8306,-4.8306,-4.8306,-4.8306,-4.8306,-4.8306,-4.8306,-4.8306,-4.8306,-4.8306,-4.8306,-4.8306,-4.8306,-4.8306,-4.8306,0.0,0.0,-4.8306,-4.8306,-4.8306,-4.8233,-4.7406,-4.6654,-4.5957,-4.5057,-4.4268,-4.3626,0.0,0.0,0.0,0.0,0.0,0.0,0.0,0.0,0.0,0.0,0.0,0.0,0.0,0.0,0.0,0.0,0.0,0.0,0.0,0.0,0.0,0.0,0.0,0.0,0.0,0.0,0.0,0.0,0.0,0.0,0.0,0.0,0.0,0.0,0.0,0.0,0.0,0.0,0.0,0.0,0.0,0.0,0.0,0.0,0.0,0.0,0.0,0.0,0.0,0.0,-4.1627,-4.2176,-4.1517,-4.2765,-4.4654,-4.5461,-4.6269,-4.7058,-4.7884,-4.8196,-4.8306,-4.8306,-4.8306,-4.8104,-4.7278,-4.7094,0.0,0.0,0.0,-4.4507,-4.3828,-4.4378,0.0,-4.5608,0.0,0.0,0.0,0.0,-4.8141,0.0,0.0,0.0,0.0,0.0,0.0,0.0,0.0,-4.8306,-4.8306,-4.8306,-4.8306,-4.8306,-4.8306,-4.8306,-4.8306,-4.8306,-4.8306,-4.8306,-4.8306,-4.8306,-4.8306,-4.8306,-4.8306,-4.8306,-4.8306,0.0,-4.8306,-4.8306,-4.8306,-4.8233,-4.7406,-4.7003,-4.6709,-4.5241,-4.4617,-4.4397,0.0,0.0,0.0,0.0,0.0,0.0,0.0,0.0,0.0,0.0,-3.6997,-3.7823,0.0,0.0,0.0,0.0,0.0,0.0,0.0,0.0,0.0,0.0,0.0,0.0,0.0,0.0,0.0,0.0,0.0,0.0,0.0,0.0,0.0,0.0,0.0,0.0,0.0,0.0,0.0,0.0,0.0,0.0,0.0,0.0,0.0,0.0,0.0,0.0,0.0,0.0,-4.1992,-4.2158,-4.1352,-4.247,-4.4323,-4.5535,-4.6177,-4.6746,-4.7976,-4.8306,-4.8306,-4.8306,-4.8306,-4.7994,-4.6764,0.0,0.0,0.0,0.0,-4.3956,-4.357,0.0,0.0,0.0,0.0,0.0,0.0,0.0,0.0,0.0,0.0,0.0,0.0,0.0,0.0,0.0,0.0,-4.8306,-4.8306,-4.8306,-4.8306,-4.8306,-4.8306,-4.8306,-4.8306,-4.8306,-4.8306,-4.8306,-4.8306,-4.8306,-4.8306,-4.8306,-4.8306,-4.8306,-4.8306,0.0,-4.8306,-4.8306,-4.8306,-4.8269,-4.7865,-4.7461,-4.6947,-4.5773,-4.5057,-4.458,0.0,0.0,0.0,0.0,0.0,0.0,0.0,-3.4472,-3.5316,-3.6193,-3.6997,-3.7823,-3.8615,-3.8707,0.0,0.0,0.0,0.0,0.0,0.0,0.0,0.0,0.0,0.0,0.0,0.0,0.0,0.0,0.0,0.0,0.0,0.0,0.0,0.0,0.0,0.0,0.0,0.0,0.0,0.0,0.0,0.0,0.0,0.0,0.0,0.0,0.0,0.0,0.0,0.0,-4.2415,-4.2415,-4.1625,-4.247,-4.403,-4.548,-4.6012,-4.6471,-4.7921,-4.8306,-4.8306,-4.8306,-4.8177,-4.7682,-4.6232,-4.5773,0.0,0.0,-4.3515,-4.3515,-4.3515,0.0,0.0,0.0,0.0,0.0,0.0,0.0,0.0,0.0,0.0,0.0,0.0,0.0,0.0,0.0,0.0,0.0,-4.8306,-4.8306,-4.8306,-4.8306,-4.8306,-4.8306,-4.8306,-4.8306,-4.8306,-4.8306,-4.8306,-4.8306,-4.8306,-4.8306,-4.8306,-4.8306,-4.8306,0.0,0.0,-4.8306,-4.8306,-4.8306,-4.8306,-4.7901,-4.7241,-4.6269,-4.5498,-4.4819,0.0,0.0,0.0,0.0,0.0,0.0,0.0,-3.4472,-3.5316,-3.6193,-3.6997,-3.7823,-3.8615,-3.8707,0.0,0.0,0.0,0.0,0.0,0.0,0.0,0.0,0.0,0.0,0.0,0.0,0.0,0.0,0.0,0.0,0.0,0.0,0.0,0.0,0.0,0.0,0.0,0.0,0.0,0.0,0.0,0.0,0.0,0.0,0.0,0.0,0.0,0.0,0.0,0.0,0.0,-4.324,-4.2433,-4.3296,-4.4764,-4.5645,0.0,0.0,-4.8067,-4.8306,-4.8306,-4.8306,-4.7736,-4.6966,-4.6104,0.0,0.0,-4.368,-4.3515,-4.3515,-4.3515,-4.3552,-4.3846,0.0,0.0,0.0,0.0,0.0,0.0,0.0,0.0,0.0,0.0,0.0,0.0,0.0,0.0,0.0,-4.8306,-4.8306,-4.8306,-4.8306,-4.8306,-4.8306,-4.8306,-4.8306,-4.8306,-4.8306,-4.8306,-4.8306,-4.8306,-4.8306,-4.8306,-4.8306,-4.8306,0.0,0.0,-4.8306,-4.8306,-4.8306,-4.8306,-4.8251,-4.8012,-4.6471,-4.5847,-4.5571,0.0,0.0,0.0,0.0,0.0,0.0,0.0,-3.4926,-3.5917,-3.6248,-3.7422,-3.8157,-3.7991,-3.7988,-3.8175,0.0,0.0,0.0,0.0,0.0,0.0,0.0,0.0,0.0,0.0,0.0,0.0,0.0,0.0,0.0,0.0,0.0,0.0,0.0,0.0,0.0,0.0,0.0,0.0,0.0,0.0,0.0,0.0,0.0,0.0,0.0,0.0,0.0,0.0,0.0,0.0,0.0,-4.3112,-4.3461,0.0,0.0,-4.5406,-4.5938,-4.7223,-4.7571,-4.7571,-4.7571,-4.7333,-4.6764,-4.548,0.0,-4.447,-4.3663,-4.3515,-4.3515,-4.3515,-4.3515,-4.3606,0.0,0.0,0.0,0.0,0.0,0.0,0.0,0.0,0.0,0.0,0.0,0.0,0.0,0.0,0.0,-4.8306,-4.8306,-4.8306,-4.8306,-4.8306,-4.8306,-4.8306,-4.8306,-4.8306,-4.8306,-4.8306,-4.8306,-4.8306,-4.8306,-4.8306,-4.8306,-4.8306,0.0,0.0,-4.8306,-4.8306,-4.8306,-4.8306,-4.8012,-4.7443,-4.6305,-4.559,-4.5021,0.0,0.0,0.0,0.0,0.0,0.0,-3.4119,-3.5385,-3.6376,-3.6615,-3.7643,-3.812,-3.7566,-3.729,-3.7367,-3.7936,0.0,0.0,0.0,0.0,0.0,0.0,0.0,0.0,0.0,0.0,0.0,0.0,0.0,0.0,0.0,0.0,0.0,0.0,0.0,0.0,0.0,0.0,0.0,0.0,0.0,0.0,0.0,0.0,0.0,0.0,0.0,0.0,0.0,0.0,0.0,0.0,0.0,0.0,0.0,0.0,-4.4691,-4.4984,-4.636,-4.6746,-4.6746,-4.6746,-4.6562,-4.6085,0.0,0.0,-4.4176,-4.3608,-4.3515,-4.3515,-4.3515,-4.3515,-4.3515,0.0,0.0,-4.4433,0.0,0.0,0.0,0.0,0.0,0.0,0.0,0.0,0.0,0.0,0.0,0.0,0.0,-4.8306,-4.8306,-4.8306,-4.8306,-4.8306,-4.8306,-4.8306,-4.8306,-4.8306,-4.8306,-4.8306,-4.8306,-4.8306,-4.8306,-4.8306,0.0,0.0,0.0,-4.8306,-4.8306,-4.8306,-4.8306,-4.781,-4.7003,-4.6195,-4.5388,-4.458,0.0,0.0,0.0,0.0,0.0,0.0,0.0,-3.572,-3.6578,-3.7382,-3.7492,-3.7511,-3.7492,-3.6795,-3.6321,-3.6321,0.0,0.0,0.0,0.0,0.0,0.0,0.0,0.0,0.0,0.0,0.0,-4.1077,-4.1901,0.0,0.0,0.0,0.0,0.0,0.0,0.0,0.0,0.0,0.0,0.0,0.0,0.0,0.0,0.0,0.0,0.0,0.0,0.0,0.0,0.0,0.0,0.0,0.0,0.0,0.0,0.0,-4.4691,-4.4892,-4.5681,-4.5902,-4.5902,-4.5902,-4.5314,-4.4709,0.0,0.0,-4.3515,-4.3515,-4.3515,-4.3515,-4.3515,-4.3515,-4.3515,-4.3515,-4.3515,0.0,0.0,0.0,0.0,0.0,0.0,0.0,0.0,0.0,0.0,0.0,0.0,0.0,0.0,-4.8306,-4.8306,-4.8306,-4.8306,-4.8306,-4.8306,-4.8306,-4.8306,-4.8306,-4.8306,-4.8306,-4.8306,-4.8306,-4.8306,0.0,0.0,0.0,0.0,-4.8306,-4.8306,-4.8306,-4.8306,-4.781,-4.7003,-4.6195,-4.5388,-4.458,0.0,0.0,0.0,0.0,0.0,0.0,0.0,-3.4876,-3.55,-3.5756,-3.6303,-3.645,-3.5862,-3.5555,-3.5408,-3.5408,0.0,0.0,0.0,0.0,0.0,0.0,0.0,0.0,0.0,0.0,-3.8924,-4.0286,-4.1093,-4.1901,-4.269,0.0,0.0,0.0,0.0,0.0,0.0,0.0,0.0,0.0,0.0,0.0,0.0,0.0,0.0,0.0,0.0,0.0,0.0,0.0,0.0,0.0,0.0,0.0,0.0,-4.3809,0.0,0.0,-4.4856,-4.5094,-4.5094,-4.5094,-4.4892,-4.4562,-4.4011,0.0,-4.3515,-4.3515,-4.3515,-4.3515,-4.3515,-4.3515,-4.3515,-4.3515,-4.3515,0.0,0.0,0.0,0.0,0.0,0.0,0.0,0.0,0.0,0.0,0.0,0.0,0.0,0.0,-4.8306,-4.8306,-4.8306,-4.8306,-4.8306,-4.8306,-4.8306,-4.8306,-4.8306,-4.8306,-4.8306,-4.8306,-4.8306,0.0,0.0,0.0,0.0,0.0,-4.8306,-4.8306,-4.8251,-4.7681,-4.7003,-4.6177,-4.5388,-4.458,-4.3828,0.0,0.0,0.0,0.0,0.0,0.0,0.0,-3.4674,-3.5133,-3.5445,-3.5665,-3.5591,-3.5059,-3.4729,-3.4546,-3.4546,0.0,0.0,0.0,0.0,0.0,0.0,0.0,0.0,0.0,-3.7639,-3.8432,-3.9441,-4.0545,-4.1352,-4.1864,-4.2671,-4.3039,0.0,0.0,0.0,0.0,0.0,0.0,0.0,0.0,0.0,-4.3075,0.0,0.0,0.0,0.0,0.0,0.0,0.0,0.0,0.0,0.0,0.0,0.0,0.0,-4.3515,-4.3608,0.0,-4.425,-4.425,-4.425,-4.425,0.0,0.0,0.0,-4.3515,-4.3515,-4.3515,-4.3515,-4.3515,-4.3515,-4.3515,-4.3515,-4.3515,0.0,0.0,0.0,0.0,0.0,0.0,0.0,0.0,0.0,0.0,0.0,0.0,0.0,0.0,-4.8306,-4.8306,-4.8306,-4.8306,-4.8306,-4.8306,-4.8306,-4.8306,-4.8306,-4.8306,-4.8306,-4.8306,-4.8306,0.0,0.0,0.0,0.0,0.0,-4.8306,-4.8306,-4.8233,-4.7406,-4.6599,-4.5792,-4.5002,-4.4195,-4.3515,0.0,0.0,0.0,0.0,0.0,0.0,0.0,0.0,0.0,0.0,-3.5408,-3.4912,-3.4912,-3.4252,-3.3807,0.0,0.0,0.0,0.0,0.0,0.0,0.0,0.0,0.0,0.0,-3.7734,-3.856,-3.8615,-4.0215,-4.104,-4.1113,-4.1919,-4.2304,-4.2323,-4.3075,-4.3423,-4.3423,-4.3423,-4.302,-4.2451,-4.313,-4.3002,0.0,0.0,0.0,0.0,0.0,0.0,0.0,0.0,0.0,0.0,0.0,0.0,0.0,0.0,0.0,0.0,0.0,-4.3515,0.0,0.0,0.0,0.0,0.0,0.0,0.0,-4.3515,-4.3515,-4.3515,-4.3515,-4.3515,-4.3515,-4.3515,-4.3515,0.0,0.0,0.0,0.0,0.0,0.0,0.0,0.0,0.0,0.0,0.0,0.0,0.0,0.0,-4.8306,-4.8306,-4.8306,-4.8306,-4.8306,-4.8306,-4.8306,-4.8306,-4.8306,-4.8306,-4.8306,-4.8306,-4.8306,0.0,0.0,0.0,0.0,0.0,-4.8306,-4.8269,-4.8141,-4.7333,-4.6526,-4.5718,-4.4911,-4.414,-4.3515,0.0,0.0,0.0,0.0,0.0,0.0,0.0,0.0,0.0,0.0,0.0,-3.4082,-3.4082,-3.3917,0.0,0.0,0.0,0.0,0.0,0.0,0.0,0.0,0.0,0.0,0.0,-3.634,-3.7165,-3.7786,-3.9386,-4.0506,-4.1113,-4.1919,-4.2304,-4.2304,-4.2506,-4.258,-4.258,-4.258,-4.2818,-4.3167,-4.2745,-4.2837,0.0,0.0,0.0,0.0,-4.3515,-4.3515,0.0,0.0,0.0,0.0,0.0,0.0,0.0,0.0,-4.3515,-4.3515,-4.3515,0.0,-4.3515,-4.3515,-4.3515,-4.3515,0.0,0.0,0.0,0.0,0.0,0.0,0.0,-4.3515,-4.3515,-4.3515,-4.3515,0.0,0.0,0.0,0.0,0.0,0.0,0.0,0.0,0.0,0.0,0.0,0.0,0.0,0.0,-4.8306,-4.8306,-4.8306,-4.8306,-4.8306,-4.8306,-4.8306,-4.8306,-4.8306,-4.8306,-4.8306,-4.8306,-4.8306,0.0,0.0,0.0,0.0,-4.8306,-4.8306,-4.7938,-4.7296,-4.6507,-4.57,-4.4892,-4.4085,-4.3644,-4.3515,0.0,0.0,0.0,0.0,0.0,0.0,0.0,0.0,0.0,0.0,0.0,0.0,0.0,0.0,0.0,0.0,0.0,0.0,0.0,0.0,0.0,0.0,0.0,0.0,-3.4435,-3.5261,-3.6285,-3.7492,-3.8726,-3.9955,-4.1113,-4.1535,-4.1754,-4.1754,-4.1754,-4.1956,-4.2304,-4.2304,-4.2543,-4.2928,-4.2873,0.0,0.0,0.0,0.0,0.0,-4.3515,-4.3515,0.0,-4.3515,-4.3515,-4.3515,0.0,0.0,0.0,0.0,-4.3515,-4.3515,-4.3515,-4.3515,-4.3515,-4.3515,-4.3515,-4.3515,-4.3515,0.0,0.0,0.0,0.0,0.0,0.0,0.0,0.0,0.0,0.0,0.0,0.0,0.0,0.0,0.0,0.0,0.0,0.0,0.0,0.0,0.0,0.0,0.0,0.0,-4.8306,-4.8306,-4.8306,-4.8306,-4.8306,-4.8306,-4.8306,-4.8306,-4.8306,-4.8306,-4.8306,-4.8306,-4.8306,-4.8306,0.0,0.0,0.0,-4.8306,-4.8306,-4.7828,-4.7021,-4.6214,-4.5406,-4.4617,-4.3791,-4.3515,-4.3515,0.0,0.0,0.0,0.0,0.0,0.0,0.0,0.0,0.0,0.0,0.0,0.0,0.0,0.0,0.0,0.0,0.0,0.0,0.0,0.0,0.0,0.0,0.0,-3.3807,-3.3807,-3.4711,-3.5899,-3.7327,-3.8377,-3.9588,-4.0912,-4.104,-4.1022,-4.0912,-4.0912,-4.1262,-4.1835,-4.2161,-4.2179,-4.2092,-4.3095,0.0,0.0,0.0,0.0,0.0,0.0,0.0,0.0,-4.3515,-4.3515,-4.3515,-4.3515,0.0,0.0,0.0,0.0,0.0,-4.3515,-4.3515,-4.3515,-4.3515,-4.3515,-4.3515,-4.3515,0.0,0.0,0.0,0.0,0.0,0.0,0.0,0.0,0.0,0.0,0.0,0.0,0.0,0.0,0.0,0.0,0.0,0.0,0.0,0.0,0.0,0.0,0.0,0.0,-4.8306,-4.8306,-4.8306,-4.8306,-4.8306,-4.8306,-4.8306,-4.8306,-4.8306,-4.8306,-4.8306,-4.8306,-4.8306,-4.8306,0.0,0.0,0.0,-4.8306,-4.8306,-4.7736,-4.6856,-4.6177,-4.5333,-4.4433,-4.3736,-4.3515,-4.3515,0.0,0.0,0.0,0.0,0.0,0.0,0.0,0.0,0.0,0.0,0.0,0.0,0.0,0.0,0.0,0.0,0.0,0.0,0.0,0.0,0.0,0.0,-3.3419,-3.3807,-3.3807,-3.5312,-3.6229,-3.6468,-3.8652,-3.9845,-4.0102,-4.0765,-4.0744,-4.0084,-4.0084,-3.9889,-3.9694,-4.1529,-4.1643,-4.0781,-4.2717,0.0,0.0,0.0,0.0,0.0,0.0,0.0,0.0,-4.3515,-4.3515,-4.3515,-4.3515,0.0,0.0,0.0,0.0,0.0,-4.3515,-4.3515,-4.3515,-4.3515,-4.3515,-4.3515,-4.3515,0.0,0.0,0.0,0.0,0.0,0.0,0.0,0.0,0.0,0.0,0.0,0.0,0.0,0.0,0.0,0.0,0.0,0.0,0.0,0.0,0.0,0.0,0.0,0.0,0.0,-4.8306,-4.8306,-4.8306,-4.8306,-4.8306,-4.8306,-4.8306,-4.8306,-4.8306,-4.8306,-4.8306,-4.8306,-4.8306,0.0,0.0,-4.8306,-4.8306,-4.8306,-4.7425,-4.6067,-4.5957,-4.4984,-4.3663,-4.3551,-4.3515,-4.3515,0.0,0.0,0.0,0.0,0.0,0.0,0.0,0.0,0.0,0.0,0.0,0.0,0.0,0.0,0.0,0.0,0.0,0.0,0.0,0.0,0.0,-3.312,-3.3859,-3.4085,-3.3687,-3.4456,-3.5596,-3.7158,-3.8283,-3.94,-4.0561,-4.0487,-3.988,-3.8864,-3.9585,-3.9838,-3.9842,-4.1112,-4.1545,-4.1428,0.0,0.0,0.0,0.0,0.0,0.0,0.0,0.0,0.0,0.0,-4.3515,-4.3515,-4.3515,0.0,0.0,0.0,0.0,0.0,-4.3515,-4.3515,-4.3515,-4.3515,-4.3515,-4.3515,0.0,0.0,0.0,0.0,0.0,0.0,0.0,0.0,0.0,0.0,0.0,0.0,0.0,0.0,0.0,0.0,0.0,0.0,0.0,0.0,0.0,0.0,0.0,0.0,0.0,0.0,-4.8306,-4.8306,-4.8306,-4.8306,-4.8306,-4.8306,-4.8306,-4.8306,-4.8306,-4.8306,-4.8306,-4.8306,-4.8306,-4.8306,0.0,-4.8306,-4.8269,-4.7828,-4.6966,-4.5865,-4.5424,-4.4525,-4.3515,-4.3515,-4.3515,-4.3515,0.0,0.0,0.0,0.0,0.0,0.0,0.0,0.0,0.0,0.0,0.0,0.0,0.0,0.0,0.0,0.0,0.0,0.0,0.0,0.0,-3.3512,-3.33,-3.4108,-3.4339,-3.3881,-3.4179,-3.5398,-3.7606,-3.8002,-3.8971,-4.0464,-3.9809,-3.8946,-3.7947,-3.9152,-3.9743,-3.9859,-4.0411,-4.0844,-4.1161,0.0,0.0,0.0,0.0,0.0,0.0,0.0,0.0,0.0,0.0,0.0,0.0,0.0,0.0,0.0,-4.3515,-4.3515,-4.3515,-4.3515,-4.3515,-4.3515,-4.3515,0.0,0.0,0.0,0.0,0.0,0.0,0.0,0.0,0.0,0.0,0.0,0.0,0.0,0.0,0.0,0.0,0.0,0.0,0.0,0.0,0.0,0.0,0.0,0.0,0.0,0.0,0.0,0.0,-4.8306,-4.8306,-4.8306,-4.8306,-4.8306,-4.8306,-4.8306,-4.8306,-4.8306,-4.8306,-4.8306,-4.8306,-4.8306,-4.8306,-4.8306,-4.8306,-4.8251,-4.7424,-4.6636,-4.581,-4.5021,-4.4213,-4.3515,-4.3515,-4.3515,-4.3515,0.0,0.0,0.0,0.0,0.0,0.0,0.0,0.0,0.0,0.0,0.0,0.0,0.0,0.0,0.0,0.0,0.0,0.0,0.0,0.0,-3.3245,-3.2437,-3.3515,-3.4287,-3.4606,-3.5842,-3.6582,-3.6795,-3.829,-3.8869,-3.8602,-3.8473,-3.8237,-3.7929,-3.8723,-3.8814,-3.8468,-3.9013,-3.87,-3.7986,-3.9674,0.0,0.0,0.0,0.0,0.0,0.0,0.0,0.0,0.0,0.0,0.0,0.0,0.0,-4.3515,-4.3515,-4.3515,-4.3515,-4.3515,-4.3515,-4.3515,-4.3515,-4.3515,0.0,-4.3515,-4.3515,0.0,-4.3515,0.0,0.0,0.0,0.0,0.0,0.0,0.0,0.0,0.0,0.0,0.0,0.0,0.0,0.0,0.0,0.0,0.0,0.0,0.0,0.0,0.0,0.0,0.0,-4.8306,-4.8306,-4.8306,-4.8306,-4.8306,-4.8306,-4.8306,-4.8306,-4.8306,-4.8306,-4.8306,-4.8306,-4.8306,-4.8306,-4.8306,-4.8251,-4.7424,-4.6636,-4.581,-4.5021,-4.4213,-4.3515,-4.3515,-4.3515,-4.3515,0.0,0.0,0.0,0.0,0.0,0.0,0.0,0.0,0.0,0.0,0.0,0.0,0.0,0.0,0.0,0.0,0.0,0.0,0.0,0.0,-3.3528,-3.3647,-3.4525,-3.5091,-3.5266,-3.5322,-3.5702,-3.6503,-3.7465,-3.7989,-3.8097,-3.8581,-3.8329,-3.7523,-3.9103,-3.9094,-3.7921,-3.8742,-3.8869,-3.8556,-3.9095,-3.9894,0.0,0.0,0.0,0.0,0.0,0.0,0.0,0.0,-4.3515,-4.3515,-4.3515,-4.3515,-4.3515,-4.3515,-4.3515,-4.3515,-4.3515,-4.3515,-4.3515,-4.3515,-4.3515,0.0,0.0,-4.3515,-4.3515,-4.3515,-4.3515,0.0,0.0,0.0,0.0,0.0,0.0,0.0,0.0,0.0,0.0,0.0,0.0,0.0,0.0,0.0,0.0,0.0,0.0,0.0,0.0,0.0,0.0,-4.8306,-4.8306,-4.8306,-4.8306,-4.8306,-4.8306,-4.8306,-4.8306,-4.8306,-4.8306,-4.8306,-4.8306,-4.8306,-4.8306,-4.8012,-4.748,-4.6691,-4.5883,-4.5076,-4.4268,-4.3754,-4.3515,-4.3515,-4.3515,-4.3515,0.0,0.0,0.0,0.0,0.0,0.0,0.0,0.0,0.0,0.0,0.0,0.0,0.0,0.0,0.0,0.0,0.0,0.0,0.0,-3.3203,-3.3964,-3.4472,-3.5216,-3.56,-3.56,-3.5115,-3.5364,-3.6395,-3.6764,-3.7039,-3.7193,-3.7992,-3.786,-3.7032,-3.8673,-3.8722,-3.7592,-3.8059,-3.8286,-3.8388,-3.8272,-3.9181,0.0,0.0,0.0,0.0,0.0,0.0,0.0,0.0,-4.3515,-4.3515,-4.3515,-4.3515,-4.3515,-4.3515,-4.3515,-4.3515,-4.3515,-4.3515,-4.3515,-4.3515,0.0,0.0,-4.3515,-4.3515,-4.3515,-4.3515,-4.3699,0.0,0.0,0.0,0.0,0.0,0.0,0.0,0.0,0.0,0.0,0.0,0.0,0.0,0.0,0.0,0.0,0.0,0.0,0.0,0.0,0.0,0.0,0.0,-4.8306,-4.8306,-4.8306,-4.8306,-4.8306,-4.8306,-4.8306,-4.8306,-4.8306,-4.8306,-4.8306,-4.8306,-4.8306,-4.7828,-4.7039,-4.6232,-4.5278,-4.4251,-4.3523,-4.325,-4.3232,-4.3032,-4.3069,-4.325,0.0,0.0,0.0,0.0,0.0,0.0,0.0,0.0,0.0,0.0,0.0,0.0,0.0,0.0,0.0,0.0,0.0,0.0,-3.2327,-3.3698,-3.4489,-3.4506,-3.5216,-3.56,-3.56,-3.56,-3.5854,-3.6374,-3.6374,-3.6118,-3.5639,-3.644,-3.6648,-3.643,-3.7174,-3.7482,-3.743,-3.6707,-3.6543,-3.6825,-3.7099,-3.8169,-3.971,0.0,0.0,0.0,0.0,0.0,0.0,0.0,-4.3515,-4.3515,-4.3515,-4.3515,-4.3515,-4.3515,-4.3515,-4.3515,-4.3515,-4.3515,-4.3515,0.0,0.0,0.0,-4.3515,-4.3515,-4.3515,-4.3515,0.0,0.0,0.0,0.0,0.0,0.0,0.0,0.0,0.0,0.0,0.0,0.0,0.0,0.0,0.0,0.0,0.0,0.0,0.0,0.0,0.0,0.0,0.0,0.0,-4.8306,-4.8306,-4.8306,-4.8306,-4.8287,-4.8287,-4.8287,-4.8287,-4.8306,-4.8306,-4.8306,-4.8306,-4.8306,-4.7828,-4.7021,-4.6214,-4.4929,-4.3444,-4.2902,-4.2711,-4.2616,-4.2021,-4.2183,-4.2692,0.0,0.0,0.0,0.0,0.0,0.0,0.0,0.0,0.0,0.0,0.0,0.0,0.0,0.0,0.0,0.0,0.0,0.0,-3.3795,-3.4252,-3.4726,-3.5245,-3.5481,-3.56,-3.56,-3.56,-3.5672,-3.5849,-3.5849,-3.5963,-3.6178,-3.6999,-3.7033,-3.643,-3.7217,-3.7055,-3.6161,-3.6331,-3.6467,-3.6573,-3.7029,-3.7831,-3.8793,0.0,0.0,0.0,0.0,0.0,0.0,0.0,0.0,0.0,-4.3515,-4.3515,-4.3515,-4.3515,-4.3515,-4.3515,-4.3515,-4.3515,0.0,-4.3515,0.0,0.0,0.0,-4.3515,0.0,0.0,0.0,0.0,0.0,0.0,0.0,0.0,0.0,0.0,0.0,0.0,0.0,0.0,0.0,0.0,0.0,0.0,0.0,0.0,0.0,0.0,0.0,0.0,0.0,0.0,-4.8306,-4.8306,-4.8306,-4.8306,-4.8075,-4.7674,-4.7674,-4.7897,-4.8306,-4.8306,-4.8306,-4.8306,-4.8306,-4.7517,-4.6159,-4.4782,-4.3706,-4.292,-4.2769,-4.244,-4.2059,-4.1874,-4.1916,-4.208,0.0,0.0,0.0,0.0,0.0,0.0,0.0,0.0,0.0,0.0,0.0,0.0,0.0,0.0,0.0,0.0,0.0,0.0,0.0,0.0,-3.5148,-3.5583,-3.56,-3.56,-3.56,-3.56,-3.56,-3.56,-3.56,-3.5761,-3.6092,-3.6582,-3.6547,-3.6092,-3.6582,-3.6351,-3.5639,-3.6305,-3.6367,-3.617,-3.7309,-3.8058,-3.8576,0.0,0.0,0.0,0.0,0.0,0.0,0.0,0.0,0.0,-4.3515,-4.3515,-4.3515,-4.3515,-4.3515,-4.3515,-4.3515,-4.3515,0.0,-4.3515,-4.3515,-4.3515,-4.3515,0.0,0.0,0.0,0.0,0.0,0.0,0.0,0.0,0.0,0.0,0.0,0.0,0.0,0.0,0.0,0.0,0.0,0.0,0.0,0.0,0.0,0.0,0.0,0.0,0.0,0.0,0.0,-4.8172,-4.8306,-4.8306,-4.8055,-4.7756,-4.7385,-4.7128,-4.7176,-4.7554,-4.7554,-4.7554,-4.7518,-4.6884,-4.6047,-4.4983,-4.3448,-4.2638,-4.2322,-4.208,-4.175,-4.1424,-4.1196,-4.1263,-4.1446,0.0,0.0,0.0,0.0,0.0,0.0,0.0,0.0,0.0,0.0,0.0,0.0,0.0,0.0,0.0,0.0,0.0,0.0,0.0,0.0,-3.56,-3.56,-3.56,-3.56,-3.56,-3.56,-3.56,-3.56,-3.56,-3.56,-3.56,-3.56,-3.56,-3.56,-3.56,-3.56,-3.565,-3.6451,-3.6366,-3.5864,-3.7767,-3.8563,-3.8742,-3.9912,0.0,0.0,0.0,0.0,0.0,0.0,0.0,0.0,-4.3427,-4.3462,-4.3515,-4.3515,-4.3515,-4.3515,-4.3515,0.0,0.0,-4.3515,-4.3515,0.0,-4.3427,0.0,0.0,0.0,0.0,0.0,0.0,0.0,0.0,0.0,0.0,0.0,0.0,0.0,0.0,0.0,0.0,0.0,0.0,0.0,0.0,0.0,0.0,0.0,0.0,0.0,0.0,0.0,-4.7838,-4.8114,-4.8114,-4.7593,-4.7281,0.0,-4.6618,-4.6288,-4.624,-4.6359,-4.6354,-4.6212,-4.4726,-4.3993,-4.3714,-4.2362,-4.1771,-4.1664,-4.111,-4.0856,-4.0756,-4.0286,-4.0417,-4.0827,0.0,0.0,0.0,0.0,0.0,0.0,0.0,0.0,0.0,0.0,0.0,0.0,0.0,0.0,0.0,0.0,0.0,0.0,0.0,0.0,-3.56,-3.56,-3.56,-3.56,-3.56,-3.56,-3.56,-3.56,-3.56,-3.56,-3.56,-3.56,-3.56,-3.56,-3.56,-3.56,-3.565,-3.6451,-3.6711,-3.6626,-3.764,-3.8061,-3.8084,-3.8395,-3.8954,0.0,0.0,0.0,0.0,0.0,0.0,0.0,-4.2883,-4.316,-4.3515,-4.3515,-4.3515,-4.3515,-4.3515,-4.3515,0.0,0.0,-4.3515,-4.3392,0.0,0.0,0.0,0.0,0.0,0.0,0.0,0.0,0.0,0.0,0.0,0.0,0.0,0.0,0.0,0.0,0.0,0.0,0.0,0.0,0.0,0.0,0.0,0.0,0.0,0.0,0.0,-4.6618,-4.6733,-4.6801,-4.6801,-4.6687,-4.6383,0.0,-4.5757,-4.5433,-4.5025,-4.5965,-4.6076,-4.548,-4.4519,-4.3757,-4.3106,-4.2193,-4.1512,-4.1087,-4.0949,-4.0631,-4.0262,-4.0146,-4.0154,-4.0262,0.0,0.0,0.0,0.0,0.0,0.0,0.0,0.0,0.0,0.0,0.0,0.0,0.0,0.0,0.0,0.0,0.0,0.0,0.0,0.0,0.0,-3.56,-3.56,-3.56,-3.56,-3.56,-3.56,-3.56,-3.56,-3.56,-3.56,-3.56,-3.56,-3.56,-3.56,-3.56,-3.5667,-3.684,-3.711,-3.6931,-3.8362,-3.8734,-3.8464,-3.8819,-3.9174,-3.9595,-4.014,0.0,0.0,0.0,0.0,0.0,0.0,0.0,-4.3515,-4.3515,-4.3515,-4.3515,-4.3515,0.0,0.0,-4.3515,0.0,0.0,0.0,0.0,0.0,0.0,0.0,0.0,0.0,0.0,0.0,0.0,0.0,0.0,0.0,0.0,0.0,0.0,0.0,0.0,0.0,0.0,0.0,0.0,0.0,0.0,0.0,-4.5808,-4.5965,-4.5965,-4.624,-4.6407,-4.6407,-4.6094,-4.5808,-4.5511,-4.5205,-4.4906,-4.4626,-4.5258,-4.5072,-4.4272,-4.3534,-4.2764,-4.1923,-4.1261,-4.0797,-4.0521,-4.0521,-4.036,-4.0096,-4.0096,-4.0096,-4.0096,0.0,0.0,0.0,0.0,0.0,0.0,0.0,0.0,0.0,0.0,0.0,0.0,0.0,0.0,0.0,0.0,0.0,0.0,0.0,0.0,0.0,0.0,-3.56,-3.56,-3.56,-3.56,-3.56,-3.56,-3.56,-3.56,-3.56,-3.56,-3.56,-3.56,-3.56,-3.56,-3.5684,-3.711,-3.7432,-3.7168,-3.9131,-3.9622,-3.9242,-3.9876,-4.0096,-4.0171,-4.0601,-4.0756,-4.092,-4.1913,0.0,0.0,0.0,0.0,-4.3214,-4.3214,-4.3214,-4.3232,-4.3321,0.0,-4.3303,-4.3105,-4.3123,0.0,0.0,0.0,0.0,0.0,0.0,0.0,0.0,0.0,0.0,0.0,0.0,0.0,0.0,0.0,0.0,0.0,0.0,0.0,0.0,0.0,0.0,0.0,0.0,0.0,-4.4615,-4.5062,-4.5346,-4.5346,-4.5833,-4.6088,-4.6088,-4.5597,-4.5346,-4.5346,-4.4841,-4.4615,-4.4615,-4.4479,-4.3914,-4.2994,-4.2371,-4.1597,-4.0726,-4.0286,-4.0096,-4.0096,-4.0096,-4.0096,-4.0096,-4.0096,-4.0096,-4.0096,0.0,0.0,0.0,0.0,0.0,0.0,0.0,0.0,0.0,0.0,0.0,0.0,0.0,0.0,0.0,0.0,0.0,0.0,0.0,0.0,0.0,0.0,-3.56,-3.56,-3.56,-3.56,-3.56,-3.56,-3.56,-3.56,-3.56,-3.56,-3.56,-3.56,-3.56,-3.56,-3.565,-3.6552,-3.7246,-3.7838,-3.8768,-3.9462,-3.996,-4.0062,-4.0096,-4.0096,-4.0179,-4.0204,-4.0229,-4.0385,-4.0767,0.0,0.0,0.0,-4.2041,-4.2041,-4.2041,-4.2144,0.0,0.0,-4.2559,0.0,-4.1625,0.0,0.0,0.0,0.0,0.0,0.0,0.0,0.0,0.0,0.0,0.0,0.0,0.0,0.0,0.0,0.0,0.0,0.0,0.0,0.0,0.0,0.0,0.0,0.0,0.0,-4.4615,-4.4682,-4.472,-4.472,-4.4786,-4.4841,-4.4841,-4.4759,-4.472,-4.472,-4.4654,-4.4615,-4.4581,-4.3876,-4.3152,-4.2368,-4.1679,-4.09,-4.0204,-4.0121,-4.0096,-4.0096,-4.0096,-4.0096,-4.0096,-4.0096,-4.0096,-4.0096,0.0,0.0,0.0,0.0,0.0,0.0,0.0,0.0,0.0,0.0,0.0,0.0,0.0,0.0,0.0,0.0,0.0,0.0,0.0,0.0,0.0,-3.56,-3.56,-3.56,-3.56,-3.56,-3.56,-3.56,-3.56,-3.56,-3.56,-3.56,-3.56,-3.56,-3.56,-3.56,-3.565,-3.6451,-3.6998,-3.7381,-3.8531,-3.9191,-3.9537,-3.9943,-4.0096,-4.0096,-4.0096,-4.0096,-4.0146,-4.0449,-4.0685,-4.0972,-4.1313,0.0,0.0,0.0,-4.181,0.0,-4.2121,-4.2183,-4.208,0.0,0.0,0.0,0.0,0.0,0.0,0.0,0.0,0.0,0.0,0.0,0.0,0.0,0.0,0.0,0.0,0.0,0.0,0.0,0.0,0.0,0.0,0.0,0.0,0.0,0.0,-4.4615,-4.4615,-4.4615,-4.4615,-4.4615,-4.4615,-4.4615,-4.4615,-4.4615,-4.4615,-4.4615,-4.4615,-4.435,-4.391,-4.3132,-4.2608,-4.2252,-4.1525,-4.0781,-4.0096,-4.0096,-4.0096,-4.0096,-4.0096,-4.0096,-4.0096,-4.0096,-4.0096,-4.0096,0.0,0.0,0.0,0.0,0.0,0.0,0.0,0.0,0.0,0.0,0.0,0.0,0.0,0.0,0.0,0.0,0.0,0.0,0.0,0.0,0.0,-3.56,-3.56,-3.56,-3.56,-3.56,-3.56,-3.56,-3.56,-3.56,-3.56,-3.56,-3.56,-3.56,-3.56,-3.56,0.0,-3.6231,-3.6626,-3.6914,-3.8193,-3.8819,-3.9073,-3.9825,-4.0096,-4.0096,-4.0096,-4.0096,-4.0171,-4.0552,-4.0703,0.0,0.0,0.0,0.0,0.0,0.0,0.0,0.0,0.0,-4.1534,-4.1397,0.0,0.0,0.0,0.0,0.0,0.0,0.0,0.0,0.0,0.0,0.0,0.0,0.0,0.0,0.0,0.0,0.0,0.0,0.0,0.0,0.0,0.0,0.0,0.0,0.0,-4.4615,-4.4615,-4.4615,-4.4615,-4.4615,-4.4615,-4.4615,-4.4615,-4.4615,-4.4615,-4.4615,-4.4615,-4.4181,-4.3358,-4.2642,-4.2185,-4.1965,-4.1238,-4.0595,-4.0096,-4.0096,-4.0096,-4.0096,-4.0096,-4.0096,-4.0096,-4.0096,-4.0096,-4.0096,0.0,0.0,0.0,0.0,0.0,0.0,0.0,0.0,0.0,0.0,0.0,0.0,0.0,0.0,-3.2615,-3.3389,-3.41,-3.481,-3.5549,-3.56,-3.56,-3.56,-3.56,0.0,-3.56,-3.56,-3.56,-3.56,-3.56,-3.56,-3.56,-3.56,-3.56,-3.56,-3.56,-3.56,-3.56,0.0,0.0,0.0,0.0,0.0,-3.9073,0.0,0.0,0.0,0.0,0.0,0.0,0.0,0.0,0.0,0.0,0.0,0.0,0.0,0.0,0.0,0.0,-4.0552,0.0,0.0,0.0,0.0,0.0,0.0,0.0,0.0,0.0,0.0,0.0,0.0,0.0,0.0,0.0,0.0,0.0,0.0,0.0,0.0,0.0,0.0,0.0,0.0,0.0,0.0,0.0,-4.4615,-4.4615,-4.4615,-4.4615,-4.4615,-4.4615,-4.4615,-4.4615,-4.4615,-4.4615,-4.4615,-4.4615,-4.4181,-4.3358,-4.2642,-4.1914,-4.1221,-4.0485,-4.0146,-4.0096,-4.0096,-4.0096,-4.0096,-4.0096,-4.0096,-4.0096,-4.0096,-4.0096,-4.0096,0.0,0.0,0.0,0.0,0.0,0.0,0.0,0.0,0.0,0.0,0.0,0.0,0.0,-3.2848,-3.3305,-3.4032,-3.4776,-3.5312,-3.5583,-3.56,-3.56,-3.56,-3.56,-3.56,-3.56,-3.56,-3.56,0.0,0.0,-3.56,-3.56,-3.56,-3.56,-3.56,-3.56,-3.56,-3.56,-3.56,0.0,0.0,0.0,0.0,0.0,0.0,0.0,0.0,0.0,0.0,0.0,0.0,0.0,0.0,0.0,0.0,0.0,0.0,0.0,0.0,0.0,0.0,0.0,0.0,0.0,0.0,0.0,0.0,0.0,0.0,0.0,0.0,0.0,0.0,0.0,0.0,0.0,0.0,0.0,0.0,0.0,0.0,0.0,0.0,0.0,0.0,0.0,0.0,0.0,0.0,-4.4615,-4.4615,-4.4615,-4.4615,-4.4615,-4.4615,-4.4615,-4.4615,-4.4615,-4.4598,-4.4079,-4.3436,-4.2675,-4.1931,-4.1187,-4.0485,-4.0214,-4.0096,-4.0096,-4.0096,-4.0096,-4.0096,-4.0096,-4.0096,-4.0096,-4.0096,-4.0096,-4.0096,0.0,0.0,0.0,0.0,0.0,0.0,0.0,0.0,0.0,0.0,0.0,0.0,0.0,0.0,-3.3694,-3.4438,-3.5182,-3.56,-3.56,-3.56,-3.56,-3.56,-3.56,-3.56,-3.56,-3.56,-3.56,0.0,0.0,0.0,0.0,-3.56,-3.56,-3.5616,-3.5893,-3.5836,0.0,0.0,0.0,-3.5735,0.0,0.0,-3.8075,0.0,0.0,0.0,0.0,0.0,0.0,0.0,0.0,0.0,0.0,0.0,0.0,0.0,0.0,0.0,-4.0096,0.0,0.0,0.0,0.0,0.0,0.0,0.0,0.0,0.0,0.0,0.0,0.0,0.0,0.0,0.0,0.0,0.0,0.0,0.0,0.0,0.0,0.0,0.0,0.0,0.0,0.0,0.0,0.0,0.0,-4.4598,-4.4615,-4.4615,-4.4615,-4.4615,-4.4615,-4.4615,-4.4615,-4.4615,-4.4598,-4.3792,-4.3014,-4.2269,-4.1542,-4.0798,-4.0096,-4.0096,-4.0096,-4.0096,-4.0096,-4.0096,-4.0096,-4.0096,-4.0096,-4.0096,-4.0096,-4.0096,-4.0096,0.0,0.0,0.0,0.0,0.0,0.0,0.0,0.0,0.0,0.0,0.0,0.0,0.0,0.0,0.0,-3.4472,-3.5199,-3.56,-3.56,-3.56,-3.56,-3.56,-3.56,-3.56,-3.56,-3.56,-3.56,0.0,0.0,0.0,0.0,0.0,-3.5616,-3.5667,-3.6451,-3.6366,-3.5667,0.0,-3.5667,-3.5802,0.0,-3.7973,-3.8125,0.0,0.0,0.0,-4.0163,-4.0146,0.0,0.0,0.0,0.0,0.0,0.0,0.0,0.0,0.0,0.0,0.0,0.0,0.0,0.0,0.0,0.0,0.0,0.0,0.0,0.0,0.0,0.0,0.0,0.0,0.0,0.0,0.0,0.0,0.0,0.0,0.0,0.0,0.0,0.0,0.0,0.0,0.0,0.0,0.0,-4.3724,-4.4496,-4.4564,-4.4564,-4.4564,-4.4598,-4.4615,-4.4615,-4.4615,-4.4598,-4.4564,-4.3758,-4.298,-4.2236,-4.1508,-4.0781,-4.0096,-4.0096,-4.0096,-4.0096,-4.0096,-4.0096,-4.0096,-4.0096,-4.0096,-4.0096,-4.0096,-4.0096,-4.0096,0.0,0.0,0.0,0.0,0.0,0.0,0.0,0.0,0.0,0.0,0.0,0.0,0.0,0.0,-3.5059,-3.5278,-3.5481,-3.56,-3.56,-3.56,-3.56,-3.56,-3.56,-3.56,-3.56,-3.56,-3.56,0.0,0.0,0.0,0.0,0.0,0.0,0.0,-3.6711,-3.6958,-3.7256,-3.7256,0.0,0.0,-3.8879,-3.9495,0.0,0.0,0.0,0.0,0.0,-4.1339,-4.0899,0.0,-4.0527,-4.0096,0.0,0.0,0.0,0.0,0.0,0.0,-4.0096,0.0,0.0,0.0,0.0,0.0,0.0,0.0,0.0,0.0,0.0,0.0,0.0,0.0,0.0,0.0,0.0,0.0,0.0,0.0,0.0,0.0,0.0,0.0,0.0,0.0,0.0,0.0,-4.2591,-4.2692,-4.2912,-4.3436,-4.3741,-4.3741,-4.4282,-4.4615,-4.4615,-4.4615,-4.4327,-4.3724,-4.2963,-4.2219,-4.1474,-4.073,-4.0299,-4.0096,-4.0096,-4.0096,-4.0096,-4.0096,-4.0096,-4.0096,-4.0096,-4.0096,-4.0096,-4.0096,-4.0096,-4.0096,0.0,0.0,0.0,0.0,0.0,0.0,0.0,0.0,0.0,0.0,0.0,0.0,0.0,0.0,-3.56,-3.56,-3.56,-3.56,-3.56,-3.56,-3.56,-3.56,-3.56,-3.56,-3.56,-3.56,-3.56,0.0,0.0,0.0,0.0,0.0,0.0,0.0,0.0,0.0,0.0,0.0,0.0,0.0,-3.9504,0.0,0.0,-4.1728,-4.2286,0.0,0.0,0.0,-4.166,-4.166,-4.117,0.0,0.0,0.0,0.0,0.0,0.0,0.0,0.0,0.0,0.0,0.0,0.0,0.0,0.0,-4.0096,0.0,0.0,0.0,0.0,0.0,0.0,0.0,0.0,0.0,0.0,0.0,0.0,0.0,0.0,0.0,0.0,0.0,0.0,0.0,-4.1813,-4.183,-4.1965,-4.2269,-4.2709,-4.2946,-4.2946,-4.3386,-4.365,-4.365,-4.365,-4.3403,-4.2929,-4.2185,-4.1627,-4.117,-4.0451,-4.0096,-4.0096,-4.0096,-4.0096,-4.0096,-4.0096,-4.0096,-4.0096,-4.0096,-4.0096,-4.0096,-4.0096,-4.0096,-4.0096,0.0,0.0,0.0,0.0,0.0,0.0,0.0,0.0,0.0,0.0,0.0,0.0,0.0,0.0,0.0,0.0,-3.56,-3.56,-3.56,-3.56,-3.56,-3.56,-3.56,-3.56,-3.56,-3.56,0.0,0.0,0.0,0.0,0.0,0.0,0.0,0.0,0.0,0.0,0.0,0.0,0.0,-3.8396,-3.9673,-4.0273,0.0,0.0,-4.2472,0.0,-4.2567,-4.2489,-4.2405,-4.232,-4.1863,0.0,0.0,0.0,0.0,0.0,-4.0096,0.0,0.0,0.0,0.0,0.0,0.0,0.0,-4.0096,-4.0096,-4.0096,0.0,0.0,0.0,0.0,0.0,0.0,0.0,0.0,0.0,0.0,0.0,0.0,0.0,0.0,0.0,0.0,-4.0096,-4.0383,-4.1035,-4.1085,-4.1356,-4.2016,-4.2117,-4.2168,-4.2168,-4.2252,-4.2286,-4.2286,-4.2286,-4.2252,-4.2168,-4.1508,-4.117,-4.1068,-4.0417,-4.0096,-4.0096,-4.0096,-4.0096,-4.0096,-4.0096,-4.0096,-4.0096,-4.0096,-4.0096,-4.0096,-4.0096,-4.0096,-4.0096,0.0,0.0,0.0,0.0,0.0,0.0,0.0,0.0,0.0,0.0,0.0,0.0,0.0,0.0,0.0,0.0,-3.56,-3.56,-3.56,-3.56,-3.56,-3.56,-3.56,-3.56,-3.56,-3.56,0.0,0.0,0.0,0.0,0.0,0.0,0.0,0.0,0.0,0.0,0.0,0.0,0.0,-4.0578,-4.0882,0.0,-4.1965,-4.2861,-4.3589,-4.4158,-4.4158,-4.3741,-4.3071,0.0,-4.2202,-4.1982,0.0,0.0,0.0,0.0,0.0,0.0,0.0,0.0,0.0,0.0,0.0,0.0,-4.0096,-4.0096,-4.0096,0.0,0.0,0.0,0.0,0.0,0.0,0.0,0.0,0.0,0.0,0.0,0.0,0.0,0.0,0.0,0.0,-4.0096,-4.0163,-4.0316,-4.0316,-4.0383,-4.0519,-4.1085,-4.1407,-4.1407,-4.1982,-4.2286,-4.2286,-4.2286,-4.1999,-4.1407,-4.1271,-4.0882,-4.0316,-4.018,-4.0096,-4.0096,-4.0096,-4.0096,-4.0096,-4.0096,-4.0096,-4.0096,-4.0096,-4.0096,-4.0096,-4.0096,-4.0096,-4.0096,0.0,0.0,0.0,0.0,0.0,0.0,0.0,0.0,0.0,0.0,0.0,0.0,0.0,0.0,0.0,0.0,0.0,0.0,0.0,0.0,-3.56,-3.56,-3.56,-3.56,-3.56,-3.56,-3.56,0.0,0.0,0.0,0.0,0.0,0.0,0.0,0.0,0.0,0.0,0.0,-4.0316,-4.0713,-4.1441,0.0,-4.2929,-4.3707,-4.4231,-4.4615,-4.4615,-4.4333,-4.3944,-4.3555,-4.2956,0.0,0.0,-4.1796,-4.1136,0.0,-4.0646,-4.0561,0.0,0.0,0.0,-4.0096,0.0,0.0,0.0,-4.0096,-4.0096,0.0,0.0,0.0,0.0,0.0,0.0,0.0,0.0,0.0,0.0,0.0,0.0,0.0,0.0,0.0,0.0,-4.0096,-4.0096,-4.0096,-4.0096,-4.0096,-4.0096,-4.0468,-4.0646,-4.0646,-4.1001,-4.1213,-4.1213,-4.1213,-4.1027,-4.0646,-4.0646,-4.0468,-4.0096,-4.0096,-4.0096,-4.0096,-4.0096,-4.0096,-4.0096,-4.0096,-4.0096,-4.0096,-4.0096,-4.0096,-4.0096,-4.0096,-4.0096,-4.0096,0.0,0.0,0.0,0.0,0.0,0.0,0.0,0.0,0.0,0.0,0.0,0.0,0.0,0.0,0.0,0.0,0.0,0.0,0.0,0.0,0.0,-3.6039,-3.5752,-3.5735,-3.6039,-3.5752,-3.56,0.0,0.0,0.0,0.0,0.0,0.0,0.0,0.0,0.0,0.0,0.0,0.0,-4.0637,0.0,-4.2574,-4.3064,-4.3842,-4.4259,-4.4395,-4.4547,-4.4615,-4.4581,-4.4429,0.0,-4.2574,-4.2895,-4.2269,0.0,0.0,0.0,0.0,0.0,0.0,0.0,0.0,0.0,-4.0096,0.0,0.0,0.0,-4.0096,0.0,0.0,0.0,0.0,0.0,0.0,0.0,0.0,0.0,0.0,0.0,0.0,0.0,0.0,0.0,-4.0096,-4.0096,-4.0096,-4.0096,-4.0096,-4.0096,-4.0096,-4.0096,-4.0096,-4.0096,-4.0096,-4.0096,-4.0096,-4.0096,-4.0096,-4.0096,-4.0096,-4.0096,-4.0096,-4.0096,-4.0096,-4.0096,-4.0096,-4.0096,-4.0096,-4.0096,-4.0096,-4.0096,-4.0096,-4.0096,-4.0096,-4.0096,-4.0096,-3.8159,-3.7838,0.0,0.0,0.0,0.0,0.0,0.0,0.0,0.0,0.0,0.0,0.0,0.0,0.0,0.0,0.0,0.0,-3.7736,0.0,0.0,0.0,-3.6326,-3.6225,-3.7618,-3.6293,-3.56,-3.56,0.0,0.0,0.0,0.0,0.0,0.0,-3.9732,0.0,0.0,0.0,-4.1457,0.0,-4.2219,-4.1965,0.0,-4.2269,-4.2963,-4.3639,-4.4333,-4.4615,-4.4496,0.0,-4.3436,-4.3064,0.0,-4.1779,0.0,0.0,0.0,0.0,0.0,0.0,0.0,0.0,-4.0096,0.0,0.0,0.0,-4.0096,-4.0096,0.0,0.0,0.0,0.0,0.0,0.0,0.0,0.0,0.0,0.0,0.0,0.0,0.0,0.0,0.0,0.0,-4.0096,-4.0096,-4.0096,-4.0096,-4.0096,-4.0096,-4.0096,-4.0096,-4.0096,-4.0096,-4.0096,-4.0096,-4.0096,-4.0096,-4.0096,-4.0096,-4.0096,-4.0096,-4.0096,-4.0096,-4.0096,-4.0096,-4.0096,-4.0096,-4.0096,-4.0096,-4.0096,-4.0096,-4.0096,-4.0096,-4.0096,-4.0096,-3.9317,-3.8819,0.0,0.0,0.0,0.0,0.0,0.0,0.0,0.0,0.0,0.0,0.0,0.0,0.0,0.0,0.0,-3.9005,0.0,0.0,0.0,0.0,0.0,0.0,-3.6546,-3.5921,-3.5842,-3.6299,-3.6643,0.0,0.0,0.0,0.0,0.0,-4.0612,0.0,-4.1416,0.0,0.0,0.0,0.0,0.0,0.0,-4.2997,-4.3826,-4.413,-4.4496,-4.4615,-4.4564,0.0,-4.3504,0.0,0.0,0.0,0.0,0.0,0.0,0.0,0.0,0.0,0.0,0.0,0.0,0.0,0.0,0.0,-4.0096,0.0,0.0,0.0,0.0,0.0,0.0,0.0,0.0,0.0,0.0,0.0,0.0,0.0,0.0,0.0,0.0,0.0,0.0,0.0,0.0,-4.0096,-4.0096,-4.0096,-4.0096,-4.0096,-4.0096,-4.0096,-4.0096,-4.0096,-4.0096,-4.0096,-4.0096,-4.0096,-4.0096,-4.0096,-4.0096,-4.0096,-4.0096,-4.0096,-4.0096,-4.0096,-4.0096,-4.0096,-4.0096,-4.0096,-4.0096,-4.0096,-4.0096,-4.0096,-4.0096,0.0,0.0,0.0,0.0,0.0,0.0,0.0,0.0,0.0,0.0,0.0,-3.6834,-3.7905,0.0,0.0,0.0,-4.0121,0.0,0.0,-3.8176,0.0,0.0,0.0,0.0,0.0,-3.6315,-3.7117,0.0,0.0,0.0,0.0,0.0,0.0,0.0,-4.1508,-4.1999,0.0,0.0,-4.1863,-4.2388,-4.2405,-4.2286,-4.3724,-4.4429,-4.4615,-4.4615,-4.4615,-4.4581,-4.4361,-4.3521,0.0,-4.3684,0.0,0.0,0.0,0.0,0.0,-4.0646,0.0,0.0,0.0,0.0,0.0,0.0,0.0,0.0,0.0,0.0,0.0,0.0,0.0,0.0,0.0,0.0,0.0,0.0,0.0,0.0,0.0,0.0,0.0,0.0,0.0,0.0,0.0,-4.0096,-4.0096,-4.0096,-4.0096,-4.0096,-4.0096,-4.0096,-4.0096,-4.0096,-4.0096,-4.0096,-4.0096,-4.0096,-4.0096,-4.0096,-4.0096,-4.0096,-4.0096,-4.0096,-4.0096,-4.0096,-4.0096,-4.0096,-4.0096,-4.0096,-4.0096,-4.0096,-4.0096,-4.0096,-4.0096,-4.0096,-4.0079,0.0,0.0,0.0,0.0,0.0,0.0,0.0,0.0,0.0,0.0,0.0,0.0,0.0,0.0,0.0,-4.3785,-4.2252,0.0,-4.0654,0.0,0.0,-3.729,0.0,0.0,0.0,0.0,0.0,0.0,0.0,0.0,0.0,0.0,0.0,-4.1221,-4.1288,-4.1999,-4.2692,-4.3325,-4.3341,-4.3826,-4.4429,0.0,-4.3927,-4.4615,-4.4615,0.0,0.0,-4.3707,-4.3392,0.0,0.0,0.0,0.0,0.0,0.0,0.0,0.0,0.0,0.0,-4.0282,0.0,0.0,0.0,0.0,-4.0096,0.0,0.0,0.0,0.0,0.0,0.0,0.0,0.0,0.0,0.0,0.0,0.0,0.0,0.0,0.0,0.0,0.0,0.0,-4.0096,-4.0096,-4.0096,-4.0096,-4.0096,-4.0096,-4.0096,-4.0096,-4.0096,-4.0096,-4.0096,-4.0096,-4.0096,-4.0096,-4.0096,-4.0096,-4.0096,-4.0096,-4.0096,-4.0096,-4.0096,-4.0096,-4.0096,-4.0096,-4.0096,-4.0096,-4.0096,-4.0096,-4.0096,-4.0096,-4.0096,0.0,0.0,0.0,0.0,0.0,0.0,0.0,-3.8785,0.0,0.0,0.0,0.0,0.0,0.0,-4.2151,0.0,0.0,-4.3386,-4.2354,-4.1373,0.0,0.0,0.0,-3.7939,0.0,0.0,0.0,0.0,0.0,0.0,0.0,0.0,0.0,0.0,0.0,-4.1474,0.0,0.0,0.0,0.0,0.0,-4.3572,-4.3842,0.0,0.0,-4.4615,-4.4615,-4.4615,0.0,-4.4282,-4.3842,-4.3443,-4.3724,-4.3284,-4.2726,-4.2963,-4.2861,0.0,0.0,0.0,-4.1745,-4.1001,0.0,0.0,0.0,0.0,0.0,0.0,0.0,0.0,0.0,0.0,0.0,0.0,0.0,0.0,0.0,0.0,0.0,0.0,0.0,0.0,0.0,0.0,0.0,-4.0096,-4.0096,-4.0096,0.0,-4.0096,-4.0096,-4.0096,-4.0096,-4.0096,-4.0096,-4.0096,-4.0096,-4.0096,-4.0096,-4.0096,-4.0096,-4.0096,-4.0096,-4.0096,-4.0096,-4.0096,-4.0096,-4.0096,-4.0096,-4.0096,-4.0096,-4.0096,-4.0096,-4.0096,-4.0096,-4.0096,-4.0096,0.0,0.0,0.0,0.0,0.0,0.0,0.0,0.0,0.0,-4.0172,0.0,-4.1593,0.0,-4.2997,0.0,-4.4181,-4.4181,-4.3166,-4.2405,0.0,-4.1288,-3.9614,0.0,0.0,0.0,0.0,0.0,0.0,-3.9639,0.0,0.0,0.0,0.0,0.0,0.0,0.0,0.0,-4.3335,0.0,0.0,-4.3826,0.0,0.0,-4.4429,-4.4198,0.0,-4.4615,-4.4615,-4.4615,-4.4248,-4.3927,-4.4445,-4.3921,-4.32,-4.369,-4.3487,-4.3047,-4.2777,-4.2692,0.0,-4.1779,-4.1593,0.0,-4.0646,0.0,0.0,0.0,0.0,0.0,0.0,0.0,0.0,0.0,0.0,0.0,0.0,-4.0096,0.0,0.0,0.0,0.0,0.0,0.0,-4.0096,-4.0096,-4.0096,-4.0096,0.0,0.0,-4.0096,-4.0096,-4.0096,-4.0096,-4.0096,-4.0096,-4.0096,-4.0096,-4.0096,-4.0096,-4.0096,-4.0096,-4.0096,-4.0096,-4.0096,-4.0096,-4.0096,-4.0096,-4.0096,-4.0096,-4.0096,-4.0096,-4.0096,-4.0096,-4.0096,-4.0096,0.0,0.0,0.0,0.0,-4.0096,0.0,0.0,0.0,-4.0739,0.0,-4.2405,-4.3031,-4.4547,-4.5331,-4.5754,-4.5754,-4.6397,0.0,-4.4801,-4.3961,0.0,0.0,-4.1414,-4.1245,-4.3341,0.0,0.0,0.0,0.0,0.0,0.0,0.0,0.0,0.0,-4.0096,0.0,-4.2286,-4.2286,-4.32,-4.4649,-4.4649,-4.4649,-4.4666,-4.4699,-4.4181,-4.3572,-4.4344,-4.4615,-4.4615,-4.4615,-4.4615,-4.4615,-4.4615,-4.4615,-4.4615,-4.4615,-4.4615,-4.4418,-4.3673,-4.3443,-4.3274,-4.254,0.0,0.0,0.0,0.0,-4.1052,0.0,0.0,0.0,0.0,0.0,0.0,0.0,0.0,0.0,0.0,0.0,0.0,0.0,0.0,0.0,0.0,-4.0096,-4.0096,-4.0096,-4.0096,-4.0096,0.0,0.0,-4.0096,-4.0096,-4.0096,-4.0096,-4.0096,-4.0096,-4.0096,-4.0096,-4.0096,-4.0096,-4.0096,-4.0096,-4.0096,-4.0096,-4.0096,-4.0096,-4.0096,-4.0096,-4.007,-4.0045,-4.0045,-4.0045,-4.0045,-4.007,-4.0096,-4.0096,-4.0096,-4.0096,-4.0096,0.0,-4.0096,-4.0096,0.0,0.0,0.0,0.0,-4.413,-4.5196,-4.6126,-4.6397,-4.6515,-4.6515,-4.6684,0.0,0.0,0.0,0.0,-4.5128,-4.346,-4.2817,-4.3375,-4.1779,0.0,-4.1204,0.0,0.0,-4.0096,0.0,0.0,0.0,0.0,0.0,-4.2286,-4.2286,-4.3504,-4.5415,-4.5415,-4.5415,0.0,0.0,-4.5415,-4.4316,-4.453,-4.4615,-4.4615,-4.4615,-4.4615,-4.4615,-4.4615,-4.4615,-4.4615,-4.4615,-4.4615,-4.4564,-4.4361,-4.4282,-4.4096,-4.3318,-4.3132,-4.2929,0.0,0.0,0.0,0.0,0.0,0.0,0.0,0.0,0.0,0.0,0.0,0.0,0.0,0.0,0.0,0.0,0.0,0.0,-4.0096,-4.0096,-4.0096,-4.0096,-4.0096,-4.0096,0.0,0.0,0.0,-4.0096,-4.0096,-4.0096,-4.0096,-4.0096,-4.0096,-4.0096,-4.0096,-4.0096,-4.0096,-4.0096,-4.0096,-4.0096,-4.0096,-4.0096,-4.0096,-4.0096,-3.9756,-3.9193,-3.9193,-3.9193,-3.9289,-3.9876,-4.0096,-4.0096,-4.0096,0.0,0.0,-4.0096,0.0,0.0,-4.1077,0.0,0.0,-4.3707,-4.4671,0.0,-4.6667,-4.7378,-4.775,-4.775,-4.775,0.0,0.0,0.0,0.0,-4.5737,-4.5179,-4.4756,-4.4418,-4.3284,0.0,-4.1677,0.0,0.0,-4.0096,0.0,0.0,0.0,0.0,-4.0756,0.0,-4.2506,-4.3724,-4.5246,-4.5568,0.0,0.0,-4.6633,-4.6278,-4.5579,-4.5579,-4.5156,-4.4615,-4.4615,-4.4615,-4.4615,-4.4615,-4.4615,-4.4615,-4.4615,-4.4615,-4.4615,-4.4615,-4.4615,-4.4496,-4.4045,-4.3927,-4.3724,-4.2963,-4.2777,-4.2692,0.0,0.0,0.0,0.0,0.0,0.0,0.0,0.0,0.0,0.0,0.0,0.0,0.0,0.0,0.0,-4.0096,-4.0096,-4.0096,-4.0096,-4.0096,-4.0096,0.0,0.0,0.0,-4.0096,-4.0096,-4.0096,-4.0096,-4.0096,-4.0096,-4.0096,-4.0096,-4.0096,-4.0096,-4.0096,-4.0096,-4.0096,-4.0096,-4.0096,-4.0096,-4.0096,-3.9636,-3.8881,-3.8553,-3.8414,-3.8497,-3.9289,-3.9808,-4.0096,0.0,0.0,0.0,0.0,0.0,0.0,0.0,-4.1687,0.0,-4.4547,0.0,-4.5816,-4.709,-4.8376,-4.9137,-4.9137,0.0,-4.846,-4.7158,-4.7699,-4.7415,-4.6058,-4.6599,-4.6599,-4.5872,-4.501,0.0,0.0,0.0,0.0,0.0,0.0,0.0,0.0,0.0,0.0,0.0,-4.2946,-4.4079,0.0,-4.5686,-4.643,-4.709,-4.709,-4.7022,-4.6938,-4.6938,-4.5991,-4.475,-4.475,-4.4682,-4.4615,-4.4615,-4.4615,-4.4615,-4.4615,-4.4615,-4.4615,-4.4615,-4.4615,-4.4615,-4.4615,-4.4615,-4.4429,-4.3724,-4.3572,-4.3386,-4.2726,-4.2506,-4.2252,0.0,0.0,0.0,0.0,0.0,0.0,0.0,0.0,0.0,0.0,0.0,0.0,0.0,-4.0096,-4.0096,-4.0096,-4.0096,0.0,0.0,0.0,0.0,-4.0096,-4.0096,0.0,-4.0096,0.0,-4.0096,-4.0096,-4.0096,-4.0096,-4.0096,-4.0096,-4.0096,-4.0096,-4.0096,-4.0045,-3.9952,-4.0045,-3.9584,-3.8663,-3.7835,-3.756,-3.7719,-3.837,-3.9166,-3.9952,0.0,0.0,0.0,0.0,0.0,-4.2709,-4.4005,-4.5021,-4.5805,-4.6329,-4.7986,-4.9221,-4.9475,-4.9746,-4.9898,-4.9898,-4.9357,0.0,0.0,0.0,0.0,-4.7534,-4.7618,-4.7361,-4.6616,-4.5309,-4.413,0.0,0.0,0.0,0.0,0.0,0.0,0.0,0.0,0.0,-4.2202,-4.3752,0.0,-4.6464,-4.7225,-4.797,-4.8612,-4.8612,-4.824,-4.7733,-4.7733,-4.6769,-4.5517,-4.5517,-4.5094,-4.4615,-4.4615,-4.4615,-4.4615,-4.4615,-4.4615,-4.4615,-4.4615,-4.4615,-4.4615,-4.4615,-4.4615,-4.4564,-4.4429,-4.4395,-4.4361,-4.4225,-4.3673,-4.3156,-4.3037,0.0,0.0,0.0,0.0,0.0,0.0,0.0,0.0,0.0,0.0,0.0,0.0,0.0,0.0,0.0,0.0,0.0,0.0,0.0,0.0,0.0,-4.0096,0.0,0.0,0.0,-4.0096,-4.0096,-4.0096,-4.0096,-4.0096,-4.0096,-4.0096,-4.0096,-4.0096,-3.9714,-3.9166,-3.985,-3.9279,-3.7863,-3.6461,-3.6259,-3.6828,-3.6964,-3.7901,-3.9209,0.0,0.0,0.0,0.0,0.0,0.0,0.0,-4.8139,0.0,-4.753,-4.8629,-4.9526,-4.9526,-5.0202,-5.0676,-5.0676,-5.0355,-4.9982,-4.9593,-4.956,-4.9238,-4.8511,-4.8477,0.0,-4.7394,-4.62,-4.488,-4.3392,0.0,0.0,0.0,0.0,0.0,0.0,0.0,-4.1653,0.0,0.0,0.0,-4.6853,-4.7614,-4.8359,-4.9001,-4.9001,-4.8781,-4.8477,-4.8477,-4.7784,-4.6705,-4.5974,-4.5466,-4.5094,-4.4733,-4.4615,-4.4615,-4.4615,-4.4615,-4.4615,-4.4615,-4.4615,-4.4485,-4.4035,-4.3948,-4.3948,-4.3948,-4.3948,-4.4064,-4.4514,-4.3922,-4.309,-4.2268,-4.1243,0.0,0.0,0.0,0.0,0.0,0.0,0.0,0.0,0.0,0.0,0.0,0.0,0.0,0.0,0.0,0.0,0.0,0.0,0.0,0.0,0.0,0.0,0.0,0.0,0.0,-4.0096,-4.0096,-4.0096,-4.007,-3.9662,-3.9489,-3.9463,-3.9076,-3.8679,-3.833,-3.8286,-3.786,-3.707,-3.5926,-3.5733,-3.6086,-3.6477,-3.7068,-3.7815,0.0,-4.0557,0.0,0.0,-4.5399,0.0,-4.8731,-5.0405,-5.0728,-4.8835,-4.9255,-4.9695,-4.9695,-5.0744,-5.1454,-5.1454,-5.1269,-5.0963,-5.0371,-5.0185,-4.983,-4.9255,-4.9086,-4.8731,-4.8156,-4.7273,-4.5832,0.0,0.0,0.0,0.0,0.0,0.0,0.0,0.0,0.0,0.0,0.0,-4.6363,-4.7107,-4.7851,-4.8494,-4.9001,-4.9001,-4.9001,-4.9001,-4.9001,-4.8646,-4.7922,-4.6616,-4.5974,-4.5568,-4.4852,-4.4615,-4.4615,-4.4615,-4.4485,-4.4355,-4.4542,-4.444,-4.4167,-4.3472,-4.3306,-4.3246,-4.3078,-4.3017,-4.3276,-4.4121,-4.3785,-4.2804,-4.1195,-4.0469,0.0,0.0,0.0,0.0,0.0,0.0,0.0,0.0,0.0,0.0,0.0,0.0,0.0,0.0,0.0,0.0,0.0,0.0,0.0,0.0,0.0,-3.9918,-4.0112,0.0,-3.961,0.0,-3.995,-3.9992,-3.9809,-3.9483,-3.9177,-3.8864,-3.8261,-3.7921,-3.7735,-3.6768,-3.6477,-3.6523,-3.5782,-3.5504,-3.5554,-3.6134,-3.6477,-3.6676,0.0,0.0,0.0,0.0,0.0,0.0,0.0,-5.0828,-5.1894,-5.0999,-5.1539,-5.1995,-5.1995,-5.2114,-5.2198,-5.2198,-5.1606,-5.1183,-5.1083,-5.0473,-5.005,-4.9999,-4.9357,-4.8968,-4.89,-4.8166,-4.6924,0.0,0.0,0.0,0.0,0.0,0.0,0.0,0.0,0.0,0.0,-4.6312,-4.7124,-4.7838,-4.8612,-4.8951,-4.9001,-4.9001,-4.9001,-4.9001,-4.9001,-4.8968,-4.8781,-4.7986,-4.6819,-4.5568,-4.4852,-4.4615,-4.4615,-4.4615,-4.4035,-4.3591,-4.4384,-4.4035,-4.3396,-4.3306,-4.3306,-4.3078,-4.2284,-4.2125,-4.2363,-4.3229,-4.3366,-4.2804,-4.1195,-4.083,-4.0578,0.0,0.0,0.0,0.0,0.0,0.0,0.0,0.0,0.0,0.0,0.0,0.0,0.0,0.0,0.0,0.0,0.0,0.0,-4.1085,0.0,-3.9346,-4.0095,-3.8699,-3.8007,-3.8023,-3.9434,-3.9689,-3.8959,-4.023,-4.0078,-3.8825,-3.8736,-3.8368,-3.7706,-3.6227,-3.6006,-3.6523,-3.5782,-3.5504,-3.5504,-3.5587,-3.6038,-3.6523,0.0,0.0,0.0,0.0,0.0,0.0,0.0,-5.1916,-5.194,-5.1657,-5.2455,-5.3027,-5.3027,-5.3027,-5.3027,-5.3027,-5.2756,-5.2384,-5.1894,-5.1572,-5.1217,-5.0777,-4.952,-4.8827,-4.8827,-4.6987,-4.5538,0.0,0.0,0.0,0.0,0.0,0.0,0.0,0.0,-4.3822,-4.4785,-4.6542,-4.714,-4.6946,-4.7817,-4.7836,-4.7306,-4.7306,-4.7306,-4.7373,-4.795,-4.8161,-4.8125,-4.7956,-4.6875,-4.5551,-4.5322,-4.4594,-4.3902,-4.4457,-4.3977,-4.3366,-4.3726,-4.3199,-4.2379,-4.1869,-4.1739,-4.1642,-4.1313,-4.1213,-4.1478,-4.2332,-4.2093,-4.1399,-4.0195,-4.0078,-3.9858,0.0,0.0,0.0,0.0,0.0,0.0,0.0,0.0,0.0,0.0,0.0,0.0,0.0,0.0,0.0,0.0,0.0,0.0,-3.9801,0.0,-3.8391,-3.8728,-3.8094,-3.8001,-3.8416,-3.9027,-3.9352,-3.9411,-3.9529,-3.8795,-3.7414,-3.7414,-3.7029,-3.6368,-3.5733,-3.5668,-3.5926,-3.5619,-3.5504,-3.5504,-3.5504,-3.5701,-3.5894,-4.6367,0.0,-4.7322,0.0,-5.0192,-5.0742,-5.2324,-5.1938,-5.1467,-5.1467,-5.2134,-5.2574,-5.2574,-5.2835,-5.2921,-5.2609,-5.287,-5.279,-5.2219,-5.1984,-5.1748,-5.1523,-5.0175,0.0,-4.9111,-4.7049,-4.5508,-4.4633,-4.3127,0.0,0.0,0.0,0.0,0.0,-4.3512,-4.4249,-4.4765,-4.6462,-4.6815,-4.6244,-4.6918,-4.6781,-4.6208,-4.6208,-4.6208,-4.6279,-4.6952,-4.7205,-4.7191,-4.7369,-4.6321,-4.5033,-4.5257,-4.4517,-4.3677,-4.4102,-4.3591,-4.297,-4.3246,-4.2489,-4.1478,-4.0844,-4.069,-4.0622,-4.0363,-4.0309,-4.05,-4.1129,-4.0961,-4.0432,-3.9538,-3.9485,-3.9387,-3.886,0.0,0.0,0.0,0.0,0.0,0.0,0.0,-3.6955,-3.7117,0.0,0.0,0.0,0.0,0.0,0.0,0.0,0.0,0.0,0.0,0.0,0.0,-3.7644,-3.7729,-3.8403,-3.8856,-3.9188,-3.9375,-3.8822,-3.7904,-3.6746,-3.6567,-3.6118,-3.5504,-3.5504,-3.5504,-3.5504,-3.5504,-3.5504,-3.5504,-3.5504,-3.5504,-3.5504,-4.5332,-4.591,-4.6854,-4.9882,-5.0403,-5.0419,-5.0435,-5.0451,-5.0397,-5.0397,-5.0451,-5.0451,-5.0451,-5.132,-5.1504,-5.0512,-5.1357,-5.1921,-5.1905,-5.1213,-5.1254,0.0,0.0,-5.0813,-5.0101,-4.9128,-4.784,-4.6176,0.0,0.0,-4.2479,0.0,-4.2521,-4.396,-4.3976,-4.4827,-4.6192,-4.6208,-4.6208,-4.6208,-4.6208,-4.6208,-4.6208,-4.6208,-4.6208,-4.6208,-4.6208,-4.6208,-4.6208,-4.6244,-4.5144,-4.3877,-4.4284,-4.4377,-4.4167,-4.352,-4.2707,-4.2189,-4.3078,-4.2029,-4.0709,-4.069,-4.069,-4.0466,-3.961,-3.9424,-3.9409,-3.9424,-4.0115,-4.0432,-3.9538,-3.9409,-3.9455,-3.9554,0.0,0.0,0.0,0.0,0.0,0.0,-3.7591,-3.7043,-3.5647,0.0,0.0,0.0,0.0,0.0,0.0,0.0,0.0,-3.8886,-3.7399,0.0,-3.8678,-3.7246,-3.681,-3.7439,-3.8944,-3.9232,-3.8412,-3.8412,-3.8018,-3.736,-3.6746,-3.6118,-3.5504,-3.5504,-3.5504,-3.5504,-3.5504,-3.5504,-3.5504,-3.5504,-3.5504,-3.5504,-4.8783,-4.8986,-4.9499,-5.1152,-5.0855,-5.0627,-5.132,-5.0227,-4.9296,-4.9296,-4.9296,-4.9029,-4.835,-4.9829,-5.0741,0.0,-5.0703,-5.0892,0.0,-5.0645,-5.0665,-5.0998,-4.9636,-4.91,-4.9616,-4.7044,-4.5779,-4.6012,0.0,0.0,0.0,-4.2322,-4.2705,-4.351,-4.351,-4.3792,-4.4266,-4.4952,-4.4856,-4.4289,-4.4968,-4.484,-4.4228,-4.4228,-4.4228,-4.4289,-4.5005,-4.5264,-4.5358,-4.5961,-4.5439,-4.4412,-4.4071,-4.3313,-4.2495,-4.2446,-4.1804,-4.118,-4.1445,-4.0706,-3.9793,-3.9793,-3.9793,-3.9737,-3.9445,-3.9388,-3.9388,-3.9388,-3.961,-3.9737,-3.9445,-3.9388,-3.9406,-3.9466,-3.9258,0.0,0.0,0.0,0.0,0.0,-3.7736,-3.7138,0.0,-3.706,0.0,0.0,0.0,0.0,0.0,0.0,0.0,0.0,-3.6811,0.0,-3.7213,-3.7121,-3.7434,-3.8078,-3.8586,-3.8898,-3.9095,-3.9095,-3.8721,-3.8048,-3.7404,-3.6761,-3.6148,-3.5684,-3.5504,-3.5504,-3.5504,-3.5504,-3.5504,-3.5504,-3.5504,-3.5504,-4.9247,-4.9247,-4.9432,-5.0071,-4.9655,-4.9432,-5.0071,-4.9069,-4.8225,-4.8225,-4.8225,-4.7988,-4.7381,-4.8475,0.0,-4.9247,-4.9591,-4.9813,-4.9813,-4.9813,-4.997,-5.0358,-4.9363,-4.896,-4.9363,0.0,0.0,-4.6199,-4.4167,-4.3046,-4.2802,-4.2802,-4.297,-4.329,-4.329,-4.329,-4.3329,-4.3966,-4.3888,-4.3369,-4.3989,-4.3849,-4.329,-4.329,-4.329,-4.3369,-4.3989,-4.4259,-4.432,-4.4899,-4.4728,-4.4136,-4.3485,-4.2668,-4.194,-4.1904,-4.1317,-4.069,-4.069,-4.0045,-3.9388,-3.9388,-3.9388,-3.9388,-3.9388,-3.9388,-3.9388,-3.9388,-3.9388,-3.9388,-3.9388,-3.9388,-3.9388,-3.9388,-3.9388,-3.9388,-3.9388,0.0,0.0,0.0,0.0,0.0,0.0,-3.7261,0.0,0.0,0.0,0.0,0.0,0.0,0.0,-3.6579,-3.676,0.0,-3.7195,-3.7584,-3.8108,-3.8781,-3.8781,-3.9005,-3.9388,-3.9388,-3.9035,-3.8347,-3.7689,-3.706,-3.6432,-3.5774,-3.5504,-3.5504,-3.5504,-3.5504,-3.5504,-3.5504,-3.5504,-3.5504,-4.7369,-4.7339,0.0,0.0,-4.7337,0.0,-4.7381,-4.7337,-4.7309,-4.7309,-4.7337,-4.7381,-4.7309,-4.7337,-4.7381,-4.7309,0.0,0.0,0.0,-4.8718,-4.915,-5.0142,-5.0165,-4.9901,-4.927,-4.8215,-4.7318,-4.6583,-4.5072,-4.4003,-4.3364,-4.3319,-4.329,-4.329,-4.329,-4.329,-4.329,-4.329,-4.329,-4.329,-4.329,-4.329,-4.329,-4.329,-4.329,-4.329,-4.329,-4.329,-4.329,-4.329,-4.329,-4.3185,-4.2626,-4.2425,-4.2279,-4.1771,-4.1175,-4.0684,-4.0638,-4.0025,-3.9388,-3.9388,-3.9388,-3.9388,-3.9388,-3.9388,-3.9388,-3.9388,-3.9388,-3.9388,-3.9388,-3.9388,-3.9388,-3.9388,-3.9388,-3.9388,-3.9388,0.0,0.0,0.0,0.0,0.0,0.0,-3.7479,-3.7464,0.0,0.0,0.0,0.0,0.0,-3.7313,-3.6585,-3.715,-3.7778,-3.8377,-3.8437,-3.8781,-3.9388,-3.9388,-3.9388,-3.9388,-3.9388,-3.9065,-3.8422,-3.7764,-3.712,-3.6492,-3.5848,-3.5549,-3.5504,-3.5504,-3.5504,-3.5504,-3.5504,-3.5504,-3.5504,0.0,0.0,-4.7523,-4.8293,-4.7792,-4.7581,-4.8335,-4.7807,-4.7309,-4.7309,-4.7946,-4.8141,-4.7381,-4.7988,-4.8141,-4.7381,-4.7538,-4.7651,-4.7651,-4.7651,-4.7764,-4.8003,-4.8046,-4.8315,-4.8901,-4.745,-4.6324,-4.563,-4.4753,-4.4242,-4.4062,-4.3529,-4.329,-4.329,-4.329,-4.329,-4.329,-4.329,-4.329,-4.329,-4.329,-4.329,-4.329,-4.329,-4.329,-4.329,-4.329,-4.329,-4.329,-4.329,-4.329,-4.3275,-4.315,-4.2761,-4.2179,-4.1016,-4.0592,-4.0351,-3.9838,-3.9538,-3.9388,-3.9388,-3.9388,-3.9388,-3.9388,-3.9388,-3.9388,-3.9388,-3.9388,-3.9388,-3.9388,-3.9388,-3.9388,-3.9388,-3.9388,-3.9388,-3.9388,-3.9388,0.0,0.0,-3.917,-3.8916,-3.8227,-3.8153,-3.7943,0.0,0.0,0.0,0.0,-3.7925,-3.788,-3.721,-3.7823,-3.8227,-3.8392,-3.8916,-3.926,-3.9388,-3.9388,-3.9388,-3.9388,-3.9388,-3.9334,-3.914,-3.8452,-3.7793,-3.715,-3.6507,-3.5953,-3.5504,-3.5504,-3.5504,-3.5504,-3.5504,-3.5504,-3.5504,-4.8745,-4.8207,-4.7946,-4.8487,-4.7847,-4.7495,-4.803,-4.7651,-4.7309,-4.7309,-4.7764,-4.7919,-4.7337,-4.7807,-4.7876,-4.7337,-4.7309,-4.7309,-4.7309,-4.7309,-4.7309,-4.7309,-4.7309,-4.7581,-4.8099,-4.7219,-4.6441,-4.5768,-4.5409,-4.508,-4.4751,-4.4092,-4.3738,-4.3723,-4.3424,-4.329,-4.329,-4.329,-4.329,-4.329,-4.329,-4.329,-4.329,-4.329,-4.329,-4.329,-4.329,-4.329,-4.329,-4.329,-4.329,-4.329,-4.329,-4.309,-4.2596,-4.1594,-4.0876,-4.0322,-3.9963,-3.9649,-3.9388,-3.9388,-3.9388,-3.9388,-3.9388,-3.9388,-3.9388,-3.9388,-3.9388,-3.9388,-3.9388,-3.9388,-3.9388,-3.9388,-3.9155,-3.905,-3.9379,-3.9155,0.0,-3.9343,-3.9388,-3.9275,-3.8901,-3.8856,-3.8721,-3.8347,0.0,0.0,-3.8332,-3.8661,-3.8556,-3.7883,-3.8512,-3.8856,-3.8856,-3.923,-3.9388,-3.9388,-3.9388,-3.9388,-3.9388,-3.9388,-3.9388,-3.9343,-3.8691,-3.8018,-3.736,-3.6746,-3.6088,-3.5504,-3.5504,-3.5504,-3.5504,-3.5504,-3.5504,-3.5504,-4.9419,-4.888,-4.8401,-4.8297,-4.7818,-4.7414,-4.7324,-4.7309,-4.7309,-4.7309,-4.7309,-4.7309,-4.7309,-4.7309,-4.7309,-4.7309,-4.7309,-4.7309,-4.7309,-4.7309,-4.7309,-4.7309,-4.7309,-4.7309,-4.7309,-4.7309,-4.704,-4.6429,-4.6324,-4.6022,-4.5439,-4.4766,-4.4407,-4.4287,-4.3678,-4.3379,-4.329,-4.329,-4.329,-4.329,-4.329,-4.329,-4.329,-4.329,-4.329,-4.329,-4.329,-4.329,-4.329,-4.329,-4.329,-4.329,-4.329,-4.329,-4.3185,-4.2671,-4.1654,-4.0651,-4.0442,-3.9918,-3.9388,-3.9388,-3.9388,-3.9388,-3.9388,-3.9388,-3.9388,-3.9388,-3.9388,-3.9388,-3.9388,-3.9388,-3.9394,-3.929,-3.8856,-3.8706,-3.9185,0.0,-3.8766,-3.9313,-3.9388,-3.9388,-3.9388,-3.9388,-3.9388,-3.9388,-3.9388,-3.9388,0.0,-3.9388,-3.9155,-3.8556,-3.911,-3.9388,-3.9388,-3.9388,-3.9388,-3.9388,-3.9388,-3.9388,-3.9388,-3.9388,-3.9388,-3.9394,-3.8796,-3.8108,-3.736,-3.6851,-3.6193,-3.5504,-3.5504,-3.5504,-3.5504,-3.5504,-3.5504,-3.5504,-5.0046,-4.9568,-4.8985,-4.8386,-4.8192,-4.7938,-4.7399,-4.7309,-4.7309,-4.7309,-4.7309,-4.7309,-4.7309,-4.7309,-4.7309,-4.7309,-4.7309,-4.7309,-4.7309,-4.7309,-4.7309,-4.7309,-4.7309,-4.7309,-4.7309,-4.7309,-4.7249,-4.716,-4.6591,-4.6277,-4.6157,-4.5469,-4.484,-4.4317,-4.4212,-4.3813,-4.329,-4.329,-4.329,-4.329,-4.329,-4.329,-4.329,-4.329,-4.329,-4.329,-4.329,-4.329,-4.329,-4.329,-4.329,-4.329,-4.329,-4.329,-4.3275,-4.317,-4.2641,-4.1856,-4.0711,-3.9918,-3.9388,-3.9388,-3.9388,-3.9388,-3.9388,-3.9388,-3.9388,-3.9388,-3.9388,-3.9388,-3.9388,-3.9388,-3.923,-3.8646,-3.8945,-3.9095,-3.8616,0.0,-3.9269,-3.9373,-3.9388,-3.9388,-3.9388,-3.9388,-3.9388,-3.9388,-3.9388,-3.9388,-3.9388,-3.9388,-3.9328,-3.926,-3.9364,-3.9388,-3.9388,-3.9388,-3.9388,-3.9388,-3.9388,-3.9388,-3.9388,-3.9388,-3.9388,-3.9373,-3.9305,-3.8556,-3.7404,-3.73,-3.6567,-3.5504,-3.5504,-3.5504,-3.5504,-3.5504,-3.5504,-3.5504,-5.0719,-5.0242,-4.9703,-4.9389,-4.876,-4.8192,-4.7878,-4.7534,-4.7309,-4.7309,-4.7309,-4.7309,-4.7309,-4.7309,-4.7309,-4.7309,-4.7309,-4.7309,-4.7309,-4.7309,-4.7309,-4.7309,-4.7309,-4.7309,-4.7309,-4.7309,-4.7309,-4.7309,-4.6995,-4.686,-4.683,-4.6157,-4.5678,-4.5364,-4.4631,-4.4152,-4.3798,-4.3439,-4.329,-4.329,-4.329,-4.329,-4.329,-4.329,-4.329,-4.329,-4.329,-4.329,-4.329,-4.329,-4.329,-4.329,-4.329,-4.329,-4.329,-4.329,-4.2626,-4.1662,-4.0666,-3.9918,-3.9388,-3.9388,-3.9388,-3.9388,-3.9388,-3.9388,-3.9388,-3.9388,-3.9388,-3.9388,-3.9388,-3.9388,-3.932,-3.899,-3.8901,0.0,0.0,-3.8901,-3.9005,-3.9379,-3.9388,-3.9388,-3.9388,-3.9388,-3.9388,-3.9388,-3.9388,-3.9388,-3.9388,-3.9388,-3.9388,-3.9388,-3.9388,-3.9388,-3.9388,-3.9388,-3.9388,-3.9388,-3.9388,-3.9388,-3.9388,-3.9388,-3.9388,-3.9388,-3.9388,-3.8856,-3.7913,-3.7554,-3.6866,-3.5998,-3.5639,-3.5504,-3.5504,-3.5504,-3.5504,-3.5504,-5.1214,-5.0764,-5.0375,-5.0226,-4.9404,-4.8686,-4.8536,-4.7952,-4.7534,-4.7534,-4.7399,-4.7309,-4.7309,-4.7309,-4.7309,-4.7309,-4.7309,-4.7309,-4.7309,-4.7309,-4.7309,-4.7309,-4.7309,-4.7309,-4.7309,-4.7309,-4.7309,-4.7309,-4.7309,-4.7309,-4.7294,-4.6785,-4.6429,-4.6234,-4.508,-4.4466,-4.4272,-4.3574,-4.329,-4.329,-4.329,-4.329,-4.329,-4.329,-4.329,-4.329,-4.329,-4.329,-4.329,-4.329,-4.329,-4.329,-4.329,-4.329,-4.329,-4.329,-4.2521,-4.1467,-4.0621,-3.9918,-3.9388,-3.9388,-3.9388,-3.9388,-3.9388,-3.9388,-3.9388,-3.9388,-3.9388,-3.9388,-3.9388,-3.9388,-3.9364,-3.92,0.0,0.0,0.0,-3.8856,-3.8826,-3.9349,-3.9388,-3.9388,-3.9388,-3.9388,-3.9388,-3.9388,-3.9388,-3.9388,-3.9388,-3.9388,-3.9388,-3.9388,-3.9388,-3.9388,-3.9388,-3.9388,-3.9388,-3.9388,-3.9388,-3.9388,-3.9388,-3.9388,-3.9388,-3.9388,-3.9388,-3.9035,-3.8347,-3.7689,-3.7045,-3.6417,-3.5759,-3.5504,-3.5504,-3.5504,-3.5504,-3.5504,-5.1214,-5.1184,-5.0945,-5.03,-5.0106,-4.9898,-4.9329,-4.8641,-4.8222,-4.8222,-4.7683,-4.7309,-4.7309,-4.7309,-4.7309,-4.7309,-4.7309,-4.7309,-4.7309,-4.7309,-4.7309,-4.7309,-4.7309,-4.7309,-4.7309,-4.7309,-4.7309,-4.7309,-4.7309,-4.7309,-4.7309,-4.7249,-4.6905,-4.6249,-4.5559,-4.4885,-4.4272,-4.3574,-4.329,-4.329,-4.329,-4.329,-4.329,-4.329,-4.329,-4.329,-4.329,-4.329,-4.329,-4.329,-4.329,-4.329,-4.329,-4.329,-4.329,-4.329,-4.2836,-4.2051,-4.0741,-3.9918,-3.9388,-3.9388,-3.9388,-3.9388,-3.9388,-3.9388,-3.9388,-3.9388,-3.9388,-3.9388,-3.9388,-3.9388,-3.9215,-3.8571,0.0,0.0,-3.8542,-3.8975,-3.9328,-3.9373,-3.9388,-3.9388,-3.9388,-3.9388,-3.9388,-3.9388,-3.9388,-3.9388,-3.9388,-3.9388,-3.9388,-3.9388,-3.9388,-3.9388,-3.9388,-3.9388,-3.9388,-3.9388,-3.9388,-3.9388,-3.9388,-3.9388,-3.9388,-3.9388,-3.9388,-3.9035,-3.8347,-3.7689,-3.7045,-3.6417,-3.5759,-3.5504,-3.5504,-3.5504,-3.5504,-3.5504,-5.1214,-5.1214,-5.1139,-5.0838,-5.0465,-5.0106,-4.9898,-4.9314,-4.894,-4.894,-4.8327,-4.7923,-4.7923,-4.7549,-4.7309,-4.7309,-4.7309,-4.7309,-4.7309,-4.7309,-4.7309,-4.7309,-4.7309,-4.7309,-4.7309,-4.7309,-4.7309,-4.7309,-4.7309,-4.7309,-4.7309,-4.7309,-4.7174,-4.6905,-4.6232,-4.5559,-4.4885,-4.4212,-4.3663,-4.329,-4.329,-4.329,-4.329,-4.329,-4.329,-4.329,-4.329,-4.329,-4.329,-4.329,-4.329,-4.329,-4.329,-4.329,-4.329,-4.329,-4.2865,-4.2201,-4.125,-4.0531,-3.9933,-3.9514,-3.9388,-3.9388,-3.9388,-3.9388,-3.9388,-3.9388,-3.9388,-3.9388,-3.9388,-3.9388,-3.9334,-3.9065,0.0,-3.9334,-3.9065,-3.926,-3.9388,-3.9388,-3.9388,-3.9388,-3.9388,-3.9388,-3.9388,-3.9388,-3.9388,-3.9388,-3.9388,-3.9388,-3.9388,-3.9388,-3.9388,-3.9388,-3.9388,-3.9388,-3.9388,-3.9388,-3.9388,-3.9388,-3.9388,-3.9388,-3.9388,-3.9388,-3.9388,-3.9275,-3.8945,-3.7853,-3.727,-3.6956,-3.5908,-3.5504,-3.5504,-3.5504,-3.5504,-3.5504,-5.1214,-5.1214,-5.1214,-5.1214,-5.0808,-5.0495,-5.0495,-4.9987,-4.9568,-4.9568,-4.9,-4.8521,-4.8312,-4.7878,-4.7534,-4.7324,-4.7309,-4.7309,-4.7309,-4.7309,-4.7309,-4.7309,-4.7309,-4.7309,-4.7309,-4.7309,-4.7309,-4.7309,-4.7309,-4.7309,-4.7309,-4.7309,-4.7309,-4.7279,-4.6621,-4.5933,-4.5244,-4.4586,-4.3888,-4.329,-4.329,-4.329,-4.329,-4.329,-4.329,-4.329,-4.329,-4.329,-4.329,-4.329,-4.329,-4.329,-4.329,-4.329,-4.329,-4.329,-4.3015,-4.2521,-4.1901,-4.1205,-4.0502,-3.9634,-3.9388,-3.9388,-3.9388,-3.9388,-3.9388,-3.9388,-3.9388,-3.9388,-3.9388,-3.9388,-3.9388,-3.9388,-3.9388,-3.9388,-3.9388,-3.9388,-3.9388,-3.9388,-3.9388,-3.9388,-3.9388,-3.9388,-3.9388,-3.9388,-3.9388,-3.9388,-3.9388,-3.9388,-3.9388,-3.9388,-3.9388,-3.9388,-3.9388,-3.9388,-3.9388,-3.9388,-3.9388,-3.9388,-3.9388,-3.9388,-3.9388,-3.9388,-3.9388,-3.9388,-3.932,-3.7958,-3.7404,-3.7285,-3.6013,-3.5504,-3.5504,-3.5504,-3.5504,-3.5504,-5.1214,-5.1214,-5.1214,-5.1214,-5.1214,-5.1214,-5.1214,-5.0629,-5.0196,-5.0196,-4.9673,-4.906,-4.8356,-4.8282,-4.8012,-4.7369,-4.7309,-4.7309,-4.7309,-4.7309,-4.7309,-4.7309,-4.7309,-4.7309,-4.7309,-4.7309,-4.7309,-4.7309,-4.7309,-4.7309,-4.7309,-4.7309,-4.7309,-4.7279,-4.6621,-4.5948,-4.5259,-4.4601,-4.3902,-4.3305,-4.329,-4.329,-4.329,-4.329,-4.329,-4.329,-4.329,-4.329,-4.329,-4.329,-4.329,-4.329,-4.329,-4.329,-4.329,-4.329,-4.329,-4.3155,-4.2575,-4.1916,-4.107,-3.9753,-3.9388,-3.9388,-3.9388,-3.9388,-3.9388,-3.9388,-3.9388,-3.9388,-3.9388,-3.9388,-3.9388,-3.9388,-3.9388,-3.9388,-3.9388,-3.9388,-3.9388,-3.9388,-3.9388,-3.9388,-3.9388,-3.9388,-3.9388,-3.9388,-3.9388,-3.9388,-3.9388,-3.9388,-3.9388,-3.9388,-3.9388,-3.9388,-3.9388,-3.9388,-3.9388,-3.9388,-3.9388,-3.9388,-3.9388,-3.9388,-3.9388,-3.9388,-3.9388,-3.9388,-3.932,-3.7973,-3.7404,-3.7285,-3.6013,-3.5504,-3.5504,-3.5504,-3.5504,-3.5504,-5.1214,-5.1214,-5.1214,-5.1214,-5.1214,-5.1214,-5.1214,-5.105,-5.0883,-5.0883,-5.0361,-4.9703,-4.909,-4.8566,-4.8012,-4.7369,-4.7309,-4.7309,-4.7309,-4.7309,-4.7309,-4.7309,-4.7309,-4.7309,-4.7309,-4.7309,-4.7309,-4.7309,-4.7309,-4.7309,-4.7309,-4.7309,-4.7309,-4.7294,-4.71,-4.6636,-4.5978,-4.5289,-4.4616,-4.3947,-4.3484,-4.329,-4.329,-4.329,-4.329,-4.329,-4.329,-4.329,-4.329,-4.329,-4.329,-4.329,-4.329,-4.329,-4.329,-4.329,-4.329,-4.3155,-4.2575,-4.1916,-4.1175,-4.0322,-3.9768,-3.9388,-3.9388,-3.9388,-3.9388,-3.9388,-3.9388,-3.9388,-3.9388,-3.9388,-3.9388,-3.9388,-3.9388,-3.9388,-3.9388,-3.9388,-3.9388,-3.9388,-3.9388,-3.9388,-3.9388,-3.9388,-3.9388,-3.9388,-3.9388,-3.9388,-3.9388,-3.9388,-3.9388,-3.9388,-3.9388,-3.9388,-3.9388,-3.9388,-3.9388,-3.9388,-3.9388,-3.9388,-3.9388,-3.9388,-3.9388,-3.9388,-3.9388,-3.9388,-3.9313,-3.8467,-3.7823,-3.733,-3.6507,-3.5908,-3.5504,-3.5504,-3.5504,-3.5504,-5.1214,-5.1214,-5.1214,-5.1214,-5.1214,-5.1214,-5.1214,-5.1214,-5.1214,-5.1214,-5.0823,-5.0376,-4.9718,-4.906,-4.8416,-4.7743,-4.7459,-4.7309,-4.7309,-4.7309,-4.7309,-4.7309,-4.7309,-4.7309,-4.7309,-4.7309,-4.7309,-4.7309,-4.7309,-4.7309,-4.7309,-4.7309,-4.7309,-4.7309,-4.7309,-4.6935,-4.6234,-4.5589,-4.4915,-4.4257,-4.3559,-4.329,-4.329,-4.329,-4.329,-4.329,-4.329,-4.329,-4.329,-4.329,-4.329,-4.329,-4.329,-4.329,-4.329,-4.329,-4.329,-4.32,-4.2865,-4.2267,-4.1647,-4.095,-4.0098,-3.9388,-3.9388,-3.9388,-3.9388,-3.9388,-3.9388,-3.9388,-3.9388,-3.9388,-3.9388,-3.9388,-3.9388,-3.9388,-3.9388,-3.9388,-3.9388,-3.9388,-3.9388,-3.9388,-3.9388,-3.9388,-3.9388,-3.9388,-3.9388,-3.9388,-3.9388,-3.9388,-3.9388,-3.9388,-3.9388,-3.9388,-3.9388,-3.9388,-3.9388,-3.9388,-3.9388,-3.9388,-3.9388,-3.9388,-3.9388,-3.9388,-3.9388,-3.9388,-3.9364,-3.8676,-3.8003,-3.7345,-3.6731,-3.6088,-3.5504,-3.5504,-3.5504,-3.5504,-5.1214,-5.1214,-5.1214,-5.1214,-5.1214,-5.1214,-5.1214,-5.1214,-5.1214,-5.1214,-5.1214,-5.0928,-5.0255,-4.9658,-4.9045,-4.8341,-4.7683,-4.7309,-4.7309,-4.7309,-4.7309,-4.7309,-4.7309,-4.7309,-4.7309,-4.7309,-4.7309,-4.7309,-4.7309,-4.7309,-4.7309,-4.7309,-4.7309,-4.7309,-4.7309,-4.698,-4.6367,-4.5678,-4.5005,-4.4347,-4.3648,-4.3349,-4.329,-4.329,-4.329,-4.329,-4.329,-4.329,-4.329,-4.329,-4.329,-4.329,-4.329,-4.329,-4.329,-4.329,-4.329,-4.329,-4.329,-4.2865,-4.2246,-4.1647,-4.0487,-3.9448,-3.9388,-3.9388,-3.9388,-3.9388,-3.9388,-3.9388,-3.9388,-3.9388,-3.9388,-3.9388,-3.9388,-3.9388,-3.9388,-3.9388,-3.9388,-3.9388,-3.9388,-3.9388,-3.9388,-3.9388,-3.9388,-3.9388,-3.9388,-3.9388,-3.9388,-3.9388,-3.9388,-3.9388,-3.9388,-3.9388,-3.9388,-3.9388,-3.9388,-3.9388,-3.9388,-3.9388,-3.9388,-3.9388,-3.9388,-3.9388,-3.9388,-3.9388,-3.9328,-3.8736,-3.8093,-3.7434,-3.6806,-3.6163,-3.5594,-3.5534,-3.5504,-3.5504,-5.1214,-5.1214,-5.1214,-5.1214,-5.1214,-5.1214,-5.1214,-5.1214,-5.1214,-5.1214,-5.1214,-5.0928,-5.0255,-4.9658,-4.9045,-4.8341,-4.7683,-4.7309,-4.7309,-4.7309,-4.7309,-4.7309,-4.7309,-4.7309,-4.7309,-4.7309,-4.7309,-4.7309,-4.7309,-4.7309,-4.7309,-4.7309,-4.7309,-4.7309,-4.7309,-4.7234,-4.7055,-4.6381,-4.5708,-4.502,-4.4362,-4.3753,-4.329,-4.329,-4.329,-4.329,-4.329,-4.329,-4.329,-4.329,-4.329,-4.329,-4.329,-4.329,-4.329,-4.329,-4.329,-4.329,-4.329,-4.2865,-4.2366,-4.2231,-4.116,-4.0053,-3.9508,-3.9388,-3.9388,-3.9388,-3.9388,-3.9388,-3.9388,-3.9388,-3.9388,-3.9388,-3.9388,-3.9388,-3.9388,-3.9388,-3.9388,-3.9388,-3.9388,-3.9388,-3.9388,-3.9388,-3.9388,-3.9388,-3.9388,-3.9388,-3.9388,-3.9388,-3.9388,-3.9388,-3.9388,-3.9388,-3.9388,-3.9388,-3.9388,-3.9388,-3.9388,-3.9388,-3.9388,-3.9388,-3.9388,-3.9388,-3.9388,-3.9388,-3.9373,-3.926,-3.8796,-3.8108,-3.7464,-3.6821,-3.6207,-3.5684,-3.5504,-3.5504,-5.1214,-5.1214,-5.1214,-5.1214,-5.1214,-5.1214,-5.1214,-5.1214,-5.1214,-5.1214,-5.1214,-5.1094,-5.0704,-5.0122,-4.9344,-4.8371,-4.7683,-4.7309,-4.7309,-4.7309,-4.7309,-4.7309,-4.7309,-4.7309,-4.7309,-4.7309,-4.7309,-4.7309,-4.7309,-4.7309,-4.7309,-4.7309,-4.7309,-4.7309,-4.7309,-4.7309,-4.7264,-4.6563,-4.5918,-4.5229,-4.4586,-4.3888,-4.329,-4.329,-4.329,-4.329,-4.329,-4.329,-4.329,-4.329,-4.329,-4.329,-4.329,-4.329,-4.329,-4.329,-4.329,-4.329,-4.329,-4.309,-4.2746,-4.247,-4.1886,-4.1085,-4.0113,-3.9649,-3.9388,-3.9388,-3.9388,-3.9388,-3.9388,-3.9388,-3.9388,-3.9388,-3.9388,-3.9388,-3.9388,-3.9388,-3.9388,-3.9388,-3.9388,-3.9388,-3.9388,-3.9388,-3.9388,-3.9388,-3.9388,-3.9388,-3.9388,-3.9388,-3.9388,-3.9388,-3.9388,-3.9388,-3.9388,-3.9388,-3.9388,-3.9388,-3.9388,-3.9388,-3.9388,-3.9388,-3.9388,-3.9388,-3.9388,-3.9388,-3.9388,-3.9388,-3.9005,-3.8362,-3.8003,-3.73,-3.6447,-3.6103,-3.5774,-3.5504,-5.1214,-5.1214,-5.1214,-5.1214,-5.1214,-5.1214,-5.1214,-5.1214,-5.1214,-5.1214,-5.1214,-5.1214,-5.1214,-5.048,-4.9583,-4.8386,-4.7683,-4.7309,-4.7309,-4.7309,-4.7309,-4.7309,-4.7309,-4.7309,-4.7309,-4.7309,-4.7309,-4.7309,-4.7309,-4.7309,-4.7309,-4.7309,-4.7309,-4.7309,-4.7309,-4.7309,-4.7264,-4.6726,-4.6097,-4.5409,-4.4751,-4.4092,-4.3454,-4.3334,-4.329,-4.329,-4.329,-4.329,-4.329,-4.329,-4.329,-4.329,-4.329,-4.329,-4.329,-4.329,-4.329,-4.329,-4.329,-4.329,-4.317,-4.2671,-4.2485,-4.2111,-4.0995,-4.0142,-3.9559,-3.9403,-3.9388,-3.9388,-3.9388,-3.9388,-3.9388,-3.9388,-3.9388,-3.9388,-3.9388,-3.9388,-3.9388,-3.9388,-3.9388,-3.9388,-3.9388,-3.9388,-3.9388,-3.9388,-3.9388,-3.9388,-3.9388,-3.9388,-3.9388,-3.9388,-3.9388,-3.9388,-3.9388,-3.9388,-3.9388,-3.9388,-3.9388,-3.9388,-3.9388,-3.9388,-3.9388,-3.9388,-3.9388,-3.9388,-3.9388,-3.9388,-3.908,-3.8556,-3.8437,-3.7749,-3.6791,-3.6567,-3.6073,-3.5504,-5.1214,-5.1214,-5.1214,-5.1214,-5.1214,-5.1214,-5.1214,-5.1214,-5.1214,-5.1214,-5.1214,-5.1214,-5.1214,-5.0137,-4.9134,-4.8356,-4.7683,-4.7309,-4.7309,-4.7309,-4.7309,-4.7309,-4.7309,-4.7309,-4.7309,-4.7309,-4.7309,-4.7309,-4.7309,-4.7309,-4.7309,-4.7309,-4.7309,-4.7309,-4.7309,-4.7309,-4.7294,-4.7204,-4.68,-4.6127,-4.5439,-4.4766,-4.4122,-4.3514,-4.329,-4.329,-4.329,-4.329,-4.329,-4.329,-4.329,-4.329,-4.329,-4.329,-4.329,-4.329,-4.329,-4.329,-4.329,-4.329,-4.3275,-4.3185,-4.2776,-4.2351,-4.2171,-4.1145,-4.0113,-3.9508,-3.9388,-3.9388,-3.9388,-3.9388,-3.9388,-3.9388,-3.9388,-3.9388,-3.9388,-3.9388,-3.9388,-3.9388,-3.9388,-3.9388,-3.9388,-3.9388,-3.9388,-3.9388,-3.9388,-3.9388,-3.9388,-3.9388,-3.9388,-3.9388,-3.9388,-3.9388,-3.9388,-3.9388,-3.9388,-3.9388,-3.9388,-3.9388,-3.9388,-3.9388,-3.9388,-3.9388,-3.9388,-3.9388,-3.9388,-3.9388,-3.9364,-3.923,-3.8616,-3.8287,-3.8003,-3.6896,-3.6073,-3.5504,-5.1214,-5.1214,-5.1214,-5.1214,-5.1214,-5.1214,-5.1214,-5.1214,-5.1214,-5.1214,-5.1214,-5.1214,-5.1214,-5.0376,-4.9553,-4.8895,-4.8237,-4.7698,-4.7324,-4.7309,-4.7309,-4.7309,-4.7309,-4.7309,-4.7309,-4.7309,-4.7309,-4.7309,-4.7309,-4.7309,-4.7309,-4.7309,-4.7309,-4.7309,-4.7309,-4.7309,-4.7309,-4.7309,-4.692,-4.6219,-4.5574,-4.49,-4.4242,-4.3544,-4.329,-4.329,-4.329,-4.329,-4.329,-4.329,-4.329,-4.329,-4.329,-4.329,-4.329,-4.329,-4.329,-4.329,-4.329,-4.329,-4.329,-4.329,-4.312,-4.2806,-4.2485,-4.1946,-4.1205,-4.0172,-3.9679,-3.9388,-3.9388,-3.9388,-3.9388,-3.9388,-3.9388,-3.9388,-3.9388,-3.9388,-3.9388,-3.9388,-3.9388,-3.9388,-3.9388,-3.9388,-3.9388,-3.9388,-3.9388,-3.9388,-3.9388,-3.9388,-3.9388,-3.9388,-3.9388,-3.9388,-3.9388,-3.9388,-3.9388,-3.9388,-3.9388,-3.9388,-3.9388,-3.9388,-3.9388,-3.9388,-3.9388,-3.9388,-3.9388,-3.9388,-3.9388,-3.9394,-3.908,-3.8497,-3.7734,-3.6821,-3.6073,-3.5504]},{"header":{"parameterUnit":"m.s-1","parameterCategory":1,"la1":30.6,"la2":28.766,"lo1":-90.7593,"lo2":-88.6598,"dy":0.0162,"dx":0.0183,"nx":116,"ny":114,"refTime":"2023-05-01T12:00:00:Z","depth":0,"parameterNumber":3,"parameterNumberName":"V-component_of_WINDS"},"data":[0.0,0.0,0.0,0.0,0.0,0.0,0.0,0.0,0.0,0.0,0.0,0.0,0.0,0.0,0.0,0.0,0.0,0.0,0.0,0.0,0.0,0.0,0.0,0.0,0.0,0.0,0.0,0.0,0.0,0.0,0.0,0.0,0.0,0.0,0.0,0.0,0.0,0.0,0.0,0.0,0.0,0.0,0.0,0.0,0.0,0.0,0.0,0.0,0.0,0.0,0.0,0.0,0.0,0.0,0.0,0.0,0.0,0.0,0.0,0.0,0.0,0.0,0.0,0.0,0.0,0.0,0.0,0.0,0.0,0.0,0.0,0.0,0.0,0.0,0.0,0.0,0.0,0.0,0.0,0.0,0.0,0.0,0.0,0.0,0.0,0.0,0.0,0.0,0.0,0.0,0.0,0.0,0.0,0.0,0.0,0.0,0.0,0.0,0.0,0.0,0.0,0.0,0.0,0.0,0.0,0.0,0.0,0.0,0.0,0.0,0.0,0.0,0.0,0.0,0.0,0.0,0.0,0.0,0.0,0.0,0.0,0.0,0.0,0.0,0.0,0.0,0.0,0.0,0.0,0.0,0.0,0.0,0.0,0.0,0.0,0.0,0.0,0.0,0.0,0.0,0.0,0.0,0.0,0.0,0.0,0.0,0.0,0.0,0.0,0.0,0.0,0.0,0.0,0.0,0.0,0.0,0.0,0.0,0.0,0.0,0.0,0.0,0.0,0.0,0.0,0.0,0.0,0.0,0.0,0.0,0.0,0.0,0.0,0.0,0.0,0.0,0.0,0.0,0.0,0.0,0.0,0.0,0.0,0.0,0.0,0.0,0.0,0.0,0.0,0.0,0.0,0.0,0.0,0.0,0.0,0.0,0.0,0.0,0.0,0.0,0.0,0.0,0.0,0.0,0.0,0.0,0.0,0.0,0.0,0.0,0.0,0.0,0.0,0.0,0.0,0.0,0.0,0.0,0.0,0.0,0.0,0.0,0.0,0.0,0.0,0.0,0.0,0.0,0.0,0.0,0.0,0.0,0.0,0.0,0.0,0.0,0.0,0.0,0.0,0.0,0.0,0.0,0.0,0.0,0.0,0.0,0.0,0.0,0.0,0.0,0.0,0.0,0.0,0.0,0.0,0.0,0.0,0.0,0.0,0.0,0.0,0.0,0.0,0.0,0.0,0.0,0.0,0.0,0.0,0.0,0.0,0.0,0.0,0.0,0.0,0.0,0.0,0.0,0.0,0.0,0.0,0.0,0.0,0.0,0.0,0.0,0.0,0.0,0.0,0.0,0.0,0.0,0.0,0.0,0.0,0.0,0.0,0.0,0.0,0.0,0.0,0.0,0.0,0.0,0.0,0.0,0.0,0.0,0.0,0.0,0.0,0.0,0.0,0.0,0.0,0.0,0.0,0.0,0.0,0.0,0.0,0.0,0.0,0.0,0.0,0.0,0.0,0.0,0.0,0.0,0.0,0.0,0.0,0.0,0.0,0.0,0.0,0.0,0.0,0.0,0.0,0.0,0.0,0.0,0.0,0.0,0.0,0.0,0.0,0.0,0.0,0.0,0.0,0.0,0.0,0.0,0.0,0.0,0.0,0.0,0.0,0.0,0.0,0.0,0.0,0.0,0.0,0.0,0.0,0.0,0.0,0.0,0.0,0.0,0.0,0.0,0.0,0.0,0.0,0.0,0.0,0.0,0.0,0.0,0.0,0.0,0.0,0.0,0.0,0.0,0.0,0.0,0.0,0.0,0.0,0.0,0.0,0.0,0.0,0.0,0.0,0.0,0.0,0.0,0.0,0.0,0.0,0.0,0.0,0.0,0.0,0.0,0.0,0.0,0.0,0.0,0.0,0.0,0.0,0.0,0.0,0.0,0.0,0.0,0.0,0.0,0.0,0.0,0.0,0.0,0.0,0.0,0.0,0.0,0.0,0.0,0.0,0.0,0.0,0.0,0.0,0.0,0.0,0.0,0.0,0.0,0.0,0.0,0.0,0.0,0.0,0.0,0.0,0.0,0.0,0.0,0.0,0.0,0.0,0.0,0.0,0.0,0.0,0.0,0.0,0.0,0.0,0.0,0.0,0.0,0.0,0.0,0.0,0.0,0.0,0.0,0.0,0.0,0.0,0.0,0.0,0.0,0.0,0.0,0.0,0.0,0.0,0.0,0.0,0.0,0.0,0.0,0.0,0.0,0.0,0.0,0.0,0.0,0.0,0.0,0.0,0.0,0.0,0.0,0.0,0.0,0.0,0.0,0.0,0.0,0.0,0.0,0.0,0.0,0.0,0.0,0.0,0.0,0.0,0.0,0.0,0.0,0.0,0.0,0.0,0.0,0.0,0.0,0.0,0.0,0.0,0.0,0.0,0.0,0.0,0.0,0.0,0.0,0.0,0.0,0.0,0.0,0.0,0.0,0.0,0.0,0.0,0.0,0.0,0.0,0.0,0.0,0.0,0.0,0.0,0.0,0.0,0.0,0.0,0.0,0.0,0.0,0.0,0.0,0.0,0.0,0.0,0.0,0.0,0.0,0.0,0.0,0.0,0.0,0.0,0.0,0.0,0.0,0.0,0.0,0.0,0.0,0.0,0.0,0.0,0.0,0.0,0.0,0.0,0.0,0.0,0.0,0.0,0.0,0.0,0.0,0.0,0.0,0.0,0.0,0.0,0.0,0.0,0.0,0.0,0.0,0.0,0.0,0.0,0.0,0.0,0.0,0.0,0.0,0.0,0.0,0.0,0.0,0.0,0.0,0.0,0.0,0.0,0.0,0.0,0.0,0.0,0.0,0.0,0.0,0.0,0.0,0.0,0.0,0.0,0.0,0.0,0.0,0.0,0.0,0.0,0.0,0.0,0.0,0.0,0.0,0.0,0.0,0.0,0.0,0.0,0.0,0.0,0.0,0.0,0.0,0.0,0.0,0.0,0.0,0.0,0.0,0.0,0.0,0.0,0.0,0.0,0.0,0.0,0.0,0.0,0.0,0.0,0.0,0.0,0.0,0.0,0.0,0.0,0.0,0.0,0.0,0.0,0.0,0.0,0.0,0.0,0.0,0.0,0.0,0.0,0.0,0.0,0.0,0.0,0.0,0.0,0.0,0.0,0.0,0.0,0.0,0.0,0.0,0.0,0.0,0.0,0.0,0.0,0.0,0.0,0.0,0.0,0.0,0.0,0.0,0.0,0.0,0.0,0.0,0.0,0.0,0.0,0.0,0.0,0.0,0.0,0.0,0.0,0.0,0.0,0.0,0.0,0.0,0.0,0.0,0.0,0.0,0.0,0.0,0.0,0.0,0.0,0.0,0.0,0.0,0.0,0.0,0.0,0.0,0.0,0.0,0.0,0.0,0.0,0.0,0.0,0.0,0.0,0.0,0.0,0.0,0.0,0.0,0.0,0.0,0.0,0.0,0.0,0.0,0.0,0.0,0.0,0.0,0.0,0.0,0.0,0.0,0.0,0.0,0.0,0.0,0.0,0.0,0.0,0.0,0.0,0.0,0.0,0.0,0.0,0.0,0.0,0.0,0.0,0.0,0.0,0.0,0.0,0.0,0.0,0.0,0.0,0.0,0.0,0.0,0.0,0.0,0.0,0.0,0.0,0.0,0.0,0.0,0.0,0.0,0.0,0.0,0.0,0.0,0.0,0.0,0.0,0.0,0.0,0.0,0.0,0.0,0.0,0.0,0.0,0.0,0.0,0.0,0.0,0.0,0.0,0.0,0.0,0.0,0.0,0.0,0.0,0.0,0.0,0.0,0.0,0.0,0.0,0.0,0.0,0.0,0.0,0.0,0.0,0.0,0.0,0.0,0.0,0.0,0.0,0.0,0.0,0.0,0.0,0.0,0.0,0.0,0.0,0.0,0.0,0.0,0.0,0.0,0.0,0.0,0.0,0.0,0.0,0.0,0.0,0.0,0.0,0.0,0.0,0.0,0.0,0.0,0.0,0.0,0.0,0.0,0.0,0.0,0.0,0.0,0.0,0.0,0.0,0.0,0.0,0.0,0.0,0.0,0.0,0.0,0.0,0.0,0.0,0.0,0.0,0.0,0.0,0.0,0.0,0.0,0.0,0.0,0.0,0.0,0.0,0.0,0.0,0.0,0.0,0.0,0.0,0.0,0.0,0.0,0.0,0.0,0.0,0.0,0.0,0.0,0.0,0.0,0.0,0.0,0.0,0.0,0.0,0.0,0.0,0.0,0.0,0.0,0.0,0.0,0.0,0.0,0.0,0.0,0.0,0.0,0.0,0.0,0.0,0.0,0.0,0.0,0.0,0.0,0.0,0.0,0.0,0.0,0.0,0.0,0.0,0.0,0.0,0.0,0.0,0.0,0.0,0.0,0.0,0.0,0.0,0.0,0.0,0.0,0.0,0.0,0.0,0.0,0.0,0.0,0.0,0.0,0.0,0.0,0.0,0.0,0.0,0.0,0.0,0.0,0.0,0.0,0.0,0.0,0.0,0.0,0.0,0.0,0.0,0.0,0.0,0.0,0.0,0.0,0.0,0.0,0.0,0.0,0.0,0.0,0.0,0.0,0.0,0.0,0.0,0.0,0.0,0.0,0.0,0.0,0.0,0.0,0.0,0.0,0.0,0.0,0.0,0.0,0.0,0.0,0.0,0.0,0.0,0.0,0.0,0.0,0.0,0.0,0.0,0.0,0.0,0.0,0.0,0.0,0.0,0.0,0.0,0.0,0.0,0.0,0.0,0.0,0.0,0.0,0.0,0.0,0.0,0.0,0.0,0.0,0.0,0.0,0.0,0.0,0.0,0.0,0.0,0.0,0.0,0.0,0.0,0.0,0.0,0.0,0.0,0.0,0.0,0.0,0.0,0.0,0.0,0.0,0.0,0.0,0.0,0.0,0.0,0.0,0.0,0.0,0.0,0.0,0.0,0.0,0.0,0.0,0.0,0.0,0.0,0.0,0.0,0.0,0.0,0.0,0.0,0.0,0.0,0.0,0.0,0.0,0.0,0.0,0.0,0.0,0.0,0.0,0.0,0.0,0.0,0.0,0.0,0.0,0.0,0.0,0.0,0.0,0.0,0.0,0.0,0.0,0.0,0.0,0.0,0.0,0.0,0.0,0.0,0.0,0.0,0.0,0.0,0.0,0.0,0.0,0.0,0.0,0.0,0.0,0.0,0.0,0.0,0.0,0.0,0.0,0.0,0.0,0.0,0.0,0.0,0.0,0.0,0.0,0.0,0.0,0.0,0.0,0.0,0.0,0.0,0.0,0.0,0.0,0.0,0.0,0.0,0.0,0.0,0.0,0.0,0.0,0.0,0.0,0.0,0.0,0.0,0.0,0.0,0.0,0.0,0.0,0.0,0.0,0.0,0.0,0.0,0.0,0.0,0.0,0.0,0.0,0.0,0.0,0.0,0.0,0.0,0.0,0.0,0.0,0.0,0.0,0.0,0.0,0.0,0.0,0.0,0.0,0.0,0.0,0.0,0.0,0.0,0.0,0.0,0.0,0.0,0.0,0.0,0.0,0.0,0.0,0.0,0.0,0.0,0.0,0.0,0.0,0.0,0.0,0.0,0.0,0.0,0.0,0.0,0.0,0.0,0.0,0.0,0.0,0.0,0.0,0.0,0.0,0.0,0.0,0.0,0.0,0.0,0.0,0.0,0.0,0.0,0.0,0.0,0.0,0.0,0.0,0.0,0.0,0.0,0.0,0.0,0.0,0.0,0.0,0.0,0.0,0.0,0.0,0.0,0.0,0.0,0.0,0.0,0.0,0.0,0.0,0.0,0.0,0.0,0.0,0.0,0.0,0.0,0.0,0.0,0.0,0.0,0.0,0.0,0.0,0.0,0.0,0.0,0.0,0.0,0.0,0.0,0.0,0.0,0.0,0.0,0.0,0.0,0.0,0.0,0.0,0.0,0.0,0.0,0.0,0.0,0.0,0.0,0.0,0.0,0.0,0.0,0.0,0.0,0.0,0.0,0.0,0.0,0.0,0.0,0.0,0.0,0.0,0.0,0.0,0.0,0.0,0.0,0.0,0.0,0.0,0.0,0.0,0.0,0.0,0.0,0.0,0.0,0.0,0.0,0.0,0.0,0.0,0.0,0.0,0.0,0.0,0.0,0.0,0.0,0.0,0.0,0.0,0.0,0.0,0.645,0.0,0.0,0.0,0.0,0.0,0.0,0.0,0.0,0.0,0.0,0.0,0.0,0.0,0.0,0.0,0.0,0.0,0.0,0.0,0.0,0.0,0.0,0.0,0.0,0.0,0.0,0.0,0.0,0.0,0.0,0.0,0.0,0.0,0.0,0.0,0.0,0.0,0.0,0.0,0.9187,1.0871,1.2871,1.3061,1.3086,1.2946,0.0,0.0,0.0,0.0,0.0,0.0,0.0,0.0,0.0,0.0,0.0,0.0,0.0,0.0,0.0,0.0,0.0,0.0,0.0,0.0,0.0,0.0,0.0,0.0,0.0,0.0,0.0,0.0,0.0,0.0,0.0,0.0,0.0,0.0,0.0,0.0,0.0,0.0,0.0,0.0,0.0,0.0,0.0,0.0,0.0,0.0,0.0,0.0,0.0,0.0,0.0,0.0,0.0,0.0,0.0,0.0,0.0,0.0,0.0,0.0,0.0,0.0,0.0,0.0,0.0,0.0,0.0,0.0,0.0,0.0,0.0,0.6474,0.0,0.0,0.0,0.0,0.0,0.0,0.0,0.0,0.0,0.0,0.0,0.0,0.0,0.0,0.0,0.0,0.0,0.0,0.0,0.0,0.0,0.0,0.0,0.0,0.0,0.0,0.0,0.0,0.0,0.0,0.0,0.0,0.0,0.0,0.0,0.0,0.0,0.0,0.992,1.179,1.3666,1.4111,1.4182,1.3893,1.3553,0.0,0.0,0.0,0.0,0.0,0.0,0.0,0.0,0.0,0.0,0.0,0.0,0.0,0.0,0.0,0.0,0.0,0.0,0.0,0.0,0.0,0.0,0.0,0.0,0.0,0.0,0.0,0.0,0.0,0.0,0.0,0.0,0.0,0.0,0.0,0.0,0.0,0.0,0.0,0.0,0.0,0.0,0.0,0.0,0.0,0.0,0.0,0.0,0.0,0.0,0.0,0.0,0.0,0.0,0.0,0.0,0.0,0.0,0.0,0.0,0.0,0.0,0.0,0.6634,0.6637,0.6661,0.6634,0.6569,0.6511,0.6484,0.6422,0.6344,0.0,0.0,0.0,0.0,0.0,0.0,0.0,0.0,0.0,0.0,0.0,0.0,0.0,0.0,0.0,0.0,0.0,0.0,0.0,0.0,0.0,0.0,0.0,0.0,0.0,0.0,0.0,0.0,0.0,0.0,0.0,0.0,0.0,0.0,0.7513,0.8086,0.8329,1.1229,1.2383,1.1874,1.417,1.5204,1.5144,1.4596,1.4349,1.4349,0.0,0.0,0.0,0.0,0.0,0.0,0.0,0.0,0.0,0.0,0.0,0.0,0.0,0.0,0.0,0.0,0.0,0.0,0.0,0.0,0.0,0.0,0.0,0.0,0.0,0.0,0.0,0.0,0.0,0.0,0.0,0.0,0.0,0.0,0.0,0.0,0.0,0.0,0.0,0.0,0.0,1.1854,1.3041,0.0,0.0,0.0,0.0,0.0,0.0,0.0,0.0,0.0,0.0,0.0,0.0,0.0,0.6739,0.6702,0.6569,0.6542,0.6542,0.6416,0.6422,0.6538,0.6416,0.6416,0.6504,0.6381,0.0,0.6484,0.6504,0.0,0.0,0.0,0.0,0.0,0.0,0.0,0.0,0.0,0.0,0.0,0.0,0.0,0.0,0.0,0.0,0.0,0.0,0.0,0.0,0.0,0.0,0.0,0.0,0.0,0.0,0.0,0.0,0.0,0.0,0.0,0.0,0.6702,0.7282,0.8098,0.9187,1.1272,1.2461,1.2875,1.4756,1.5638,1.5625,1.5371,1.5077,1.477,1.477,0.0,0.0,0.0,0.0,0.0,0.0,0.0,0.0,0.0,0.0,0.0,0.0,0.0,0.0,0.0,0.0,0.0,0.0,0.0,0.0,0.0,0.0,0.0,0.0,0.0,0.0,0.0,0.0,0.0,0.0,0.0,0.0,0.0,0.0,0.0,0.0,0.0,0.0,0.0,1.1153,1.121,1.2322,1.2438,1.2107,0.0,0.0,0.0,0.0,0.0,0.0,0.0,0.0,0.0,0.7567,0.7155,0.6868,0.6702,0.6634,0.66,0.66,0.6536,0.6539,0.66,0.6536,0.6542,0.6597,0.6536,0.6542,0.6593,0.6549,0.6586,0.6773,0.0,0.0,0.0,0.0,0.6854,0.6776,0.0,0.0,0.0,0.0,0.0,0.0,0.0,0.0,0.0,0.0,0.0,0.0,0.0,0.0,0.0,0.6814,0.0,0.0,0.0,0.0,0.0,0.0,0.0,0.6814,0.6814,0.7061,0.7894,0.9288,1.101,1.2443,1.3542,1.5229,1.6052,1.6052,1.5979,1.5658,1.5177,1.5149,1.4943,1.475,0.0,0.0,0.0,0.0,0.0,0.0,0.0,0.0,0.0,0.0,0.0,0.0,0.0,0.0,0.0,0.0,0.0,0.0,0.0,0.0,0.0,0.0,0.0,0.0,0.0,0.0,0.0,0.0,0.0,0.0,0.0,0.0,0.0,0.0,0.0,0.0,0.0,1.093,1.1103,1.1763,1.2975,1.3058,0.0,0.0,0.0,0.0,0.0,0.0,0.9542,0.8729,0.8154,0.781,0.7332,0.6937,0.6759,0.6797,0.6814,0.6814,0.6814,0.6834,0.6871,0.6831,0.6834,0.6868,0.6793,0.6759,0.6749,0.6593,0.6552,0.66,0.6715,0.6759,0.6756,0.6715,0.6675,0.662,0.0,0.0,0.0,0.0,0.0,0.0,0.0,0.0,0.0,0.0,0.0,0.0,0.0,0.0,0.7071,0.7071,0.7088,0.7038,0.0,0.0,0.0,0.0,0.0,0.7071,0.7071,0.7421,0.7702,0.7904,1.0905,1.2403,1.2518,1.5364,1.666,1.6653,1.6373,1.6079,1.5718,1.5491,1.5364,1.5304,1.4763,0.0,0.0,0.0,0.0,0.0,0.0,0.0,0.0,0.0,0.0,0.0,0.0,0.0,0.0,0.0,0.0,0.0,0.0,0.0,0.0,0.0,0.0,0.0,0.0,0.0,0.0,0.0,0.0,0.0,0.0,0.0,0.0,0.0,0.0,0.0,0.0,0.0,0.0,1.1775,1.2376,0.0,0.0,0.0,0.0,1.2657,1.1435,1.0274,0.9209,0.787,0.7047,0.6791,0.6854,0.6889,0.6876,0.7007,0.7071,0.7071,0.7071,0.7197,0.7378,0.7183,0.72,0.7368,0.7041,0.6873,0.6862,0.6753,0.6773,0.6862,0.6873,0.6873,0.6856,0.6756,0.661,0.6504,0.0,0.0,0.0,0.0,0.0,0.0,0.0,0.0,0.0,0.0,0.0,0.0,0.0,0.7143,0.7434,0.7434,0.7564,0.7607,0.7506,0.0,0.0,0.0,0.0,0.7189,0.7431,0.7634,0.7858,0.8106,1.0054,1.1488,1.2588,1.4404,1.5777,1.67,1.66,1.6393,1.6092,1.5798,1.5565,1.5398,1.5371,1.5251,0.0,0.0,0.0,0.0,0.0,0.0,0.0,0.0,0.0,0.0,0.0,0.0,0.0,0.0,0.0,0.0,0.0,0.0,0.0,0.0,0.0,0.0,0.0,0.0,0.0,0.0,0.0,0.0,0.0,0.0,0.0,0.0,0.0,0.0,0.0,0.0,0.0,1.1828,1.2905,0.0,1.2502,1.3313,1.3568,1.2742,1.2636,1.2523,1.2345,1.1309,1.0698,1.0628,0.93,0.8558,0.8558,0.7812,0.7434,0.7434,0.7434,0.7465,0.7516,0.7461,0.7465,0.7512,0.7407,0.736,0.7356,0.7302,0.7082,0.678,0.678,0.678,0.6776,0.6719,0.6664,0.6614,0.0,0.0,0.0,0.0,0.0,0.0,0.0,0.0,0.0,0.0,0.0,0.6888,0.6993,0.7448,0.7746,0.7746,0.7877,0.7904,0.7753,0.0,0.0,0.0,0.7322,0.7438,0.7743,0.7841,0.8038,0.8391,1.0219,1.169,1.276,1.4659,1.6061,1.7001,1.6901,1.6747,1.6603,1.6253,1.5899,1.5551,1.5645,1.5571,1.5351,0.0,0.0,0.0,0.0,0.0,0.0,0.0,0.0,0.0,0.0,0.0,0.0,0.0,0.0,0.0,0.0,0.0,0.0,0.0,0.0,0.0,0.0,0.0,0.0,0.0,0.0,0.0,0.0,0.0,0.0,0.0,0.0,0.0,0.0,0.0,1.2233,1.2287,1.3254,1.3638,1.2933,1.3698,1.3646,1.2254,1.2984,1.3212,1.2592,1.1999,1.1673,1.1673,0.9886,0.8918,0.8918,0.8141,0.7746,0.7746,0.7746,0.7746,0.7746,0.7746,0.7746,0.7746,0.7692,0.7672,0.7665,0.7617,0.7363,0.6993,0.6888,0.682,0.677,0.6719,0.6702,0.6702,0.0,0.0,0.0,0.0,0.0,0.0,0.0,0.0,0.0,0.0,0.6913,0.7213,0.7567,0.7816,0.7988,0.7988,0.7988,0.7867,0.7628,0.76,0.0,0.0,0.0,0.0,0.7982,0.7998,0.8197,0.8489,1.1458,1.2978,1.3094,1.6098,1.7582,1.7569,1.734,1.7206,1.7186,1.684,1.6386,1.5784,1.5545,1.5418,1.5344,0.0,0.0,0.0,0.0,0.0,0.0,0.0,0.0,0.0,0.0,0.0,0.0,0.0,0.0,0.0,0.0,0.0,0.0,0.0,0.0,0.0,0.0,0.0,0.0,0.0,0.0,0.0,0.0,0.0,0.0,0.0,0.0,0.0,1.3626,1.362,1.3458,1.3099,1.3408,1.3606,1.3472,1.4084,1.3661,1.1599,1.258,1.221,0.9811,0.9718,0.9718,0.9718,0.8589,0.8007,0.8007,0.8062,0.8038,0.8038,0.8038,0.7988,0.7988,0.7988,0.7988,0.7982,0.7882,0.7818,0.7807,0.7672,0.7614,0.7584,0.723,0.7024,0.6889,0.6783,0.6729,0.6729,0.0,0.0,0.0,0.0,0.0,0.0,0.0,0.0,0.0,0.0,0.6913,0.7213,0.7567,0.7816,0.7988,0.7988,0.7988,0.7911,0.7767,0.0,0.0,0.0,0.0,0.0,0.7988,0.8248,0.8455,0.8648,1.0535,1.2056,1.3281,1.5115,1.6605,1.7582,1.7502,1.74,1.7199,1.7112,1.6814,1.644,1.6146,1.5905,1.5671,0.0,0.0,0.0,0.0,0.0,0.0,0.0,0.0,0.0,0.0,0.0,0.0,0.0,0.0,0.0,0.0,0.0,0.0,0.0,0.0,0.0,0.0,0.0,0.0,0.0,0.0,0.0,0.0,0.0,0.0,0.0,0.0,1.4233,1.4233,1.4102,1.4001,1.4088,1.439,1.459,1.4579,1.4751,1.4687,1.4314,1.4615,1.456,1.4086,1.4051,1.4051,1.4051,1.2863,1.2224,1.2224,1.0356,0.946,0.946,0.8482,0.7988,0.7988,0.7988,0.7988,0.7988,0.7944,0.7928,0.7924,0.7884,0.787,0.784,0.759,0.7448,0.7411,0.737,0.7353,0.7336,0.0,0.0,0.0,0.0,0.0,0.0,0.0,0.0,0.0,0.0,0.6991,0.726,0.7736,0.7887,0.7988,0.7988,0.7988,0.7924,0.7821,0.0,0.0,0.0,0.0,0.8194,0.8268,0.8489,0.8652,0.8804,1.0247,1.1477,1.2403,1.4449,1.5849,1.6711,1.7312,1.7488,1.738,1.738,1.7213,1.6874,1.6757,1.6386,1.5979,1.5691,1.5504,1.5357,1.5115,1.5008,1.4981,1.4763,0.0,0.0,0.0,0.0,0.0,0.0,0.0,0.0,0.0,0.0,0.0,0.0,0.0,0.0,0.0,0.0,0.0,0.0,0.0,0.0,0.0,0.0,0.0,0.0,1.4703,1.475,1.487,1.4636,1.4563,1.4856,1.5044,1.529,1.5531,1.5558,1.5437,1.5188,1.5652,1.5772,1.5388,1.5395,1.5395,1.5395,1.4103,1.3457,1.3457,1.137,1.0276,1.0276,0.8874,0.8225,0.8225,0.8163,0.8136,0.0,0.8019,0.7988,0.7988,0.7988,0.7988,0.0,0.0,0.0,0.0,0.0,0.76,0.7587,0.0,0.0,0.0,0.0,0.0,0.0,0.0,0.0,0.0,0.0,0.0,0.7324,0.7924,0.7988,0.7988,0.7988,0.7975,0.7901,0.0,0.0,0.0,0.7982,0.8204,0.8425,0.8706,0.8726,0.8804,0.8885,1.0366,1.1139,1.119,1.3894,1.5244,1.5517,1.6783,1.7417,1.7582,1.7582,1.7435,1.7253,1.7253,1.6898,1.6293,1.5992,1.5718,1.5458,1.5209,1.5109,1.5102,1.5068,0.0,0.0,0.0,0.0,0.0,0.0,0.0,0.0,0.0,0.0,0.0,0.0,0.0,0.0,0.0,0.0,0.0,0.0,0.0,0.0,0.0,0.0,0.0,0.0,1.5075,1.5169,1.5451,1.5323,1.5249,1.5464,1.5498,1.5712,1.6266,1.6375,1.5969,1.5091,1.6035,1.6192,1.5052,0.0,0.0,0.0,0.0,1.3171,1.2966,1.1625,1.085,1.0642,0.9205,0.8482,0.8479,0.835,0.8347,0.8337,0.815,0.8029,0.8015,0.8015,0.8005,0.7975,0.7889,0.7838,0.7821,0.7695,0.7648,0.7648,0.0,0.0,0.0,0.0,0.0,0.0,0.0,0.0,0.0,0.7018,0.7095,0.7324,0.7924,0.7988,0.7988,0.7988,0.7877,0.7794,0.0,0.0,0.7879,0.7982,0.8299,0.8526,0.8706,0.8832,0.8854,0.8885,1.0481,1.1265,1.1321,1.3036,1.4472,1.5674,1.5785,1.6499,1.7582,1.7582,1.7549,1.7502,1.7502,1.7148,1.6587,1.6299,1.6152,1.6066,1.5765,1.5665,1.5625,1.5391,1.5311,1.5271,1.5082,0.0,0.0,0.0,0.0,0.0,0.0,0.0,0.0,0.0,0.0,0.0,0.0,0.0,0.0,0.0,0.0,0.0,0.0,0.0,0.0,1.5625,1.5464,1.5498,1.6025,1.61,1.6087,1.6099,1.6154,1.6239,1.6587,1.662,1.654,1.6343,1.655,1.66,1.6343,1.6343,0.0,1.6343,1.6085,1.5368,1.4185,1.2905,1.162,1.0439,0.0,0.0,0.8479,0.8455,0.8442,0.8438,0.8408,0.8333,0.8225,0.8225,0.815,0.7985,0.7958,0.7944,0.7941,0.7914,0.7904,0.7887,0.0,0.0,0.0,0.0,0.0,0.0,0.0,0.0,0.0,0.0,0.6919,0.7119,0.7648,0.7706,0.7736,0.7814,0.7814,0.0,0.0,0.7845,0.8024,0.8252,0.8401,0.8587,0.8818,0.8844,0.8885,0.8885,0.9721,1.0088,1.0143,1.1627,1.3108,1.4522,1.5148,1.6227,1.7582,1.7582,1.7582,1.7582,1.7582,1.7408,1.7114,1.6871,1.6576,1.6301,1.6106,1.5952,1.5758,1.5665,1.5611,1.5585,1.5444,1.5398,1.5364,0.0,0.0,0.0,0.0,0.0,0.0,0.0,0.0,0.0,0.0,0.0,0.0,0.0,0.0,1.5398,0.0,0.0,1.5611,1.5611,1.5738,1.5939,1.6281,1.64,1.6486,1.6486,1.6486,1.6607,1.6901,1.6927,1.6987,1.7134,1.7141,1.7141,1.7141,1.7141,1.7141,1.7141,1.7141,1.6774,1.6033,1.4665,1.3294,1.1827,1.0453,0.9398,0.871,0.8632,0.8598,0.8591,0.8516,0.8442,0.837,0.835,0.818,0.7988,0.7988,0.7988,0.7988,0.7988,0.7988,0.7978,0.0,0.0,0.0,0.0,0.0,0.0,0.0,0.0,0.0,0.0,0.693,0.7158,0.7371,0.7622,0.7816,0.0,0.0,0.0,0.0,0.8034,0.8174,0.8469,0.8482,0.8625,0.8875,0.8885,0.8885,0.8885,0.9238,0.9362,0.9418,1.089,1.2356,1.3818,1.49,1.6227,1.7582,1.7582,1.7582,1.7582,1.7582,1.7582,1.7549,1.7313,1.6871,1.6346,1.6342,1.6079,1.5784,1.5784,1.5784,1.5784,1.5784,1.5784,1.5785,1.5545,1.5311,0.0,0.0,0.0,0.0,0.0,0.0,0.0,0.0,0.0,1.5384,1.5324,1.5545,1.5671,1.5438,1.5685,1.5838,1.5605,1.6012,1.638,1.6482,1.664,1.6814,1.6867,1.6827,1.6907,1.7259,1.7286,1.738,1.7562,1.7582,1.7582,1.7582,1.7582,1.7582,1.7582,1.7582,1.7477,1.7206,1.6009,1.4716,1.3264,1.2077,1.0891,0.975,0.9345,0.9179,0.9118,0.8697,0.8526,0.8565,0.8646,0.8447,0.8082,0.8297,0.8233,0.7988,0.7988,0.7988,0.7988,0.0,0.0,0.0,0.0,0.0,0.0,0.0,0.0,0.0,0.0,0.0,0.0,0.0,0.0,0.0,0.0,0.0,0.0,0.9062,0.8407,0.8174,0.8469,0.8482,0.8625,0.8875,0.8885,0.8885,0.8885,1.0329,1.1007,1.1063,1.2566,1.4009,1.5436,1.5415,1.6227,1.7582,1.7582,1.7582,1.7582,1.7582,1.7582,1.7549,1.7313,1.6991,1.662,1.6366,1.6079,1.5784,1.5784,1.5784,1.5784,1.5784,1.5784,1.5771,1.5744,0.0,1.5738,1.5772,1.5732,1.5631,1.5404,1.5538,1.5598,0.0,0.0,1.5324,1.5109,1.5244,1.5438,1.5404,1.5852,1.6213,1.6179,1.6446,1.6754,1.7065,1.7132,1.7246,1.7455,1.7306,1.7266,1.7508,1.7535,1.7549,1.7582,1.7582,1.7582,1.7582,1.7582,1.7582,1.7582,1.7582,1.6982,1.5689,1.547,1.4716,1.3318,1.3107,1.2994,1.2778,1.1461,1.0803,1.074,0.9284,0.8682,0.8766,0.965,0.9306,0.8384,0.9375,0.9069,0.7988,0.7988,0.7988,0.7988,0.0,0.0,0.0,0.0,0.0,0.0,0.0,0.0,0.0,0.0,0.0,0.0,0.0,0.0,0.0,0.0,0.0,0.0,0.8294,0.8115,0.8136,0.835,0.836,0.8499,0.8801,0.8804,0.8849,0.8885,1.0418,1.116,1.1215,1.2695,1.4168,1.5528,1.5464,1.6227,1.7582,1.7582,1.7582,1.7582,1.7582,1.7534,1.7367,1.7246,1.6911,1.644,1.6319,1.6079,0.0,0.0,1.5784,1.5784,1.5784,1.5784,1.5784,1.5784,1.5712,0.0,1.5371,1.5451,0.0,0.0,1.5484,1.5558,1.5484,1.5565,1.5665,1.5765,1.5872,1.5959,1.6126,1.6359,1.6526,0.0,1.6774,1.7058,1.7186,1.7347,1.7442,1.7569,1.7475,1.7501,1.7569,1.7582,1.7582,1.7582,1.7582,1.7582,1.7582,1.7582,1.7582,1.7582,1.7582,1.7312,1.6717,1.6658,1.5956,1.4502,1.4502,1.4073,1.327,1.267,1.2403,1.229,1.0753,1.0074,0.9968,0.9512,0.9338,0.9458,0.9933,1.0186,1.0096,0.8577,0.7988,0.7988,0.0,0.0,0.0,0.0,0.0,0.0,0.0,0.0,0.0,0.0,0.0,0.0,0.0,0.0,0.0,0.0,0.0,0.0,0.0,0.8646,0.8748,0.8313,0.8619,0.8743,0.8642,0.8962,0.923,0.9294,1.1216,1.2156,1.221,1.3772,1.5043,1.6009,1.6009,1.6605,1.7582,1.7495,1.7514,1.7455,1.7375,1.7215,1.7065,1.6991,1.669,1.6321,1.6321,1.6079,0.0,0.0,1.5784,1.5784,1.5784,1.5784,1.5784,1.5784,1.5678,1.5471,1.5257,0.0,0.0,1.5618,1.5638,1.5712,1.6005,1.6072,1.6132,1.6346,1.6393,1.646,1.6667,1.6774,1.6827,1.6827,1.7074,1.732,1.732,1.7501,1.7582,1.7582,1.7582,1.7582,1.7582,1.7582,1.7582,1.7582,1.7582,1.7582,1.7582,1.7582,1.7582,1.7582,1.7582,1.7582,1.7582,1.7582,1.7041,1.6009,1.6009,1.547,1.4449,1.4073,1.3642,1.3264,1.2186,1.1675,1.1478,1.0741,1.0427,1.0382,1.108,1.134,1.117,0.9653,0.8871,0.8482,0.0,0.0,0.0,0.0,0.0,0.0,0.0,0.0,0.0,0.0,0.0,0.0,0.0,0.0,0.0,0.0,0.0,0.0,0.0,1.0594,1.0462,0.8408,0.9466,0.9646,0.8538,0.9727,1.0352,1.0356,1.3409,1.4891,1.4897,1.6642,1.7477,1.7529,1.7529,1.7582,1.7562,1.7333,1.7213,1.7186,1.6847,1.6727,1.6687,1.6406,1.6335,1.6321,1.6321,0.0,0.0,1.5784,1.5784,1.5784,1.5784,1.5784,0.0,1.5784,1.5771,0.0,0.0,0.0,1.5885,1.6172,1.6246,1.6319,1.6613,1.668,1.668,1.6693,1.6693,1.6693,1.6707,1.6991,1.7186,1.7186,1.7434,1.7569,1.7569,1.7575,1.7582,1.7582,1.7582,1.7582,0.0,1.7582,1.7582,1.7582,1.7582,1.7582,1.7582,1.7582,1.7582,1.7582,1.7582,1.7582,1.7582,1.7582,1.7582,1.7529,1.7529,1.7523,1.7417,1.6009,1.4609,1.3318,1.3264,1.3205,1.3293,1.4348,1.3159,1.0922,1.3247,1.2472,1.0194,1.1361,1.1023,0.9752,0.0,0.0,0.0,0.0,0.0,0.0,0.0,0.0,0.0,0.0,0.0,0.0,0.0,0.0,0.0,0.0,0.0,0.0,0.0,0.9494,0.9481,1.0378,0.9331,0.9028,0.9595,0.92,0.9459,1.0391,1.2415,1.3848,1.4789,1.6279,1.7001,1.7001,1.7001,1.7001,1.6994,1.6894,1.6854,1.6847,1.6747,1.6587,1.6406,1.6306,1.6152,1.5979,0.0,0.0,0.0,1.5784,1.5784,1.5784,1.5784,1.5784,1.5784,1.5784,1.5784,1.5872,0.0,0.0,1.6192,1.6486,1.656,1.6587,1.6687,1.6707,1.676,1.7012,1.684,1.6767,1.7018,1.7132,1.7199,1.7199,1.7447,1.7582,1.7582,1.7582,1.7582,1.7582,1.7582,0.0,0.0,0.0,0.0,1.7582,1.7582,1.7582,1.7582,1.7582,1.7582,1.7582,1.7582,1.7582,1.7582,1.7582,1.7582,1.7582,1.7582,1.7582,1.7582,1.7094,1.6605,1.6121,1.5097,1.4716,1.4657,1.4094,1.3762,1.3522,1.3287,1.3607,1.3972,1.244,1.2183,1.228,0.0,0.0,0.0,0.0,0.0,0.0,0.0,0.0,0.0,0.0,0.0,0.0,0.0,0.0,0.0,0.0,0.0,0.0,0.0,0.0,1.0562,1.1335,1.0344,1.0069,1.0645,1.0317,1.0608,1.1654,1.3198,1.4362,1.5232,1.6247,1.6707,1.6707,1.6707,1.6707,1.67,1.6593,1.6553,1.6547,1.6433,1.6279,1.6112,1.6112,1.5999,0.0,0.0,0.0,1.5784,1.5784,1.5784,1.5784,1.5784,1.5784,1.5784,1.5784,1.5905,1.6032,1.6219,1.6346,1.65,1.6794,1.6867,1.6887,1.6994,1.7021,1.7074,1.7313,1.7119,1.6921,1.7166,1.7199,1.7166,1.7058,1.7293,1.7481,1.7481,1.7481,1.7468,1.7569,1.7582,0.0,0.0,0.0,0.0,1.7582,1.7582,1.7582,1.7582,1.7582,1.7582,1.7582,1.7582,1.7582,1.7582,1.7582,1.7582,1.7582,1.7582,1.7582,1.7582,1.7582,1.7582,1.7529,1.6605,1.6174,1.6121,1.5204,1.4953,1.5018,1.4333,1.4695,1.5377,1.3881,1.3836,1.422,0.0,0.0,0.0,0.0,0.0,0.0,0.0,0.0,0.0,0.0,0.0,0.0,0.0,0.0,0.0,0.0,0.0,0.0,0.0,0.0,0.0,1.138,1.2319,1.2476,1.1623,1.2725,1.3514,1.3855,1.5409,1.6204,1.6259,1.6533,1.666,1.666,1.666,1.666,1.6647,1.6366,1.6253,1.6274,1.5945,1.5784,1.5784,1.5784,0.0,0.0,0.0,0.0,0.0,0.0,0.0,0.0,0.0,1.5771,1.5784,1.5798,1.6052,1.6328,1.6362,1.652,1.68,1.7146,1.7226,1.7293,1.7522,1.7582,1.7582,1.7562,1.738,1.7172,0.0,0.0,1.7085,1.6747,1.6967,1.7226,1.7226,1.7226,1.7326,0.0,0.0,0.0,0.0,0.0,0.0,1.7582,0.0,1.7582,1.7582,1.7582,1.7582,1.7582,1.7582,1.7582,1.7582,1.7582,1.7582,1.7582,1.7582,1.7582,1.7582,1.7582,1.7582,1.7582,1.7582,1.7582,1.7582,1.7582,1.6676,1.5411,1.6258,1.5712,1.4544,1.5399,1.573,1.5439,0.0,0.0,0.0,0.0,0.0,0.0,0.0,0.0,0.0,0.0,0.0,0.0,0.0,0.0,0.0,0.0,0.0,0.0,0.0,0.0,0.0,0.0,0.0,0.0,0.0,0.0,0.0,1.3538,1.419,1.5009,1.5945,1.6019,1.6052,1.6052,1.6052,1.6052,1.5997,1.5972,1.5945,1.5939,0.0,1.5784,1.5784,0.0,0.0,0.0,0.0,0.0,0.0,0.0,0.0,0.0,0.0,1.5658,1.5872,1.6092,1.6213,1.6415,1.6857,1.7032,1.7159,1.7454,1.7521,1.7548,1.7562,1.7582,1.7522,1.7353,1.7027,1.6754,1.6583,0.0,0.0,1.6714,1.7134,0.0,1.7521,1.7521,0.0,1.7575,0.0,1.7582,1.7582,1.7582,0.0,0.0,1.7582,1.7582,1.7582,1.7582,1.7582,1.7582,1.7582,1.7582,1.7582,1.7582,1.7582,1.7582,1.7582,1.7582,1.7582,1.7582,1.7582,1.7582,1.7582,1.7582,1.7582,1.7582,1.7377,1.6885,1.5706,1.5632,1.5968,1.483,1.4997,1.5683,0.0,0.0,0.0,0.0,0.0,0.0,0.0,0.0,0.0,0.0,0.0,0.0,0.0,0.0,0.0,0.0,0.0,0.0,0.0,0.0,0.0,0.0,0.0,0.0,0.0,0.0,0.0,0.0,0.0,0.0,1.5784,1.5784,1.5784,1.5784,1.5784,1.5784,1.5784,1.5784,0.0,0.0,0.0,0.0,0.0,0.0,0.0,0.0,0.0,0.0,0.0,0.0,0.0,1.5611,1.5444,1.5591,1.5885,1.6186,0.0,1.656,1.7079,1.7293,1.7434,1.7542,1.7582,1.7549,1.7474,1.744,1.736,1.7014,1.672,0.0,1.6348,0.0,0.0,0.0,0.0,0.0,1.744,1.744,1.7494,0.0,1.7582,0.0,1.7582,1.7582,1.7582,0.0,1.7582,1.7582,1.7582,1.7582,1.7582,1.7582,1.7582,1.7582,1.7582,1.7582,1.7582,1.7582,1.7582,1.7582,1.7582,1.7582,1.7582,1.7582,0.0,1.7582,1.7582,1.7582,1.7582,1.7483,1.6285,1.6195,1.6547,1.5388,1.5297,1.5784,0.0,0.0,0.0,0.0,0.0,0.0,0.0,0.0,0.0,0.0,0.0,0.0,0.0,0.0,0.0,0.0,0.0,0.0,0.0,0.0,0.0,0.0,0.0,0.0,0.0,0.0,0.0,0.0,0.0,0.0,0.0,0.0,0.0,0.0,0.0,0.0,0.0,0.0,0.0,0.0,0.0,0.0,0.0,0.0,0.0,0.0,0.0,0.0,0.0,0.0,1.5202,1.5391,1.5351,1.5591,1.5945,1.6246,1.654,1.6827,1.7179,1.744,1.7582,1.7582,1.7582,1.7508,1.7266,1.7199,1.7105,1.672,0.0,1.6308,1.6219,1.6453,1.658,1.6366,0.0,1.7213,1.7253,1.7259,1.7353,1.7555,1.7582,1.7582,1.7582,1.7582,1.7582,1.7582,1.7582,1.7582,1.7582,1.7582,1.7582,1.7582,1.7582,1.7582,1.7582,1.7582,1.7582,1.7582,1.7582,1.7582,1.7582,1.7582,1.7582,1.7582,0.0,0.0,1.7582,1.7582,1.7582,1.7555,1.7313,1.7038,1.6727,1.64,1.6112,1.5879,0.0,0.0,0.0,0.0,0.0,0.0,0.0,0.0,0.0,0.0,0.0,0.0,0.0,0.0,0.0,0.0,0.0,0.0,0.0,0.0,0.0,0.0,0.0,0.0,0.0,0.0,0.0,0.0,0.0,0.0,0.0,0.0,0.0,0.0,0.0,0.0,0.0,0.0,0.0,0.0,0.0,0.0,0.0,0.0,0.0,0.0,0.0,0.0,0.0,0.0,1.5202,1.5351,1.5162,1.5618,1.6253,1.6547,1.684,1.7186,1.7428,1.7542,1.7582,1.7582,1.7582,1.7508,1.7266,1.7199,0.0,0.0,0.0,1.6199,1.5952,1.6152,0.0,1.66,0.0,0.0,0.0,0.0,1.7522,0.0,0.0,0.0,0.0,0.0,0.0,0.0,0.0,1.7582,1.7582,1.7582,1.7582,1.7582,1.7582,1.7582,1.7582,1.7582,1.7582,1.7582,1.7582,1.7582,1.7582,1.7582,1.7582,1.7582,1.7582,0.0,1.7582,1.7582,1.7582,1.7555,1.7313,1.7166,1.7058,1.6522,1.6239,1.6159,0.0,0.0,0.0,0.0,0.0,0.0,0.0,0.0,0.0,0.0,1.342,1.372,0.0,0.0,0.0,0.0,0.0,0.0,0.0,0.0,0.0,0.0,0.0,0.0,0.0,0.0,0.0,0.0,0.0,0.0,0.0,0.0,0.0,0.0,0.0,0.0,0.0,0.0,0.0,0.0,0.0,0.0,0.0,0.0,0.0,0.0,0.0,0.0,0.0,0.0,1.5284,1.5344,1.5102,1.5458,1.6132,1.6573,1.6807,1.7014,1.7462,1.7582,1.7582,1.7582,1.7582,1.7468,1.7021,0.0,0.0,0.0,0.0,1.5999,1.5804,0.0,0.0,0.0,0.0,0.0,0.0,0.0,0.0,0.0,0.0,0.0,0.0,0.0,0.0,0.0,0.0,1.7582,1.7582,1.7582,1.7582,1.7582,1.7582,1.7582,1.7582,1.7582,1.7582,1.7582,1.7582,1.7582,1.7582,1.7582,1.7582,1.7582,1.7582,0.0,1.7582,1.7582,1.7582,1.7569,1.7481,1.7333,1.7146,1.666,1.64,1.6226,0.0,0.0,0.0,0.0,0.0,0.0,0.0,1.2589,1.2898,1.3173,1.342,1.372,1.4055,1.4088,0.0,0.0,0.0,0.0,0.0,0.0,0.0,0.0,0.0,0.0,0.0,0.0,0.0,0.0,0.0,0.0,0.0,0.0,0.0,0.0,0.0,0.0,0.0,0.0,0.0,0.0,0.0,0.0,0.0,0.0,0.0,0.0,0.0,0.0,0.0,0.0,1.5438,1.5438,1.515,1.5458,1.6025,1.6553,1.6747,1.6914,1.7442,1.7582,1.7582,1.7582,1.7535,1.7355,1.6827,1.666,0.0,0.0,1.5784,1.5784,1.5784,0.0,0.0,0.0,0.0,0.0,0.0,0.0,0.0,0.0,0.0,0.0,0.0,0.0,0.0,0.0,0.0,0.0,1.7582,1.7582,1.7582,1.7582,1.7582,1.7582,1.7582,1.7582,1.7582,1.7582,1.7582,1.7582,1.7582,1.7582,1.7582,1.7582,1.7582,0.0,0.0,1.7582,1.7582,1.7582,1.7582,1.7494,1.7253,1.684,1.656,1.6313,0.0,0.0,0.0,0.0,0.0,0.0,0.0,1.2589,1.2898,1.3173,1.342,1.372,1.4055,1.4088,0.0,0.0,0.0,0.0,0.0,0.0,0.0,0.0,0.0,0.0,0.0,0.0,0.0,0.0,0.0,0.0,0.0,0.0,0.0,0.0,0.0,0.0,0.0,0.0,0.0,0.0,0.0,0.0,0.0,0.0,0.0,0.0,0.0,0.0,0.0,0.0,0.0,1.5738,1.5444,1.5758,1.6293,1.6613,0.0,0.0,1.7495,1.7582,1.7582,1.7582,1.7434,1.7152,1.678,0.0,0.0,1.5844,1.5784,1.5784,1.5784,1.5852,1.5959,0.0,0.0,0.0,0.0,0.0,0.0,0.0,0.0,0.0,0.0,0.0,0.0,0.0,0.0,0.0,1.7582,1.7582,1.7582,1.7582,1.7582,1.7582,1.7582,1.7582,1.7582,1.7582,1.7582,1.7582,1.7582,1.7582,1.7582,1.7582,1.7582,0.0,0.0,1.7582,1.7582,1.7582,1.7582,1.7562,1.7475,1.6914,1.6687,1.6587,0.0,0.0,0.0,0.0,0.0,0.0,0.0,1.2712,1.3073,1.3193,1.3621,1.3888,1.3828,1.378,1.3895,0.0,0.0,0.0,0.0,0.0,0.0,0.0,0.0,0.0,0.0,0.0,0.0,0.0,0.0,0.0,0.0,0.0,0.0,0.0,0.0,0.0,0.0,0.0,0.0,0.0,0.0,0.0,0.0,0.0,0.0,0.0,0.0,0.0,0.0,0.0,0.0,0.0,1.5691,1.5818,0.0,0.0,1.6526,1.6777,1.7246,1.7373,1.7373,1.7373,1.7286,1.7079,1.6553,0.0,1.6186,1.5892,1.5784,1.5784,1.5784,1.5784,1.5818,0.0,0.0,0.0,0.0,0.0,0.0,0.0,0.0,0.0,0.0,0.0,0.0,0.0,0.0,0.0,1.7582,1.7582,1.7582,1.7582,1.7582,1.7582,1.7582,1.7582,1.7582,1.7582,1.7582,1.7582,1.7582,1.7582,1.7582,1.7582,1.7582,0.0,0.0,1.7582,1.7582,1.7582,1.7582,1.7475,1.7326,1.6854,1.6593,1.6386,0.0,0.0,0.0,0.0,0.0,0.0,1.2418,1.2879,1.324,1.3327,1.3701,1.3874,1.3626,1.3527,1.3601,1.3808,0.0,0.0,0.0,0.0,0.0,0.0,0.0,0.0,0.0,0.0,0.0,0.0,0.0,0.0,0.0,0.0,0.0,0.0,0.0,0.0,0.0,0.0,0.0,0.0,0.0,0.0,0.0,0.0,0.0,0.0,0.0,0.0,0.0,0.0,0.0,0.0,0.0,0.0,0.0,0.0,1.6321,1.6429,1.6931,1.7072,1.7072,1.7072,1.7005,1.6831,0.0,0.0,1.6079,1.5872,1.5784,1.5784,1.5784,1.5784,1.5784,0.0,0.0,1.6172,0.0,0.0,0.0,0.0,0.0,0.0,0.0,0.0,0.0,0.0,0.0,0.0,0.0,1.7582,1.7582,1.7582,1.7582,1.7582,1.7582,1.7582,1.7582,1.7582,1.7582,1.7582,1.7582,1.7582,1.7582,1.7582,0.0,0.0,0.0,1.7582,1.7582,1.7582,1.7582,1.746,1.7166,1.6814,1.652,1.6226,0.0,0.0,0.0,0.0,0.0,0.0,0.0,1.3045,1.3313,1.356,1.36,1.3606,1.36,1.3347,1.322,1.322,0.0,0.0,0.0,0.0,0.0,0.0,0.0,0.0,0.0,0.0,0.0,1.5001,1.5251,0.0,0.0,0.0,0.0,0.0,0.0,0.0,0.0,0.0,0.0,0.0,0.0,0.0,0.0,0.0,0.0,0.0,0.0,0.0,0.0,0.0,0.0,0.0,0.0,0.0,0.0,0.0,1.6321,1.6339,1.6627,1.6707,1.6707,1.6707,1.6493,1.6328,0.0,0.0,1.5784,1.5784,1.5784,1.5784,1.5784,1.5784,1.5784,1.5784,1.5784,0.0,0.0,0.0,0.0,0.0,0.0,0.0,0.0,0.0,0.0,0.0,0.0,0.0,0.0,1.7582,1.7582,1.7582,1.7582,1.7582,1.7582,1.7582,1.7582,1.7582,1.7582,1.7582,1.7582,1.7582,1.7582,0.0,0.0,0.0,0.0,1.7582,1.7582,1.7582,1.7582,1.746,1.7166,1.6814,1.652,1.6226,0.0,0.0,0.0,0.0,0.0,0.0,0.0,1.2737,1.2965,1.3058,1.3213,1.3267,1.3053,1.2985,1.2931,1.2931,0.0,0.0,0.0,0.0,0.0,0.0,0.0,0.0,0.0,0.0,1.4119,1.4663,1.4957,1.5251,1.5538,0.0,0.0,0.0,0.0,0.0,0.0,0.0,0.0,0.0,0.0,0.0,0.0,0.0,0.0,0.0,0.0,0.0,0.0,0.0,0.0,0.0,0.0,0.0,0.0,1.5945,0.0,0.0,1.6326,1.6413,1.6413,1.6413,1.6339,1.6219,1.6019,0.0,1.5784,1.5784,1.5784,1.5784,1.5784,1.5784,1.5784,1.5784,1.5784,0.0,0.0,0.0,0.0,0.0,0.0,0.0,0.0,0.0,0.0,0.0,0.0,0.0,0.0,1.7582,1.7582,1.7582,1.7582,1.7582,1.7582,1.7582,1.7582,1.7582,1.7582,1.7582,1.7582,1.7582,0.0,0.0,0.0,0.0,0.0,1.7582,1.7582,1.7562,1.7414,1.7108,1.6807,1.652,1.6226,1.5952,0.0,0.0,0.0,0.0,0.0,0.0,0.0,1.2663,1.2831,1.2945,1.3025,1.2998,1.2804,1.2683,1.2616,1.2616,0.0,0.0,0.0,0.0,0.0,0.0,0.0,0.0,0.0,1.3653,1.3988,1.4355,1.4807,1.5102,1.5237,1.5531,1.5665,0.0,0.0,0.0,0.0,0.0,0.0,0.0,0.0,0.0,1.5678,0.0,0.0,0.0,0.0,0.0,0.0,0.0,0.0,0.0,0.0,0.0,0.0,0.0,1.5784,1.5872,0.0,1.6106,1.6106,1.6106,1.6106,0.0,0.0,0.0,1.5784,1.5784,1.5784,1.5784,1.5784,1.5784,1.5784,1.5784,1.5784,0.0,0.0,0.0,0.0,0.0,0.0,0.0,0.0,0.0,0.0,0.0,0.0,0.0,0.0,1.7582,1.7582,1.7582,1.7582,1.7582,1.7582,1.7582,1.7582,1.7582,1.7582,1.7582,1.7582,1.7582,0.0,0.0,0.0,0.0,0.0,1.7582,1.7582,1.7555,1.7313,1.7018,1.6667,1.638,1.6086,1.5784,0.0,0.0,0.0,0.0,0.0,0.0,0.0,0.0,0.0,0.0,1.2931,1.275,1.275,1.2509,1.2305,0.0,0.0,0.0,0.0,0.0,0.0,0.0,0.0,0.0,0.0,1.3734,1.4035,1.4055,1.4687,1.4988,1.5015,1.5257,1.5398,1.5404,1.5678,1.5751,1.5751,1.5751,1.5658,1.5451,1.5698,1.5651,0.0,0.0,0.0,0.0,0.0,0.0,0.0,0.0,0.0,0.0,0.0,0.0,0.0,0.0,0.0,0.0,0.0,1.5784,0.0,0.0,0.0,0.0,0.0,0.0,0.0,1.5784,1.5784,1.5784,1.5784,1.5784,1.5784,1.5784,1.5784,0.0,0.0,0.0,0.0,0.0,0.0,0.0,0.0,0.0,0.0,0.0,0.0,0.0,0.0,1.7582,1.7582,1.7582,1.7582,1.7582,1.7582,1.7582,1.7582,1.7582,1.7582,1.7582,1.7582,1.7582,0.0,0.0,0.0,0.0,0.0,1.7582,1.7569,1.7522,1.7286,1.6934,1.664,1.6346,1.6066,1.5784,0.0,0.0,0.0,0.0,0.0,0.0,0.0,0.0,0.0,0.0,0.0,1.2405,1.2405,1.2345,0.0,0.0,0.0,0.0,0.0,0.0,0.0,0.0,0.0,0.0,0.0,1.3227,1.3527,1.3706,1.4335,1.4743,1.5015,1.5257,1.5398,1.5398,1.5471,1.5498,1.5498,1.5498,1.5585,1.5712,1.5558,1.5591,0.0,0.0,0.0,0.0,1.5784,1.5784,0.0,0.0,0.0,0.0,0.0,0.0,0.0,0.0,1.5784,1.5784,1.5784,0.0,1.5784,1.5784,1.5784,1.5784,0.0,0.0,0.0,0.0,0.0,0.0,0.0,1.5784,1.5784,1.5784,1.5784,0.0,0.0,0.0,0.0,0.0,0.0,0.0,0.0,0.0,0.0,0.0,0.0,0.0,0.0,1.7582,1.7582,1.7582,1.7582,1.7582,1.7582,1.7582,1.7582,1.7582,1.7582,1.7582,1.7582,1.7582,0.0,0.0,0.0,0.0,1.7582,1.7582,1.7507,1.7273,1.6927,1.6633,1.6339,1.6046,1.5885,1.5784,0.0,0.0,0.0,0.0,0.0,0.0,0.0,0.0,0.0,0.0,0.0,0.0,0.0,0.0,0.0,0.0,0.0,0.0,0.0,0.0,0.0,0.0,0.0,0.0,1.2576,1.2878,1.3206,1.36,1.4095,1.4543,1.5015,1.5169,1.5197,1.5197,1.5197,1.5271,1.5398,1.5398,1.5484,1.5625,1.5605,0.0,0.0,0.0,0.0,0.0,1.5784,1.5784,0.0,1.5784,1.5784,1.5784,0.0,0.0,0.0,0.0,1.5784,1.5784,1.5784,1.5784,1.5784,1.5784,1.5784,1.5784,1.5784,0.0,0.0,0.0,0.0,0.0,0.0,0.0,0.0,0.0,0.0,0.0,0.0,0.0,0.0,0.0,0.0,0.0,0.0,0.0,0.0,0.0,0.0,0.0,0.0,1.7582,1.7582,1.7582,1.7582,1.7582,1.7582,1.7582,1.7582,1.7582,1.7582,1.7582,1.7582,1.7582,1.7582,0.0,0.0,0.0,1.7582,1.7582,1.7467,1.7172,1.682,1.6526,1.6239,1.5939,1.5784,1.5784,0.0,0.0,0.0,0.0,0.0,0.0,0.0,0.0,0.0,0.0,0.0,0.0,0.0,0.0,0.0,0.0,0.0,0.0,0.0,0.0,0.0,0.0,0.0,1.2305,1.2305,1.2677,1.3066,1.354,1.3968,1.4409,1.4941,1.4988,1.4981,1.4941,1.4941,1.512,1.5486,1.5449,1.5456,1.5581,1.5738,0.0,0.0,0.0,0.0,0.0,0.0,0.0,0.0,1.5784,1.5784,1.5784,1.5784,0.0,0.0,0.0,0.0,0.0,1.5784,1.5784,1.5784,1.5784,1.5784,1.5784,1.5784,0.0,0.0,0.0,0.0,0.0,0.0,0.0,0.0,0.0,0.0,0.0,0.0,0.0,0.0,0.0,0.0,0.0,0.0,0.0,0.0,0.0,0.0,0.0,0.0,1.7582,1.7582,1.7582,1.7582,1.7582,1.7582,1.7582,1.7582,1.7582,1.7582,1.7582,1.7582,1.7582,1.7582,0.0,0.0,0.0,1.7582,1.7582,1.7434,1.7112,1.6807,1.65,1.6172,1.5919,1.5784,1.5784,0.0,0.0,0.0,0.0,0.0,0.0,0.0,0.0,0.0,0.0,0.0,0.0,0.0,0.0,0.0,0.0,0.0,0.0,0.0,0.0,0.0,0.0,1.3164,1.2305,1.2305,1.2852,1.3186,1.3273,1.4068,1.4502,1.4596,1.4888,1.483,1.4589,1.4589,1.5113,1.5987,1.5579,1.5777,1.6373,1.5971,0.0,0.0,0.0,0.0,0.0,0.0,0.0,0.0,1.5784,1.5784,1.5784,1.5784,0.0,0.0,0.0,0.0,0.0,1.5784,1.5784,1.5784,1.5784,1.5784,1.5784,1.5784,0.0,0.0,0.0,0.0,0.0,0.0,0.0,0.0,0.0,0.0,0.0,0.0,0.0,0.0,0.0,0.0,0.0,0.0,0.0,0.0,0.0,0.0,0.0,0.0,0.0,1.7582,1.7582,1.7582,1.7582,1.7582,1.7582,1.7582,1.7582,1.7582,1.7582,1.7582,1.7582,1.7582,0.0,0.0,1.7582,1.7582,1.7582,1.7261,1.6767,1.6727,1.6373,1.5892,1.5798,1.5784,1.5784,0.0,0.0,0.0,0.0,0.0,0.0,0.0,0.0,0.0,0.0,0.0,0.0,0.0,0.0,0.0,0.0,0.0,0.0,0.0,0.0,0.0,1.5488,1.4898,1.4424,1.4213,1.4449,1.4608,1.4543,1.4936,1.5026,1.4763,1.4736,1.4861,1.5113,1.4702,1.5193,1.63,1.5525,1.5481,1.5903,0.0,0.0,0.0,0.0,0.0,0.0,0.0,0.0,0.0,0.0,1.5784,1.5784,1.5784,0.0,0.0,0.0,0.0,0.0,1.5784,1.5784,1.5784,1.5784,1.5784,1.5784,0.0,0.0,0.0,0.0,0.0,0.0,0.0,0.0,0.0,0.0,0.0,0.0,0.0,0.0,0.0,0.0,0.0,0.0,0.0,0.0,0.0,0.0,0.0,0.0,0.0,0.0,1.7582,1.7582,1.7582,1.7582,1.7582,1.7582,1.7582,1.7582,1.7582,1.7582,1.7582,1.7582,1.7582,1.7582,0.0,1.7582,1.7569,1.7467,1.7094,1.6693,1.6533,1.6206,1.5784,1.5784,1.5784,1.5784,0.0,0.0,0.0,0.0,0.0,0.0,0.0,0.0,0.0,0.0,0.0,0.0,0.0,0.0,0.0,0.0,0.0,0.0,0.0,0.0,1.5984,1.6422,1.6636,1.6517,1.5934,1.5757,1.5668,1.5625,1.5741,1.5745,1.5634,1.5431,1.5439,1.567,1.5127,1.5655,1.6868,1.5715,1.5679,1.6318,0.0,0.0,0.0,0.0,0.0,0.0,0.0,0.0,0.0,0.0,0.0,0.0,0.0,0.0,0.0,1.5784,1.5784,1.5784,1.5784,1.5784,1.5784,1.5784,0.0,0.0,0.0,0.0,0.0,0.0,0.0,0.0,0.0,0.0,0.0,0.0,0.0,0.0,0.0,0.0,0.0,0.0,0.0,0.0,0.0,0.0,0.0,0.0,0.0,0.0,0.0,0.0,1.7582,1.7582,1.7582,1.7582,1.7582,1.7582,1.7582,1.7582,1.7582,1.7582,1.7582,1.7582,1.7582,1.7582,1.7582,1.7582,1.7562,1.732,1.6974,1.6673,1.6386,1.6092,1.5784,1.5784,1.5784,1.5784,0.0,0.0,0.0,0.0,0.0,0.0,0.0,0.0,0.0,0.0,0.0,0.0,0.0,0.0,0.0,0.0,0.0,0.0,0.0,0.0,1.6576,1.8305,1.8008,1.7329,1.6367,1.5678,1.534,1.5335,1.5811,1.6599,1.7592,1.7686,1.7024,1.5711,1.604,1.6827,1.7836,1.656,1.7281,1.9147,1.7251,0.0,0.0,0.0,0.0,0.0,0.0,0.0,0.0,0.0,0.0,0.0,0.0,0.0,1.5784,1.5784,1.5784,1.5784,1.5784,1.5784,1.5784,1.5784,1.5784,0.0,1.5784,1.5784,0.0,1.5784,0.0,0.0,0.0,0.0,0.0,0.0,0.0,0.0,0.0,0.0,0.0,0.0,0.0,0.0,0.0,0.0,0.0,0.0,0.0,0.0,0.0,0.0,0.0,1.7582,1.7582,1.7582,1.7582,1.7582,1.7582,1.7582,1.7582,1.7582,1.7582,1.7582,1.7582,1.7582,1.7582,1.7582,1.7562,1.732,1.6974,1.6673,1.6386,1.6092,1.5784,1.5784,1.5784,1.5784,0.0,0.0,0.0,0.0,0.0,0.0,0.0,0.0,0.0,0.0,0.0,0.0,0.0,0.0,0.0,0.0,0.0,0.0,0.0,0.0,1.8394,1.9377,1.9533,1.9401,1.8999,1.8436,1.7995,1.7607,1.7074,1.6716,1.6516,1.6726,1.6766,1.6706,1.6548,1.7355,1.8752,1.6896,1.6599,1.7267,1.5696,1.5264,0.0,0.0,0.0,0.0,0.0,0.0,0.0,0.0,1.5784,1.5784,1.5784,1.5784,1.5784,1.5784,1.5784,1.5784,1.5784,1.5784,1.5784,1.5784,1.5784,0.0,0.0,1.5784,1.5784,1.5784,1.5784,0.0,0.0,0.0,0.0,0.0,0.0,0.0,0.0,0.0,0.0,0.0,0.0,0.0,0.0,0.0,0.0,0.0,0.0,0.0,0.0,0.0,0.0,1.7582,1.7582,1.7582,1.7582,1.7582,1.7582,1.7582,1.7582,1.7582,1.7582,1.7582,1.7582,1.7582,1.7582,1.7534,1.734,1.6994,1.67,1.6406,1.6112,1.5925,1.5784,1.5784,1.5784,1.5784,0.0,0.0,0.0,0.0,0.0,0.0,0.0,0.0,0.0,0.0,0.0,0.0,0.0,0.0,0.0,0.0,0.0,0.0,0.0,1.917,1.9609,1.9902,2.0332,2.0605,2.0605,2.0273,1.9754,1.8997,1.823,1.7617,1.7245,1.7565,1.7755,1.7813,1.7624,1.8262,1.9361,1.7697,1.7297,1.7545,1.5804,1.5483,0.0,0.0,0.0,0.0,0.0,0.0,0.0,0.0,1.5784,1.5784,1.5784,1.5784,1.5784,1.5784,1.5784,1.5784,1.5784,1.5784,1.5784,1.5784,0.0,0.0,1.5784,1.5784,1.5784,1.5784,1.5905,0.0,0.0,0.0,0.0,0.0,0.0,0.0,0.0,0.0,0.0,0.0,0.0,0.0,0.0,0.0,0.0,0.0,0.0,0.0,0.0,0.0,0.0,0.0,1.7582,1.7582,1.7582,1.7582,1.7582,1.7582,1.7582,1.7582,1.7582,1.7582,1.7582,1.7582,1.7582,1.7467,1.7179,1.6827,1.648,1.6161,1.6327,1.6386,1.6433,1.6842,1.6749,1.6386,0.0,0.0,0.0,0.0,0.0,0.0,0.0,0.0,0.0,0.0,0.0,0.0,0.0,0.0,0.0,0.0,0.0,0.0,1.8617,1.9407,1.9912,1.9922,2.0332,2.0605,2.0605,2.0605,2.0079,1.9036,1.9036,1.9559,2.0576,2.0986,2.0419,1.9015,1.9403,1.9616,1.9589,1.9159,1.9841,2.0941,1.8345,1.7647,1.794,0.0,0.0,0.0,0.0,0.0,0.0,0.0,1.5784,1.5784,1.5784,1.5784,1.5784,1.5784,1.5784,1.5784,1.5784,1.5784,1.5784,0.0,0.0,0.0,1.5784,1.5784,1.5784,1.5784,0.0,0.0,0.0,0.0,0.0,0.0,0.0,0.0,0.0,0.0,0.0,0.0,0.0,0.0,0.0,0.0,0.0,0.0,0.0,0.0,0.0,0.0,0.0,0.0,1.7582,1.7582,1.7582,1.7582,1.7635,1.7635,1.7635,1.7635,1.7582,1.7582,1.7582,1.7582,1.7582,1.7467,1.7172,1.682,1.6353,1.592,1.7225,1.7692,1.787,1.9039,1.8726,1.7738,0.0,0.0,0.0,0.0,0.0,0.0,0.0,0.0,0.0,0.0,0.0,0.0,0.0,0.0,0.0,0.0,0.0,0.0,1.9512,1.9775,2.0049,2.04,2.0537,2.0605,2.0605,2.0605,2.044,2.0128,2.0128,1.9883,1.949,1.9777,1.9587,1.9015,1.9322,1.9755,2.0251,1.9369,1.9237,1.9497,1.791,1.754,1.7832,0.0,0.0,0.0,0.0,0.0,0.0,0.0,0.0,0.0,1.5784,1.5784,1.5784,1.5784,1.5784,1.5784,1.5784,1.5784,0.0,1.5784,0.0,0.0,0.0,1.5784,0.0,0.0,0.0,0.0,0.0,0.0,0.0,0.0,0.0,0.0,0.0,0.0,0.0,0.0,0.0,0.0,0.0,0.0,0.0,0.0,0.0,0.0,0.0,0.0,0.0,0.0,1.7582,1.7582,1.7582,1.7582,1.8094,1.902,1.902,1.8506,1.7582,1.7582,1.7582,1.7582,1.7582,1.7295,1.68,1.6299,1.6504,1.7178,1.7552,1.8234,1.9001,1.936,1.9268,1.8956,0.0,0.0,0.0,0.0,0.0,0.0,0.0,0.0,0.0,0.0,0.0,0.0,0.0,0.0,0.0,0.0,0.0,0.0,0.0,0.0,2.0293,2.0595,2.0605,2.0605,2.0605,2.0605,2.0605,2.0605,2.0605,2.0284,1.9648,1.9811,1.9792,1.9648,1.9811,2.015,2.0576,2.0072,1.9797,1.9587,1.8754,1.8562,1.8659,0.0,0.0,0.0,0.0,0.0,0.0,0.0,0.0,0.0,1.5784,1.5784,1.5784,1.5784,1.5784,1.5784,1.5784,1.5784,0.0,1.5784,1.5784,1.5784,1.5784,0.0,0.0,0.0,0.0,0.0,0.0,0.0,0.0,0.0,0.0,0.0,0.0,0.0,0.0,0.0,0.0,0.0,0.0,0.0,0.0,0.0,0.0,0.0,0.0,0.0,0.0,0.0,1.7891,1.7582,1.7582,1.8146,1.8812,1.9627,2.0187,2.0025,1.9213,1.9213,1.9213,1.9199,1.8942,1.8196,1.7267,1.7279,1.7716,1.8457,1.8956,1.9579,2.026,2.0764,2.0629,2.0215,0.0,0.0,0.0,0.0,0.0,0.0,0.0,0.0,0.0,0.0,0.0,0.0,0.0,0.0,0.0,0.0,0.0,0.0,0.0,0.0,2.0605,2.0605,2.0605,2.0605,2.0605,2.0605,2.0605,2.0605,2.0605,2.0605,2.0605,2.0605,2.0605,2.0605,2.0605,2.0605,2.0635,2.1045,2.0996,2.0654,2.0452,2.0289,2.0114,1.9574,0.0,0.0,0.0,0.0,0.0,0.0,0.0,0.0,1.5967,1.5872,1.5784,1.5784,1.5784,1.5784,1.5784,0.0,0.0,1.5784,1.5784,0.0,1.5967,0.0,0.0,0.0,0.0,0.0,0.0,0.0,0.0,0.0,0.0,0.0,0.0,0.0,0.0,0.0,0.0,0.0,0.0,0.0,0.0,0.0,0.0,0.0,0.0,0.0,0.0,0.0,1.8603,1.7989,1.7989,1.9169,1.9826,0.0,2.1245,2.1954,2.2055,2.1803,2.1677,2.1611,2.0916,1.9702,1.8331,1.9138,1.9534,1.9761,2.089,2.1382,2.1614,2.2677,2.2403,2.148,0.0,0.0,0.0,0.0,0.0,0.0,0.0,0.0,0.0,0.0,0.0,0.0,0.0,0.0,0.0,0.0,0.0,0.0,0.0,0.0,2.0605,2.0605,2.0605,2.0605,2.0605,2.0605,2.0605,2.0605,2.0605,2.0605,2.0605,2.0605,2.0605,2.0605,2.0605,2.0605,2.0635,2.1045,2.1142,2.1093,2.1404,2.1534,2.1492,2.1337,2.1537,0.0,0.0,0.0,0.0,0.0,0.0,0.0,1.7271,1.6622,1.5784,1.5784,1.5784,1.5784,1.5784,1.5784,0.0,0.0,1.5784,1.6062,0.0,0.0,0.0,0.0,0.0,0.0,0.0,0.0,0.0,0.0,0.0,0.0,0.0,0.0,0.0,0.0,0.0,0.0,0.0,0.0,0.0,0.0,0.0,0.0,0.0,0.0,0.0,2.1245,2.099,2.0837,2.0837,2.1092,2.1752,0.0,2.3126,2.384,2.4766,2.2667,2.1486,2.1147,2.0759,2.0172,1.9531,1.9507,2.0079,2.0935,2.1203,2.1889,2.2721,2.3003,2.295,2.2721,0.0,0.0,0.0,0.0,0.0,0.0,0.0,0.0,0.0,0.0,0.0,0.0,0.0,0.0,0.0,0.0,0.0,0.0,0.0,0.0,0.0,2.0605,2.0605,2.0605,2.0605,2.0605,2.0605,2.0605,2.0605,2.0605,2.0605,2.0605,2.0605,2.0605,2.0605,2.0605,2.0644,2.1269,2.1426,2.1268,2.2148,2.2363,2.2207,2.2412,2.2617,2.263,2.1399,0.0,0.0,0.0,0.0,0.0,0.0,0.0,1.5784,1.5784,1.5784,1.5784,1.5784,0.0,0.0,1.5784,0.0,0.0,0.0,0.0,0.0,0.0,0.0,0.0,0.0,0.0,0.0,0.0,0.0,0.0,0.0,0.0,0.0,0.0,0.0,0.0,0.0,0.0,0.0,0.0,0.0,0.0,0.0,2.3026,2.2667,2.2667,2.2055,2.1702,2.1702,2.2357,2.3026,2.3692,2.4353,2.502,2.5635,2.4254,2.2965,2.1772,2.2242,2.1731,2.0617,2.1024,2.1578,2.2173,2.2173,2.2545,2.3091,2.3091,2.3091,2.3091,0.0,0.0,0.0,0.0,0.0,0.0,0.0,0.0,0.0,0.0,0.0,0.0,0.0,0.0,0.0,0.0,0.0,0.0,0.0,0.0,0.0,0.0,2.0605,2.0605,2.0605,2.0605,2.0605,2.0605,2.0605,2.0605,2.0605,2.0605,2.0605,2.0605,2.0605,2.0605,2.0654,2.1426,2.1611,2.1405,2.2535,2.2818,2.2656,2.2964,2.3091,2.296,2.1987,2.1614,2.1302,1.9322,0.0,0.0,0.0,0.0,1.6426,1.6426,1.6426,1.6379,1.6197,0.0,1.6244,1.6655,1.6608,0.0,0.0,0.0,0.0,0.0,0.0,0.0,0.0,0.0,0.0,0.0,0.0,0.0,0.0,0.0,0.0,0.0,0.0,0.0,0.0,0.0,0.0,0.0,0.0,0.0,2.5693,2.4658,2.4048,2.4048,2.2976,2.2416,2.2416,2.3484,2.4048,2.4048,2.5177,2.5693,2.5693,2.5615,2.4593,2.2981,2.3911,2.3295,2.1712,2.2677,2.3091,2.3091,2.3091,2.3091,2.3091,2.3091,2.3091,2.3091,0.0,0.0,0.0,0.0,0.0,0.0,0.0,0.0,0.0,0.0,0.0,0.0,0.0,0.0,0.0,0.0,0.0,0.0,0.0,0.0,0.0,0.0,2.0605,2.0605,2.0605,2.0605,2.0605,2.0605,2.0605,2.0605,2.0605,2.0605,2.0605,2.0605,2.0605,2.0605,2.0635,2.1103,2.1504,2.1846,2.2383,2.2783,2.3013,2.3071,2.3091,2.3091,2.2906,2.2862,2.2818,2.2501,2.1676,0.0,0.0,0.0,1.8993,1.8993,1.8993,1.8764,0.0,0.0,1.7956,0.0,1.9798,0.0,0.0,0.0,0.0,0.0,0.0,0.0,0.0,0.0,0.0,0.0,0.0,0.0,0.0,0.0,0.0,0.0,0.0,0.0,0.0,0.0,0.0,0.0,0.0,0.0,2.5693,2.5538,2.543,2.543,2.5274,2.5177,2.5177,2.5323,2.543,2.543,2.5586,2.5693,2.5674,2.5332,2.4789,2.4154,2.3942,2.3495,2.2862,2.3047,2.3091,2.3091,2.3091,2.3091,2.3091,2.3091,2.3091,2.3091,0.0,0.0,0.0,0.0,0.0,0.0,0.0,0.0,0.0,0.0,0.0,0.0,0.0,0.0,0.0,0.0,0.0,0.0,0.0,0.0,0.0,2.0605,2.0605,2.0605,2.0605,2.0605,2.0605,2.0605,2.0605,2.0605,2.0605,2.0605,2.0605,2.0605,2.0605,2.0605,2.0635,2.1045,2.1307,2.1582,2.2246,2.2627,2.2769,2.3003,2.3091,2.3091,2.3091,2.3091,2.3003,2.2306,2.1747,2.1159,2.0486,0.0,0.0,0.0,1.9497,0.0,1.8864,1.8726,1.8956,0.0,0.0,0.0,0.0,0.0,0.0,0.0,0.0,0.0,0.0,0.0,0.0,0.0,0.0,0.0,0.0,0.0,0.0,0.0,0.0,0.0,0.0,0.0,0.0,0.0,0.0,2.5693,2.5693,2.5693,2.5693,2.5693,2.5693,2.5693,2.5693,2.5693,2.5693,2.5693,2.5693,2.5605,2.5352,2.4902,2.46,2.4394,2.3975,2.3545,2.3091,2.3091,2.3091,2.3091,2.3091,2.3091,2.3091,2.3091,2.3091,2.3091,0.0,0.0,0.0,0.0,0.0,0.0,0.0,0.0,0.0,0.0,0.0,0.0,0.0,0.0,0.0,0.0,0.0,0.0,0.0,0.0,0.0,2.0605,2.0605,2.0605,2.0605,2.0605,2.0605,2.0605,2.0605,2.0605,2.0605,2.0605,2.0605,2.0605,2.0605,2.0605,0.0,2.0918,2.1093,2.1259,2.2051,2.2412,2.2559,2.2935,2.3091,2.3091,2.3091,2.3091,2.296,2.2076,2.1756,0.0,0.0,0.0,0.0,0.0,0.0,0.0,0.0,0.0,2.0034,2.0359,0.0,0.0,0.0,0.0,0.0,0.0,0.0,0.0,0.0,0.0,0.0,0.0,0.0,0.0,0.0,0.0,0.0,0.0,0.0,0.0,0.0,0.0,0.0,0.0,0.0,2.5693,2.5693,2.5693,2.5693,2.5693,2.5693,2.5693,2.5693,2.5693,2.5693,2.5693,2.5693,2.5508,2.5096,2.4619,2.4355,2.4228,2.3809,2.3437,2.3091,2.3091,2.3091,2.3091,2.3091,2.3091,2.3091,2.3091,2.3091,2.3091,0.0,0.0,0.0,0.0,0.0,0.0,0.0,0.0,0.0,0.0,0.0,0.0,0.0,0.0,1.8783,1.9277,1.9687,2.0098,2.0576,2.0605,2.0605,2.0605,2.0605,0.0,2.0605,2.0605,2.0605,2.0605,2.0605,2.0605,2.0605,2.0605,2.0605,2.0605,2.0605,2.0605,2.0605,0.0,0.0,0.0,0.0,0.0,2.2559,0.0,0.0,0.0,0.0,0.0,0.0,0.0,0.0,0.0,0.0,0.0,0.0,0.0,0.0,0.0,0.0,2.2076,0.0,0.0,0.0,0.0,0.0,0.0,0.0,0.0,0.0,0.0,0.0,0.0,0.0,0.0,0.0,0.0,0.0,0.0,0.0,0.0,0.0,0.0,0.0,0.0,0.0,0.0,0.0,2.5693,2.5693,2.5693,2.5693,2.5693,2.5693,2.5693,2.5693,2.5693,2.5693,2.5693,2.5693,2.5508,2.5096,2.4619,2.4199,2.3799,2.3315,2.312,2.3091,2.3091,2.3091,2.3091,2.3091,2.3091,2.3091,2.3091,2.3091,2.3091,0.0,0.0,0.0,0.0,0.0,0.0,0.0,0.0,0.0,0.0,0.0,0.0,0.0,1.8965,1.9228,1.9648,2.0078,2.0439,2.0595,2.0605,2.0605,2.0605,2.0605,2.0605,2.0605,2.0605,2.0605,0.0,0.0,2.0605,2.0605,2.0605,2.0605,2.0605,2.0605,2.0605,2.0605,2.0605,0.0,0.0,0.0,0.0,0.0,0.0,0.0,0.0,0.0,0.0,0.0,0.0,0.0,0.0,0.0,0.0,0.0,0.0,0.0,0.0,0.0,0.0,0.0,0.0,0.0,0.0,0.0,0.0,0.0,0.0,0.0,0.0,0.0,0.0,0.0,0.0,0.0,0.0,0.0,0.0,0.0,0.0,0.0,0.0,0.0,0.0,0.0,0.0,0.0,0.0,2.5693,2.5693,2.5693,2.5693,2.5693,2.5693,2.5693,2.5693,2.5693,2.5684,2.5449,2.5078,2.4639,2.4209,2.3779,2.3315,2.3159,2.3091,2.3091,2.3091,2.3091,2.3091,2.3091,2.3091,2.3091,2.3091,2.3091,2.3091,0.0,0.0,0.0,0.0,0.0,0.0,0.0,0.0,0.0,0.0,0.0,0.0,0.0,0.0,1.9453,1.9883,2.0312,2.0605,2.0605,2.0605,2.0605,2.0605,2.0605,2.0605,2.0605,2.0605,2.0605,0.0,0.0,0.0,0.0,2.0605,2.0605,2.0615,2.0723,2.0742,0.0,0.0,0.0,2.0683,0.0,0.0,2.1982,0.0,0.0,0.0,0.0,0.0,0.0,0.0,0.0,0.0,0.0,0.0,0.0,0.0,0.0,0.0,2.3091,0.0,0.0,0.0,0.0,0.0,0.0,0.0,0.0,0.0,0.0,0.0,0.0,0.0,0.0,0.0,0.0,0.0,0.0,0.0,0.0,0.0,0.0,0.0,0.0,0.0,0.0,0.0,0.0,0.0,2.5684,2.5693,2.5693,2.5693,2.5693,2.5693,2.5693,2.5693,2.5693,2.5684,2.5283,2.4834,2.4404,2.3984,2.3555,2.3091,2.3091,2.3091,2.3091,2.3091,2.3091,2.3091,2.3091,2.3091,2.3091,2.3091,2.3091,2.3091,0.0,0.0,0.0,0.0,0.0,0.0,0.0,0.0,0.0,0.0,0.0,0.0,0.0,0.0,0.0,1.9902,2.0322,2.0605,2.0605,2.0605,2.0605,2.0605,2.0605,2.0605,2.0605,2.0605,2.0605,0.0,0.0,0.0,0.0,0.0,2.0615,2.0644,2.1045,2.0996,2.0644,0.0,2.0644,2.0723,0.0,2.1924,2.2012,0.0,0.0,0.0,2.313,2.312,0.0,0.0,0.0,0.0,0.0,0.0,0.0,0.0,0.0,0.0,0.0,0.0,0.0,0.0,0.0,0.0,0.0,0.0,0.0,0.0,0.0,0.0,0.0,0.0,0.0,0.0,0.0,0.0,0.0,0.0,0.0,0.0,0.0,0.0,0.0,0.0,0.0,0.0,0.0,2.5244,2.5625,2.5664,2.5664,2.5664,2.5684,2.5693,2.5693,2.5693,2.5684,2.5664,2.5264,2.4814,2.4385,2.3965,2.3545,2.3091,2.3091,2.3091,2.3091,2.3091,2.3091,2.3091,2.3091,2.3091,2.3091,2.3091,2.3091,2.3091,0.0,0.0,0.0,0.0,0.0,0.0,0.0,0.0,0.0,0.0,0.0,0.0,0.0,0.0,2.0292,2.0419,2.0537,2.0605,2.0605,2.0605,2.0605,2.0605,2.0605,2.0605,2.0605,2.0605,2.0605,0.0,0.0,0.0,0.0,0.0,0.0,0.0,2.1142,2.1338,2.1564,2.1564,0.0,0.0,2.2503,2.2803,0.0,0.0,0.0,0.0,0.0,2.3867,2.3613,0.0,2.3398,2.3091,0.0,0.0,0.0,0.0,0.0,0.0,2.3091,0.0,0.0,0.0,0.0,0.0,0.0,0.0,0.0,0.0,0.0,0.0,0.0,0.0,0.0,0.0,0.0,0.0,0.0,0.0,0.0,0.0,0.0,0.0,0.0,0.0,0.0,0.0,2.459,2.4648,2.4775,2.5078,2.5254,2.5254,2.5566,2.5693,2.5693,2.5693,2.5528,2.5244,2.4805,2.4375,2.3945,2.3516,2.3208,2.3091,2.3091,2.3091,2.3091,2.3091,2.3091,2.3091,2.3091,2.3091,2.3091,2.3091,2.3091,2.3091,0.0,0.0,0.0,0.0,0.0,0.0,0.0,0.0,0.0,0.0,0.0,0.0,0.0,0.0,2.0605,2.0605,2.0605,2.0605,2.0605,2.0605,2.0605,2.0605,2.0605,2.0605,2.0605,2.0605,2.0605,0.0,0.0,0.0,0.0,0.0,0.0,0.0,0.0,0.0,0.0,0.0,0.0,0.0,2.2865,0.0,0.0,2.4092,2.4414,0.0,0.0,0.0,2.4053,2.4053,2.3769,0.0,0.0,0.0,0.0,0.0,0.0,0.0,0.0,0.0,0.0,0.0,0.0,0.0,0.0,2.3091,0.0,0.0,0.0,0.0,0.0,0.0,0.0,0.0,0.0,0.0,0.0,0.0,0.0,0.0,0.0,0.0,0.0,0.0,0.0,2.4141,2.415,2.4228,2.4404,2.4658,2.4795,2.4795,2.5049,2.5138,2.5138,2.5138,2.5059,2.4785,2.4355,2.4033,2.3769,2.3296,2.3091,2.3091,2.3091,2.3091,2.3091,2.3091,2.3091,2.3091,2.3091,2.3091,2.3091,2.3091,2.3091,2.3091,0.0,0.0,0.0,0.0,0.0,0.0,0.0,0.0,0.0,0.0,0.0,0.0,0.0,0.0,0.0,0.0,2.0605,2.0605,2.0605,2.0605,2.0605,2.0605,2.0605,2.0605,2.0605,2.0605,0.0,0.0,0.0,0.0,0.0,0.0,0.0,0.0,0.0,0.0,0.0,0.0,0.0,2.2168,2.2963,2.3252,0.0,0.0,2.4521,0.0,2.4514,2.4531,2.4482,2.4434,2.417,0.0,0.0,0.0,0.0,0.0,2.3091,0.0,0.0,0.0,0.0,0.0,0.0,0.0,2.3091,2.3091,2.3091,0.0,0.0,0.0,0.0,0.0,0.0,0.0,0.0,0.0,0.0,0.0,0.0,0.0,0.0,0.0,0.0,2.3091,2.3257,2.3691,2.3721,2.3877,2.4258,2.4316,2.4346,2.4346,2.4394,2.4414,2.4414,2.4414,2.4394,2.4346,2.3965,2.3769,2.3711,2.3276,2.3091,2.3091,2.3091,2.3091,2.3091,2.3091,2.3091,2.3091,2.3091,2.3091,2.3091,2.3091,2.3091,2.3091,0.0,0.0,0.0,0.0,0.0,0.0,0.0,0.0,0.0,0.0,0.0,0.0,0.0,0.0,0.0,0.0,2.0605,2.0605,2.0605,2.0605,2.0605,2.0605,2.0605,2.0605,2.0605,2.0605,0.0,0.0,0.0,0.0,0.0,0.0,0.0,0.0,0.0,0.0,0.0,0.0,0.0,2.3428,2.3603,0.0,2.4228,2.4746,2.5166,2.543,2.543,2.5254,2.493,0.0,2.4365,2.4238,0.0,0.0,0.0,0.0,0.0,0.0,0.0,0.0,0.0,0.0,0.0,0.0,2.3091,2.3091,2.3091,0.0,0.0,0.0,0.0,0.0,0.0,0.0,0.0,0.0,0.0,0.0,0.0,0.0,0.0,0.0,0.0,2.3091,2.313,2.3218,2.3218,2.3257,2.3335,2.3721,2.3906,2.3906,2.4238,2.4414,2.4414,2.4414,2.4248,2.3906,2.3828,2.3603,2.3218,2.314,2.3091,2.3091,2.3091,2.3091,2.3091,2.3091,2.3091,2.3091,2.3091,2.3091,2.3091,2.3091,2.3091,2.3091,0.0,0.0,0.0,0.0,0.0,0.0,0.0,0.0,0.0,0.0,0.0,0.0,0.0,0.0,0.0,0.0,0.0,0.0,0.0,0.0,2.0605,2.0605,2.0605,2.0605,2.0605,2.0605,2.0605,0.0,0.0,0.0,0.0,0.0,0.0,0.0,0.0,0.0,0.0,0.0,2.3218,2.3506,2.3926,0.0,2.4785,2.5234,2.5537,2.5693,2.5693,2.5596,2.5371,2.5146,2.4738,0.0,0.0,2.4131,2.375,0.0,2.3467,2.3418,0.0,0.0,0.0,2.3091,0.0,0.0,0.0,2.3091,2.3091,0.0,0.0,0.0,0.0,0.0,0.0,0.0,0.0,0.0,0.0,0.0,0.0,0.0,0.0,0.0,0.0,2.3091,2.3091,2.3091,2.3091,2.3091,2.3091,2.3305,2.3467,2.3467,2.3672,2.3734,2.3734,2.3734,2.3627,2.3467,2.3467,2.3305,2.3091,2.3091,2.3091,2.3091,2.3091,2.3091,2.3091,2.3091,2.3091,2.3091,2.3091,2.3091,2.3091,2.3091,2.3091,2.3091,0.0,0.0,0.0,0.0,0.0,0.0,0.0,0.0,0.0,0.0,0.0,0.0,0.0,0.0,0.0,0.0,0.0,0.0,0.0,0.0,0.0,2.086,2.0693,2.0683,2.086,2.0693,2.0605,0.0,0.0,0.0,0.0,0.0,0.0,0.0,0.0,0.0,0.0,0.0,0.0,2.3403,0.0,2.458,2.4863,2.5312,2.5489,2.5567,2.5654,2.5693,2.5674,2.5586,0.0,2.458,2.4766,2.4404,0.0,0.0,0.0,0.0,0.0,0.0,0.0,0.0,0.0,2.3091,0.0,0.0,0.0,2.3091,0.0,0.0,0.0,0.0,0.0,0.0,0.0,0.0,0.0,0.0,0.0,0.0,0.0,0.0,0.0,2.3091,2.3091,2.3091,2.3091,2.3091,2.3091,2.3091,2.3091,2.3091,2.3091,2.3091,2.3091,2.3091,2.3091,2.3091,2.3091,2.3091,2.3091,2.3091,2.3091,2.3091,2.3091,2.3091,2.3091,2.3091,2.3091,2.3091,2.3091,2.3091,2.3091,2.3091,2.3091,2.3091,2.2031,2.1846,0.0,0.0,0.0,0.0,0.0,0.0,0.0,0.0,0.0,0.0,0.0,0.0,0.0,0.0,0.0,0.0,2.1787,0.0,0.0,0.0,2.1026,2.0967,2.1719,2.1006,2.0605,2.0605,0.0,0.0,0.0,0.0,0.0,0.0,2.2939,0.0,0.0,0.0,2.3935,0.0,2.4375,2.4228,0.0,2.4404,2.4805,2.5195,2.5596,2.5693,2.5625,0.0,2.5078,2.4863,0.0,2.4121,0.0,0.0,0.0,0.0,0.0,0.0,0.0,0.0,2.3091,0.0,0.0,0.0,2.3091,2.3091,0.0,0.0,0.0,0.0,0.0,0.0,0.0,0.0,0.0,0.0,0.0,0.0,0.0,0.0,0.0,0.0,2.3091,2.3091,2.3091,2.3091,2.3091,2.3091,2.3091,2.3091,2.3091,2.3091,2.3091,2.3091,2.3091,2.3091,2.3091,2.3091,2.3091,2.3091,2.3091,2.3091,2.3091,2.3091,2.3091,2.3091,2.3091,2.3091,2.3091,2.3091,2.3091,2.3091,2.3091,2.3091,2.2643,2.2412,0.0,0.0,0.0,0.0,0.0,0.0,0.0,0.0,0.0,0.0,0.0,0.0,0.0,0.0,0.0,2.2519,0.0,0.0,0.0,0.0,0.0,0.0,2.1153,2.0791,2.0693,2.0957,2.1103,0.0,0.0,0.0,0.0,0.0,2.3447,0.0,2.3851,0.0,0.0,0.0,0.0,0.0,0.0,2.4824,2.5303,2.5478,2.5625,2.5693,2.5664,0.0,2.5117,0.0,0.0,0.0,0.0,0.0,0.0,0.0,0.0,0.0,0.0,0.0,0.0,0.0,0.0,0.0,2.3091,0.0,0.0,0.0,0.0,0.0,0.0,0.0,0.0,0.0,0.0,0.0,0.0,0.0,0.0,0.0,0.0,0.0,0.0,0.0,0.0,2.3091,2.3091,2.3091,2.3091,2.3091,2.3091,2.3091,2.3091,2.3091,2.3091,2.3091,2.3091,2.3091,2.3091,2.3091,2.3091,2.3091,2.3091,2.3091,2.3091,2.3091,2.3091,2.3091,2.3091,2.3091,2.3091,2.3091,2.3091,2.3091,2.3091,0.0,0.0,0.0,0.0,0.0,0.0,0.0,0.0,0.0,0.0,0.0,2.1319,2.1885,0.0,0.0,0.0,2.3164,0.0,0.0,2.2041,0.0,0.0,0.0,0.0,0.0,2.0967,2.1375,0.0,0.0,0.0,0.0,0.0,0.0,0.0,2.3965,2.4248,0.0,0.0,2.417,2.4473,2.4482,2.4414,2.5244,2.5586,2.5693,2.5693,2.5693,2.5674,2.5547,2.5127,0.0,2.5157,0.0,0.0,0.0,0.0,0.0,2.3467,0.0,0.0,0.0,0.0,0.0,0.0,0.0,0.0,0.0,0.0,0.0,0.0,0.0,0.0,0.0,0.0,0.0,0.0,0.0,0.0,0.0,0.0,0.0,0.0,0.0,0.0,0.0,2.3091,2.3091,2.3091,2.3091,2.3091,2.3091,2.3091,2.3091,2.3091,2.3091,2.3091,2.3091,2.3091,2.3091,2.3091,2.3091,2.3091,2.3091,2.3091,2.3091,2.3091,2.3091,2.3091,2.3091,2.3091,2.3091,2.3091,2.3091,2.3091,2.3091,2.3091,2.3081,0.0,0.0,0.0,0.0,0.0,0.0,0.0,0.0,0.0,0.0,0.0,0.0,0.0,0.0,0.0,2.5216,2.4394,0.0,2.3413,0.0,0.0,2.1584,0.0,0.0,0.0,0.0,0.0,0.0,0.0,0.0,0.0,0.0,0.0,2.3799,2.3838,2.4248,2.4648,2.5077,2.5086,2.5303,2.5586,0.0,2.5361,2.5693,2.5693,0.0,0.0,2.5234,2.5116,0.0,0.0,0.0,0.0,0.0,0.0,0.0,0.0,0.0,0.0,2.3198,0.0,0.0,0.0,0.0,2.3091,0.0,0.0,0.0,0.0,0.0,0.0,0.0,0.0,0.0,0.0,0.0,0.0,0.0,0.0,0.0,0.0,0.0,0.0,2.3091,2.3091,2.3091,2.3091,2.3091,2.3091,2.3091,2.3091,2.3091,2.3091,2.3091,2.3091,2.3091,2.3091,2.3091,2.3091,2.3091,2.3091,2.3091,2.3091,2.3091,2.3091,2.3091,2.3091,2.3091,2.3091,2.3091,2.3091,2.3091,2.3091,2.3091,0.0,0.0,0.0,0.0,0.0,0.0,0.0,2.2393,0.0,0.0,0.0,0.0,0.0,0.0,2.4336,0.0,0.0,2.5049,2.4453,2.3887,0.0,0.0,0.0,2.1904,0.0,0.0,0.0,0.0,0.0,0.0,0.0,0.0,0.0,0.0,0.0,2.3945,0.0,0.0,0.0,0.0,0.0,2.5156,2.5312,0.0,0.0,2.5693,2.5693,2.5693,0.0,2.5566,2.5312,2.5145,2.5244,2.499,2.4668,2.4805,2.4746,0.0,0.0,0.0,2.4102,2.3672,0.0,0.0,0.0,0.0,0.0,0.0,0.0,0.0,0.0,0.0,0.0,0.0,0.0,0.0,0.0,0.0,0.0,0.0,0.0,0.0,0.0,0.0,0.0,2.3091,2.3091,2.3091,0.0,2.3091,2.3091,2.3091,2.3091,2.3091,2.3091,2.3091,2.3091,2.3091,2.3091,2.3091,2.3091,2.3091,2.3091,2.3091,2.3091,2.3091,2.3091,2.3091,2.3091,2.3091,2.3091,2.3091,2.3091,2.3091,2.3091,2.3091,2.3091,0.0,0.0,0.0,0.0,0.0,0.0,0.0,0.0,0.0,2.3193,0.0,2.4014,0.0,2.4824,0.0,2.5508,2.5508,2.4922,2.4482,0.0,2.3838,2.2871,0.0,0.0,0.0,0.0,0.0,0.0,2.2828,0.0,0.0,0.0,0.0,0.0,0.0,0.0,0.0,2.5019,0.0,0.0,2.5303,0.0,0.0,2.5586,2.5518,0.0,2.5693,2.5693,2.5693,2.5547,2.5361,2.5596,2.5294,2.4941,2.5225,2.5107,2.4853,2.4697,2.4648,0.0,2.4121,2.4014,0.0,2.3467,0.0,0.0,0.0,0.0,0.0,0.0,0.0,0.0,0.0,0.0,0.0,0.0,2.3091,0.0,0.0,0.0,0.0,0.0,0.0,2.3091,2.3091,2.3091,2.3091,0.0,0.0,2.3091,2.3091,2.3091,2.3091,2.3091,2.3091,2.3091,2.3091,2.3091,2.3091,2.3091,2.3091,2.3091,2.3091,2.3091,2.3091,2.3091,2.3091,2.3091,2.3091,2.3091,2.3091,2.3091,2.3091,2.3091,2.3091,0.0,0.0,0.0,0.0,2.3091,0.0,0.0,0.0,2.3461,0.0,2.4482,2.4844,2.5654,2.6172,2.6416,2.6416,2.6787,0.0,2.5801,2.5381,0.0,0.0,2.3971,2.3873,2.5086,0.0,0.0,0.0,0.0,0.0,0.0,0.0,0.0,0.0,2.3091,0.0,2.4414,2.4414,2.4941,2.5713,2.5713,2.5713,2.5723,2.5742,2.5508,2.5156,2.5538,2.5693,2.5693,2.5693,2.5693,2.5693,2.5693,2.5693,2.5693,2.5693,2.5693,2.5644,2.5215,2.5145,2.5047,2.456,0.0,0.0,0.0,0.0,2.3701,0.0,0.0,0.0,0.0,0.0,0.0,0.0,0.0,0.0,0.0,0.0,0.0,0.0,0.0,0.0,0.0,2.3091,2.3091,2.3091,2.3091,2.3091,0.0,0.0,2.3091,2.3091,2.3091,2.3091,2.3091,2.3091,2.3091,2.3091,2.3091,2.3091,2.3091,2.3091,2.3091,2.3091,2.3091,2.3091,2.3091,2.3091,2.3135,2.3178,2.3178,2.3178,2.3178,2.3135,2.3091,2.3091,2.3091,2.3091,2.3091,0.0,2.3091,2.3091,0.0,0.0,0.0,0.0,2.5478,2.6094,2.6631,2.6787,2.6855,2.6855,2.6953,0.0,0.0,0.0,0.0,2.6055,2.5155,2.4783,2.5106,2.4121,0.0,2.3789,0.0,0.0,2.3091,0.0,0.0,0.0,0.0,0.0,2.4414,2.4414,2.5117,2.6221,2.6221,2.6221,0.0,0.0,2.6221,2.5586,2.5645,2.5693,2.5693,2.5693,2.5693,2.5693,2.5693,2.5693,2.5693,2.5693,2.5693,2.5664,2.5547,2.5566,2.5459,2.501,2.4902,2.4785,0.0,0.0,0.0,0.0,0.0,0.0,0.0,0.0,0.0,0.0,0.0,0.0,0.0,0.0,0.0,0.0,0.0,0.0,2.3091,2.3091,2.3091,2.3091,2.3091,2.3091,0.0,0.0,0.0,2.3091,2.3091,2.3091,2.3091,2.3091,2.3091,2.3091,2.3091,2.3091,2.3091,2.3091,2.3091,2.3091,2.3091,2.3091,2.3091,2.3091,2.3594,2.4372,2.4372,2.4372,2.4253,2.343,2.3091,2.3091,2.3091,0.0,0.0,2.3091,0.0,0.0,2.3656,0.0,0.0,2.5234,2.5791,0.0,2.6943,2.7353,2.7568,2.7568,2.7568,0.0,0.0,0.0,0.0,2.6406,2.6084,2.584,2.5644,2.499,0.0,2.4062,0.0,0.0,2.3091,0.0,0.0,0.0,0.0,2.3471,0.0,2.4541,2.5244,2.6123,2.6309,0.0,0.0,2.6924,2.6719,2.6249,2.6249,2.6005,2.5693,2.5693,2.5693,2.5693,2.5693,2.5693,2.5693,2.5693,2.5693,2.5693,2.5693,2.5693,2.5625,2.543,2.5361,2.5244,2.4805,2.4697,2.4648,0.0,0.0,0.0,0.0,0.0,0.0,0.0,0.0,0.0,0.0,0.0,0.0,0.0,0.0,0.0,2.3091,2.3091,2.3091,2.3091,2.3091,2.3091,0.0,0.0,0.0,2.3091,2.3091,2.3091,2.3091,2.3091,2.3091,2.3091,2.3091,2.3091,2.3091,2.3091,2.3091,2.3091,2.3091,2.3091,2.3091,2.3091,2.3757,2.483,2.5336,2.5546,2.542,2.4253,2.3507,2.3091,0.0,0.0,0.0,0.0,0.0,0.0,0.0,2.4007,0.0,2.5654,0.0,2.6386,2.7187,2.793,2.8369,2.8369,0.0,2.7978,2.7226,2.7539,2.7444,2.6592,2.6904,2.6904,2.6484,2.5986,0.0,0.0,0.0,0.0,0.0,0.0,0.0,0.0,0.0,0.0,0.0,2.4795,2.5449,0.0,2.6377,2.6807,2.7187,2.7187,2.7148,2.71,2.71,2.6553,2.5771,2.5771,2.5732,2.5693,2.5693,2.5693,2.5693,2.5693,2.5693,2.5693,2.5693,2.5693,2.5693,2.5693,2.5693,2.5586,2.5244,2.5156,2.5049,2.4668,2.4541,2.4394,0.0,0.0,0.0,0.0,0.0,0.0,0.0,0.0,0.0,0.0,0.0,0.0,0.0,2.3091,2.3091,2.3091,2.3091,0.0,0.0,0.0,0.0,2.3091,2.3091,0.0,2.3091,0.0,2.3091,2.3091,2.3091,2.3091,2.3091,2.3091,2.3091,2.3091,2.3091,2.3178,2.3299,2.3178,2.3844,2.5168,2.6431,2.6853,2.6595,2.5577,2.4414,2.3299,0.0,0.0,0.0,0.0,0.0,2.4658,2.5343,2.5927,2.6445,2.6748,2.7705,2.8418,2.8564,2.8721,2.8809,2.8809,2.8496,0.0,0.0,0.0,0.0,2.7513,2.7562,2.7344,2.6914,2.6093,2.5478,0.0,0.0,0.0,0.0,0.0,0.0,0.0,0.0,0.0,2.4365,2.5196,0.0,2.6826,2.7266,2.7695,2.8066,2.8066,2.7851,2.7559,2.7559,2.7002,2.6279,2.6279,2.6035,2.5693,2.5693,2.5693,2.5693,2.5693,2.5693,2.5693,2.5693,2.5693,2.5693,2.5693,2.5693,2.5664,2.5586,2.5567,2.5547,2.5469,2.5215,2.4979,2.491,0.0,0.0,0.0,0.0,0.0,0.0,0.0,0.0,0.0,0.0,0.0,0.0,0.0,0.0,0.0,0.0,0.0,0.0,0.0,0.0,0.0,2.3091,0.0,0.0,0.0,2.3091,2.3091,2.3091,2.3091,2.3091,2.3091,2.3091,2.3091,2.3091,2.3627,2.4414,2.3474,2.4307,2.6389,2.8422,2.8648,2.7815,2.7602,2.6232,2.4382,0.0,0.0,0.0,0.0,0.0,0.0,0.0,2.7793,0.0,2.7441,2.8076,2.8594,2.8594,2.8984,2.9258,2.9258,2.9072,2.8857,2.8633,2.8613,2.8428,2.8008,2.7988,0.0,2.7363,2.7623,2.69,2.5116,0.0,0.0,0.0,0.0,0.0,0.0,0.0,2.3988,0.0,0.0,0.0,2.7051,2.749,2.792,2.8291,2.8291,2.8164,2.7988,2.7988,2.7588,2.7033,2.6543,2.625,2.6035,2.5762,2.5693,2.5693,2.5693,2.5693,2.5693,2.5693,2.5693,2.5878,2.6524,2.6668,2.6668,2.6668,2.6668,2.6476,2.583,2.6066,2.6535,2.6928,2.5771,0.0,0.0,0.0,0.0,0.0,0.0,0.0,0.0,0.0,0.0,0.0,0.0,0.0,0.0,0.0,0.0,0.0,0.0,0.0,0.0,0.0,0.0,0.0,0.0,0.0,2.3091,2.3091,2.3091,2.3135,2.3714,2.3963,2.4006,2.4595,2.5179,2.5672,2.5703,2.6326,2.7493,2.9157,2.9456,2.8897,2.8307,2.7429,2.6356,0.0,2.389,0.0,0.0,2.6211,0.0,2.8135,2.9101,2.9362,2.8266,2.8437,2.8691,2.8691,2.9297,2.9707,2.9707,2.9675,2.9424,2.9082,2.8975,2.8769,2.8437,2.834,2.8135,2.7803,2.8756,2.8155,0.0,0.0,0.0,0.0,0.0,0.0,0.0,0.0,0.0,0.0,0.0,2.6768,2.7197,2.7627,2.7998,2.8291,2.8291,2.8291,2.8291,2.8291,2.8086,2.7738,2.6914,2.6543,2.6309,2.583,2.5693,2.5693,2.5693,2.5878,2.6062,2.5781,2.5917,2.6342,2.7363,2.7589,2.7683,2.7908,2.8002,2.7636,2.638,2.6897,2.7864,2.8645,2.7425,0.0,0.0,0.0,0.0,0.0,0.0,0.0,0.0,0.0,0.0,0.0,0.0,0.0,0.0,0.0,0.0,0.0,0.0,0.0,0.0,0.0,2.3513,2.3569,0.0,2.38,0.0,2.365,2.3733,2.4038,2.4792,2.52,2.5359,2.6296,2.6614,2.6607,2.7896,2.8307,2.8215,2.9365,2.9792,2.9702,2.8806,2.8307,2.8016,0.0,0.0,0.0,0.0,0.0,0.0,0.0,2.9346,2.9961,2.9518,2.9756,3.0019,3.0019,3.0088,3.0137,3.0137,2.9795,2.9551,2.9567,2.9141,2.8896,2.8867,2.8496,2.8271,2.8232,2.8019,2.8125,0.0,0.0,0.0,0.0,0.0,0.0,0.0,0.0,0.0,0.0,2.6738,2.7207,2.7689,2.8066,2.8262,2.8291,2.8291,2.8291,2.8291,2.8291,2.8271,2.8164,2.7705,2.7031,2.6309,2.583,2.5693,2.5693,2.5693,2.6524,2.7173,2.6014,2.6524,2.7447,2.7589,2.7589,2.7908,2.8993,2.9223,2.8912,2.7673,2.7494,2.7864,2.8645,2.8656,2.7889,0.0,0.0,0.0,0.0,0.0,0.0,0.0,0.0,0.0,0.0,0.0,0.0,0.0,0.0,0.0,0.0,0.0,0.0,2.3721,0.0,2.4826,2.5176,2.5858,2.6182,2.6193,2.5486,2.5775,2.6901,2.6376,2.6464,2.7059,2.7186,2.6928,2.6648,2.8752,2.9028,2.8215,2.9365,2.9792,2.9792,2.9663,2.8988,2.8215,0.0,0.0,0.0,0.0,0.0,0.0,0.0,3.1041,3.1907,3.1733,3.1052,3.0615,3.0615,3.0615,3.0615,3.0615,3.0459,3.0244,2.9961,2.9775,2.957,2.9316,2.9681,2.9921,2.9921,3.11,3.1224,0.0,0.0,0.0,0.0,0.0,0.0,0.0,0.0,2.8663,2.9153,2.9012,2.9528,3.0414,2.9735,2.9964,3.0721,3.0721,3.0721,3.0618,2.9817,2.9513,2.9347,2.8107,2.7749,2.7641,2.6498,2.6465,2.6706,2.5927,2.662,2.7494,2.6993,2.772,2.8855,2.959,2.9772,2.9909,3.0361,3.0496,3.0135,2.8958,2.9269,3.0078,3.1193,3.0545,2.9831,0.0,0.0,0.0,0.0,0.0,0.0,0.0,0.0,0.0,0.0,0.0,0.0,0.0,0.0,0.0,0.0,0.0,0.0,2.439,0.0,2.5895,2.6061,2.6365,2.667,2.6962,2.6697,2.6983,2.7788,2.8196,2.8707,2.9297,2.9297,2.8996,2.8542,2.9456,2.9534,2.9157,2.9624,2.9792,2.9792,2.9792,2.9495,2.9197,2.9326,0.0,2.9642,0.0,3.0758,3.1095,3.2064,3.3088,3.3744,3.3744,3.2815,3.2217,3.2217,3.1825,3.172,3.216,3.1767,3.1407,3.1067,3.0927,3.0558,2.9822,3.0298,0.0,3.0391,3.2336,3.2761,3.1398,3.055,0.0,0.0,0.0,0.0,0.0,3.0751,3.1128,3.1345,3.1045,3.1429,3.223,3.1276,3.148,3.228,3.228,3.228,3.218,3.1224,3.0876,3.0719,2.9456,2.9581,2.9807,2.7598,2.7347,2.7625,2.6564,2.7173,2.8038,2.7683,2.8727,3.0135,3.0989,3.1223,3.1311,3.1677,3.1777,3.15,3.0643,3.0866,3.1589,3.2884,3.2118,3.14,3.1679,0.0,0.0,0.0,0.0,0.0,0.0,0.0,2.8101,2.7528,0.0,0.0,0.0,0.0,0.0,0.0,0.0,0.0,0.0,0.0,0.0,0.0,2.7602,2.7982,2.8482,2.8295,2.8602,2.9336,3.0127,3.0626,3.0834,3.0683,3.0306,2.9792,2.9792,2.9792,2.9792,2.9792,2.9792,2.9792,2.9792,2.9792,2.9792,3.4863,3.4911,3.4988,3.5172,3.5211,3.5222,3.5233,3.5245,3.5288,3.5288,3.5245,3.5245,3.5245,3.3968,3.3687,3.5123,3.3912,3.3077,3.3067,3.2626,3.1717,0.0,0.0,2.9411,2.8926,3.0327,3.144,3.2258,0.0,0.0,3.2965,0.0,3.019,3.0996,3.1007,3.1461,3.2269,3.228,3.228,3.228,3.228,3.228,3.228,3.228,3.228,3.228,3.228,3.228,3.228,3.223,3.2799,3.2839,2.9311,2.8271,2.8273,2.7725,2.8402,2.9131,2.7908,2.9361,3.1166,3.1223,3.1223,3.1545,3.2797,3.3081,3.3068,3.3081,3.2052,3.1589,3.2884,3.3068,3.2524,3.0903,0.0,0.0,0.0,0.0,0.0,0.0,2.891,2.9137,2.9713,0.0,0.0,0.0,0.0,0.0,0.0,0.0,0.0,2.7039,2.7737,0.0,2.9545,3.0228,3.0819,3.1345,3.0701,3.0997,3.216,3.216,3.1901,3.1348,3.0834,3.0306,2.9792,2.9792,2.9792,2.9792,2.9792,2.9792,2.9792,2.9792,2.9792,2.9792,3.5199,3.5184,3.4902,3.3937,3.4626,3.4958,3.3968,3.5497,3.6811,3.6811,3.6811,3.7198,3.8202,3.612,3.4792,0.0,3.4847,3.457,0.0,3.4483,3.4174,3.3675,3.4193,3.3903,3.2685,3.4337,3.489,3.4125,0.0,0.0,0.0,3.2401,3.2992,3.4687,3.4687,3.4834,3.5054,3.4105,3.4264,3.4993,3.4117,3.4252,3.5102,3.5102,3.5102,3.4993,3.4068,3.3723,3.3563,3.2632,3.3089,3.3848,3.2314,3.1397,3.0662,2.9241,2.9681,3.0541,3.0181,3.1235,3.2513,3.2513,3.2513,3.2612,3.3025,3.3124,3.3124,3.3124,3.2797,3.2612,3.3025,3.3124,3.292,3.2389,3.2578,0.0,0.0,0.0,0.0,0.0,3.0832,3.0546,0.0,2.902,0.0,0.0,0.0,0.0,0.0,0.0,0.0,0.0,2.9084,0.0,3.0269,3.0873,3.1411,3.1951,3.1737,3.2065,3.2805,3.2805,3.2491,3.1926,3.1386,3.0846,3.0331,2.9942,2.9792,2.9792,2.9792,2.9792,2.9792,2.9792,2.9792,2.9792,3.6942,3.6942,3.6661,3.5715,3.6325,3.6661,3.5715,3.7145,3.836,3.836,3.836,3.8687,3.9581,3.8043,0.0,3.6942,3.6445,3.6108,3.6108,3.6108,3.589,3.5343,3.5864,3.5653,3.4484,0.0,0.0,3.5369,3.4896,3.4548,3.4352,3.4352,3.5108,3.6405,3.6405,3.6405,3.6358,3.5523,3.5619,3.631,3.5463,3.5667,3.6405,3.6405,3.6405,3.631,3.5463,3.5126,3.5017,3.4142,3.4399,3.5029,3.4435,3.3863,3.2989,3.1007,3.0783,3.1223,3.1223,3.214,3.3124,3.3124,3.3124,3.3124,3.3124,3.3124,3.3124,3.3124,3.3124,3.3124,3.3124,3.3124,3.3124,3.3124,3.3124,3.3124,3.3124,0.0,0.0,0.0,0.0,0.0,0.0,3.0241,0.0,0.0,0.0,0.0,0.0,0.0,0.0,2.9031,3.0236,0.0,3.121,3.1537,3.1976,3.2541,3.2541,3.2729,3.3124,3.3124,3.2754,3.2177,3.1625,3.1097,3.057,3.0018,2.9792,2.9792,2.9792,2.9792,2.9792,2.9792,2.9792,2.9792,3.9747,3.9722,0.0,0.0,3.9633,0.0,3.9581,3.9633,3.9697,3.9697,3.9633,3.9581,3.9697,3.9633,3.9581,3.9697,0.0,0.0,0.0,3.7636,3.7037,3.5683,3.5617,3.5348,3.482,3.6168,3.6637,3.615,3.6825,3.6923,3.6468,3.643,3.6405,3.6405,3.6405,3.6405,3.6405,3.6405,3.6405,3.6405,3.6405,3.6405,3.6405,3.6405,3.6405,3.6405,3.6405,3.6405,3.6405,3.6405,3.6405,3.6317,3.5768,3.552,3.5085,3.2856,3.1809,3.1359,3.1323,3.2196,3.3124,3.3124,3.3124,3.3124,3.3124,3.3124,3.3124,3.3124,3.3124,3.3124,3.3124,3.3124,3.3124,3.3124,3.3124,3.3124,3.3124,0.0,0.0,0.0,0.0,0.0,0.0,3.1449,3.1436,0.0,0.0,0.0,0.0,0.0,2.9614,3.0631,3.1173,3.17,3.2202,3.2252,3.2541,3.3124,3.3124,3.3124,3.3124,3.3124,3.278,3.224,3.1687,3.1148,3.062,3.008,2.9829,2.9792,2.9792,2.9792,2.9792,2.9792,2.9792,2.9792,0.0,0.0,3.9349,3.8243,3.8961,3.931,3.819,3.8973,3.9697,3.9697,3.8739,3.8465,3.9581,3.8687,3.8465,3.9581,3.9362,3.9193,3.9193,3.9193,3.9025,3.8699,3.8647,3.8089,3.6849,3.7828,3.8102,3.7531,3.7304,3.7123,3.6973,3.6606,3.6405,3.6405,3.6405,3.6405,3.6405,3.6405,3.6405,3.6405,3.6405,3.6405,3.6405,3.6405,3.6405,3.6405,3.6405,3.6405,3.6405,3.6405,3.6405,3.6392,3.6207,3.5881,3.5236,3.3886,3.3387,3.3189,3.2767,3.2884,3.3124,3.3124,3.3124,3.3124,3.3124,3.3124,3.3124,3.3124,3.3124,3.3124,3.3124,3.3124,3.3124,3.3124,3.3124,3.3124,3.3124,3.3124,0.0,0.0,3.2867,3.2654,3.2077,3.2014,3.1838,0.0,0.0,0.0,0.0,3.1402,3.1365,3.1223,3.1738,3.2077,3.2215,3.2654,3.2943,3.3124,3.3124,3.3124,3.3124,3.3124,3.3006,3.2842,3.2265,3.1712,3.1173,3.0633,3.0168,2.9792,2.9792,2.9792,2.9792,2.9792,2.9792,2.9792,4.0902,4.045,3.9788,3.9002,3.9355,3.9413,3.8635,3.9193,3.9697,3.9697,3.9025,3.8804,3.9633,3.8973,3.8856,3.9633,3.9697,3.9697,3.9697,3.9697,3.9697,3.9697,3.9697,3.931,3.8518,3.9011,3.8969,3.8404,3.8103,3.7826,3.755,3.6998,3.6782,3.6769,3.6518,3.6405,3.6405,3.6405,3.6405,3.6405,3.6405,3.6405,3.6405,3.6405,3.6405,3.6405,3.6405,3.6405,3.6405,3.6405,3.6405,3.6405,3.6405,3.6157,3.5742,3.4901,3.4299,3.3834,3.3533,3.3269,3.3124,3.3124,3.3124,3.3124,3.3124,3.3124,3.3124,3.3124,3.3124,3.3124,3.3124,3.3124,3.3124,3.3124,3.2855,3.2767,3.3043,3.2855,0.0,3.3086,3.3124,3.2955,3.2641,3.2604,3.2491,3.2177,0.0,0.0,3.2164,3.2441,3.2353,3.1788,3.2315,3.2604,3.2604,3.2918,3.3124,3.3124,3.3124,3.3124,3.3124,3.3124,3.3124,3.3086,3.2466,3.1901,3.1348,3.0834,3.0281,2.9792,2.9792,2.9792,2.9792,2.9792,2.9792,2.9792,4.1467,4.1015,4.0614,4.0526,4.0124,3.9785,3.971,3.9697,3.9697,3.9697,3.9697,3.9697,3.9697,3.9697,3.9697,3.9697,3.9697,3.9697,3.9697,3.9697,3.9697,3.9697,3.9697,3.9697,3.9697,3.9697,3.9471,3.9045,3.8957,3.8617,3.8128,3.7563,3.7262,3.7161,3.6732,3.648,3.6405,3.6405,3.6405,3.6405,3.6405,3.6405,3.6405,3.6405,3.6405,3.6405,3.6405,3.6405,3.6405,3.6405,3.6405,3.6405,3.6405,3.6405,3.6317,3.5805,3.4951,3.411,3.3935,3.3495,3.3124,3.3124,3.3124,3.3124,3.3124,3.3124,3.3124,3.3124,3.3124,3.3124,3.3124,3.3124,3.3056,3.2968,3.2604,3.2478,3.288,0.0,3.2528,3.3061,3.3124,3.3124,3.3124,3.3124,3.3124,3.3124,3.3124,3.3124,0.0,3.3124,3.2855,3.2353,3.2817,3.3124,3.3124,3.3124,3.3124,3.3124,3.3124,3.3124,3.3124,3.3124,3.3124,3.3056,3.2554,3.1976,3.1348,3.0922,3.0369,2.9792,2.9792,2.9792,2.9792,2.9792,2.9792,2.9792,4.2087,4.1593,4.1012,4.0601,4.0438,4.0224,3.9772,3.9697,3.9697,3.9697,3.9697,3.9697,3.9697,3.9697,3.9697,3.9697,3.9697,3.9697,3.9697,3.9697,3.9697,3.9697,3.9697,3.9697,3.9697,3.9697,3.9647,3.9572,3.9094,3.8831,3.873,3.8153,3.7626,3.7186,3.7098,3.6845,3.6405,3.6405,3.6405,3.6405,3.6405,3.6405,3.6405,3.6405,3.6405,3.6405,3.6405,3.6405,3.6405,3.6405,3.6405,3.6405,3.6405,3.6405,3.6392,3.6304,3.578,3.5044,3.4161,3.3495,3.3124,3.3124,3.3124,3.3124,3.3124,3.3124,3.3124,3.3124,3.3124,3.3124,3.3124,3.3124,3.2918,3.2428,3.2679,3.2805,3.2403,0.0,3.3023,3.3111,3.3124,3.3124,3.3124,3.3124,3.3124,3.3124,3.3124,3.3124,3.3124,3.3124,3.3074,3.2943,3.3031,3.3124,3.3124,3.3124,3.3124,3.3124,3.3124,3.3124,3.3124,3.3124,3.3124,3.3111,3.298,3.2353,3.1386,3.1298,3.0683,2.9792,2.9792,2.9792,2.9792,2.9792,2.9792,2.9792,4.2652,4.2158,4.1706,4.1442,4.0915,4.0438,4.0174,3.9885,3.9697,3.9697,3.9697,3.9697,3.9697,3.9697,3.9697,3.9697,3.9697,3.9697,3.9697,3.9697,3.9697,3.9697,3.9697,3.9697,3.9697,3.9697,3.9697,3.9697,3.9433,3.932,3.9295,3.873,3.8329,3.8065,3.745,3.7048,3.6832,3.6531,3.6405,3.6405,3.6405,3.6405,3.6405,3.6405,3.6405,3.6405,3.6405,3.6405,3.6405,3.6405,3.6405,3.6405,3.6405,3.6405,3.6405,3.6405,3.5768,3.4881,3.4123,3.3495,3.3124,3.3124,3.3124,3.3124,3.3124,3.3124,3.3124,3.3124,3.3124,3.3124,3.3124,3.3124,3.2993,3.2717,3.2641,0.0,0.0,3.2641,3.2729,3.3043,3.3124,3.3124,3.3124,3.3124,3.3124,3.3124,3.3124,3.3124,3.3124,3.3124,3.3124,3.3124,3.3124,3.3124,3.3124,3.3124,3.3124,3.3124,3.3124,3.3124,3.3124,3.3124,3.3124,3.3124,3.3124,3.2604,3.1813,3.1512,3.0934,3.0206,2.9905,2.9792,2.9792,2.9792,2.9792,2.9792,4.2974,4.269,4.2363,4.2238,4.1455,4.0852,4.0727,4.0237,3.9885,3.9885,3.9772,3.9697,3.9697,3.9697,3.9697,3.9697,3.9697,3.9697,3.9697,3.9697,3.9697,3.9697,3.9697,3.9697,3.9697,3.9697,3.9697,3.9697,3.9697,3.9697,3.9685,3.9258,3.9045,3.8881,3.7826,3.7312,3.7149,3.6644,3.6405,3.6405,3.6405,3.6405,3.6405,3.6405,3.6405,3.6405,3.6405,3.6405,3.6405,3.6405,3.6405,3.6405,3.6405,3.6405,3.6405,3.6405,3.568,3.4718,3.4085,3.3495,3.3124,3.3124,3.3124,3.3124,3.3124,3.3124,3.3124,3.3124,3.3124,3.3124,3.3124,3.3124,3.3031,3.2893,0.0,0.0,0.0,3.2604,3.2579,3.3018,3.3124,3.3124,3.3124,3.3124,3.3124,3.3124,3.3124,3.3124,3.3124,3.3124,3.3124,3.3124,3.3124,3.3124,3.3124,3.3124,3.3124,3.3124,3.3124,3.3124,3.3124,3.3124,3.3124,3.3124,3.3124,3.2754,3.2177,3.1625,3.1085,3.0557,3.0005,2.9792,2.9792,2.9792,2.9792,2.9792,4.2974,4.2949,4.2748,4.2301,4.2137,4.1869,4.13,4.0814,4.0463,4.0463,4.0011,3.9697,3.9697,3.9697,3.9697,3.9697,3.9697,3.9697,3.9697,3.9697,3.9697,3.9697,3.9697,3.9697,3.9697,3.9697,3.9697,3.9697,3.9697,3.9697,3.9697,3.9647,3.9358,3.8894,3.8228,3.7663,3.7149,3.6644,3.6405,3.6405,3.6405,3.6405,3.6405,3.6405,3.6405,3.6405,3.6405,3.6405,3.6405,3.6405,3.6405,3.6405,3.6405,3.6405,3.6405,3.6405,3.5943,3.5207,3.4186,3.3495,3.3124,3.3124,3.3124,3.3124,3.3124,3.3124,3.3124,3.3124,3.3124,3.3124,3.3124,3.3124,3.2905,3.2365,0.0,0.0,3.234,3.2704,3.3074,3.3111,3.3124,3.3124,3.3124,3.3124,3.3124,3.3124,3.3124,3.3124,3.3124,3.3124,3.3124,3.3124,3.3124,3.3124,3.3124,3.3124,3.3124,3.3124,3.3124,3.3124,3.3124,3.3124,3.3124,3.3124,3.3124,3.2754,3.2177,3.1625,3.1085,3.0557,3.0005,2.9792,2.9792,2.9792,2.9792,2.9792,4.2974,4.2974,4.2911,4.2753,4.2439,4.2137,4.1869,4.1379,4.0974,4.0974,4.0551,4.0212,4.0212,3.9898,3.9697,3.9697,3.9697,3.9697,3.9697,3.9697,3.9697,3.9697,3.9697,3.9697,3.9697,3.9697,3.9697,3.9697,3.9697,3.9697,3.9697,3.9697,3.9584,3.9358,3.8793,3.8228,3.7663,3.7098,3.6719,3.6405,3.6405,3.6405,3.6405,3.6405,3.6405,3.6405,3.6405,3.6405,3.6405,3.6405,3.6405,3.6405,3.6405,3.6405,3.6405,3.6405,3.5968,3.5332,3.4613,3.401,3.3508,3.3156,3.3124,3.3124,3.3124,3.3124,3.3124,3.3124,3.3124,3.3124,3.3124,3.3124,3.3006,3.278,0.0,3.3006,3.278,3.2943,3.3124,3.3124,3.3124,3.3124,3.3124,3.3124,3.3124,3.3124,3.3124,3.3124,3.3124,3.3124,3.3124,3.3124,3.3124,3.3124,3.3124,3.3124,3.3124,3.3124,3.3124,3.3124,3.3124,3.3124,3.3124,3.3124,3.3124,3.2955,3.2679,3.1763,3.1273,3.1009,3.0131,2.9792,2.9792,2.9792,2.9792,2.9792,4.2974,4.2974,4.2974,4.2974,4.2728,4.2464,4.2464,4.1944,4.1593,4.1593,4.1116,4.0714,4.0538,4.0174,3.9885,3.971,3.9697,3.9697,3.9697,3.9697,3.9697,3.9697,3.9697,3.9697,3.9697,3.9697,3.9697,3.9697,3.9697,3.9697,3.9697,3.9697,3.9697,3.9672,3.912,3.8542,3.7965,3.7412,3.6908,3.6405,3.6405,3.6405,3.6405,3.6405,3.6405,3.6405,3.6405,3.6405,3.6405,3.6405,3.6405,3.6405,3.6405,3.6405,3.6405,3.6405,3.6094,3.568,3.5082,3.4575,3.3985,3.3257,3.3124,3.3124,3.3124,3.3124,3.3124,3.3124,3.3124,3.3124,3.3124,3.3124,3.3124,3.3124,3.3124,3.3124,3.3124,3.3124,3.3124,3.3124,3.3124,3.3124,3.3124,3.3124,3.3124,3.3124,3.3124,3.3124,3.3124,3.3124,3.3124,3.3124,3.3124,3.3124,3.3124,3.3124,3.3124,3.3124,3.3124,3.3124,3.3124,3.3124,3.3124,3.3124,3.3124,3.3124,3.2993,3.1851,3.1386,3.1286,3.0218,2.9792,2.9792,2.9792,2.9792,2.9792,4.2974,4.2974,4.2974,4.2974,4.2974,4.2974,4.2974,4.2577,4.2213,4.2213,4.1681,4.1075,4.0576,4.0513,4.0287,3.9747,3.9697,3.9697,3.9697,3.9697,3.9697,3.9697,3.9697,3.9697,3.9697,3.9697,3.9697,3.9697,3.9697,3.9697,3.9697,3.9697,3.9697,3.9672,3.912,3.8555,3.7977,3.7425,3.692,3.6417,3.6405,3.6405,3.6405,3.6405,3.6405,3.6405,3.6405,3.6405,3.6405,3.6405,3.6405,3.6405,3.6405,3.6405,3.6405,3.6405,3.6405,3.6292,3.5646,3.5094,3.4462,3.3357,3.3124,3.3124,3.3124,3.3124,3.3124,3.3124,3.3124,3.3124,3.3124,3.3124,3.3124,3.3124,3.3124,3.3124,3.3124,3.3124,3.3124,3.3124,3.3124,3.3124,3.3124,3.3124,3.3124,3.3124,3.3124,3.3124,3.3124,3.3124,3.3124,3.3124,3.3124,3.3124,3.3124,3.3124,3.3124,3.3124,3.3124,3.3124,3.3124,3.3124,3.3124,3.3124,3.3124,3.3124,3.2993,3.1863,3.1386,3.1286,3.0218,2.9792,2.9792,2.9792,2.9792,2.9792,4.2974,4.2974,4.2974,4.2974,4.2974,4.2974,4.2974,4.2836,4.2791,4.2791,4.2258,4.1706,4.11,4.0752,4.0287,3.9747,3.9697,3.9697,3.9697,3.9697,3.9697,3.9697,3.9697,3.9697,3.9697,3.9697,3.9697,3.9697,3.9697,3.9697,3.9697,3.9697,3.9697,3.9685,3.9521,3.9132,3.858,3.8002,3.7437,3.6958,3.6568,3.6405,3.6405,3.6405,3.6405,3.6405,3.6405,3.6405,3.6405,3.6405,3.6405,3.6405,3.6405,3.6405,3.6405,3.6405,3.6405,3.6292,3.5646,3.5094,3.455,3.3834,3.337,3.3124,3.3124,3.3124,3.3124,3.3124,3.3124,3.3124,3.3124,3.3124,3.3124,3.3124,3.3124,3.3124,3.3124,3.3124,3.3124,3.3124,3.3124,3.3124,3.3124,3.3124,3.3124,3.3124,3.3124,3.3124,3.3124,3.3124,3.3124,3.3124,3.3124,3.3124,3.3124,3.3124,3.3124,3.3124,3.3124,3.3124,3.3124,3.3124,3.3124,3.3124,3.3124,3.3124,3.3061,3.2277,3.1738,3.1323,3.0633,3.0131,2.9792,2.9792,2.9792,2.9792,4.2974,4.2974,4.2974,4.2974,4.2974,4.2974,4.2974,4.2974,4.2974,4.2974,4.274,4.2271,4.1718,4.1166,4.0626,4.0061,3.9823,3.9697,3.9697,3.9697,3.9697,3.9697,3.9697,3.9697,3.9697,3.9697,3.9697,3.9697,3.9697,3.9697,3.9697,3.9697,3.9697,3.9697,3.9697,3.9383,3.8881,3.8253,3.7688,3.7136,3.6631,3.6405,3.6405,3.6405,3.6405,3.6405,3.6405,3.6405,3.6405,3.6405,3.6405,3.6405,3.6405,3.6405,3.6405,3.6405,3.6405,3.6329,3.5968,3.5466,3.4868,3.4361,3.3646,3.3124,3.3124,3.3124,3.3124,3.3124,3.3124,3.3124,3.3124,3.3124,3.3124,3.3124,3.3124,3.3124,3.3124,3.3124,3.3124,3.3124,3.3124,3.3124,3.3124,3.3124,3.3124,3.3124,3.3124,3.3124,3.3124,3.3124,3.3124,3.3124,3.3124,3.3124,3.3124,3.3124,3.3124,3.3124,3.3124,3.3124,3.3124,3.3124,3.3124,3.3124,3.3124,3.3124,3.3031,3.2453,3.1888,3.1336,3.0821,3.0281,2.9792,2.9792,2.9792,2.9792,4.2974,4.2974,4.2974,4.2974,4.2974,4.2974,4.2974,4.2974,4.2974,4.2974,4.2974,4.2828,4.2263,4.1668,4.1062,4.0563,4.0011,3.9697,3.9697,3.9697,3.9697,3.9697,3.9697,3.9697,3.9697,3.9697,3.9697,3.9697,3.9697,3.9697,3.9697,3.9697,3.9697,3.9697,3.9697,3.9421,3.8906,3.8329,3.7764,3.7211,3.6707,3.6455,3.6405,3.6405,3.6405,3.6405,3.6405,3.6405,3.6405,3.6405,3.6405,3.6405,3.6405,3.6405,3.6405,3.6405,3.6405,3.6405,3.6405,3.5968,3.537,3.4868,3.3972,3.3174,3.3124,3.3124,3.3124,3.3124,3.3124,3.3124,3.3124,3.3124,3.3124,3.3124,3.3124,3.3124,3.3124,3.3124,3.3124,3.3124,3.3124,3.3124,3.3124,3.3124,3.3124,3.3124,3.3124,3.3124,3.3124,3.3124,3.3124,3.3124,3.3124,3.3124,3.3124,3.3124,3.3124,3.3124,3.3124,3.3124,3.3124,3.3124,3.3124,3.3124,3.3124,3.3124,3.3074,3.2503,3.1964,3.1411,3.0884,3.0344,2.9867,2.9817,2.9792,2.9792,4.2974,4.2974,4.2974,4.2974,4.2974,4.2974,4.2974,4.2974,4.2974,4.2974,4.2974,4.2828,4.2263,4.1668,4.1062,4.0563,4.0011,3.9697,3.9697,3.9697,3.9697,3.9697,3.9697,3.9697,3.9697,3.9697,3.9697,3.9697,3.9697,3.9697,3.9697,3.9697,3.9697,3.9697,3.9697,3.9634,3.9484,3.8919,3.8354,3.7776,3.7224,3.6795,3.6405,3.6405,3.6405,3.6405,3.6405,3.6405,3.6405,3.6405,3.6405,3.6405,3.6405,3.6405,3.6405,3.6405,3.6405,3.6405,3.6405,3.5968,3.547,3.5357,3.4537,3.3608,3.3224,3.3124,3.3124,3.3124,3.3124,3.3124,3.3124,3.3124,3.3124,3.3124,3.3124,3.3124,3.3124,3.3124,3.3124,3.3124,3.3124,3.3124,3.3124,3.3124,3.3124,3.3124,3.3124,3.3124,3.3124,3.3124,3.3124,3.3124,3.3124,3.3124,3.3124,3.3124,3.3124,3.3124,3.3124,3.3124,3.3124,3.3124,3.3124,3.3124,3.3124,3.3124,3.3111,3.2943,3.2554,3.1976,3.1436,3.0896,3.0382,2.9942,2.9792,2.9792,4.2974,4.2974,4.2974,4.2974,4.2974,4.2974,4.2974,4.2974,4.2974,4.2974,4.2974,4.2873,4.264,4.2057,4.1404,4.0588,4.0011,3.9697,3.9697,3.9697,3.9697,3.9697,3.9697,3.9697,3.9697,3.9697,3.9697,3.9697,3.9697,3.9697,3.9697,3.9697,3.9697,3.9697,3.9697,3.9697,3.9659,3.9158,3.853,3.7952,3.7412,3.6908,3.6405,3.6405,3.6405,3.6405,3.6405,3.6405,3.6405,3.6405,3.6405,3.6405,3.6405,3.6405,3.6405,3.6405,3.6405,3.6405,3.6405,3.6157,3.5868,3.5558,3.5069,3.4474,3.3658,3.3269,3.3124,3.3124,3.3124,3.3124,3.3124,3.3124,3.3124,3.3124,3.3124,3.3124,3.3124,3.3124,3.3124,3.3124,3.3124,3.3124,3.3124,3.3124,3.3124,3.3124,3.3124,3.3124,3.3124,3.3124,3.3124,3.3124,3.3124,3.3124,3.3124,3.3124,3.3124,3.3124,3.3124,3.3124,3.3124,3.3124,3.3124,3.3124,3.3124,3.3124,3.3124,3.3124,3.2729,3.219,3.1888,3.1298,3.0583,3.0294,3.0018,2.9792,4.2974,4.2974,4.2974,4.2974,4.2974,4.2974,4.2974,4.2974,4.2974,4.2974,4.2974,4.2974,4.2974,4.2451,4.1605,4.0601,4.0011,3.9697,3.9697,3.9697,3.9697,3.9697,3.9697,3.9697,3.9697,3.9697,3.9697,3.9697,3.9697,3.9697,3.9697,3.9697,3.9697,3.9697,3.9697,3.9697,3.9659,3.9207,3.868,3.8103,3.755,3.6998,3.6543,3.6443,3.6405,3.6405,3.6405,3.6405,3.6405,3.6405,3.6405,3.6405,3.6405,3.6405,3.6405,3.6405,3.6405,3.6405,3.6405,3.6405,3.6304,3.5805,3.5571,3.5257,3.4399,3.3684,3.3194,3.3136,3.3124,3.3124,3.3124,3.3124,3.3124,3.3124,3.3124,3.3124,3.3124,3.3124,3.3124,3.3124,3.3124,3.3124,3.3124,3.3124,3.3124,3.3124,3.3124,3.3124,3.3124,3.3124,3.3124,3.3124,3.3124,3.3124,3.3124,3.3124,3.3124,3.3124,3.3124,3.3124,3.3124,3.3124,3.3124,3.3124,3.3124,3.3124,3.3124,3.3124,3.2792,3.2353,3.2252,3.1675,3.0871,3.0683,3.0269,2.9792,4.2974,4.2974,4.2974,4.2974,4.2974,4.2974,4.2974,4.2974,4.2974,4.2974,4.2974,4.2974,4.2974,4.207,4.1137,4.0576,4.0011,3.9697,3.9697,3.9697,3.9697,3.9697,3.9697,3.9697,3.9697,3.9697,3.9697,3.9697,3.9697,3.9697,3.9697,3.9697,3.9697,3.9697,3.9697,3.9697,3.9685,3.9609,3.927,3.8705,3.8128,3.7563,3.7023,3.6593,3.6405,3.6405,3.6405,3.6405,3.6405,3.6405,3.6405,3.6405,3.6405,3.6405,3.6405,3.6405,3.6405,3.6405,3.6405,3.6405,3.6392,3.6317,3.5893,3.5458,3.5307,3.4525,3.3658,3.3224,3.3124,3.3124,3.3124,3.3124,3.3124,3.3124,3.3124,3.3124,3.3124,3.3124,3.3124,3.3124,3.3124,3.3124,3.3124,3.3124,3.3124,3.3124,3.3124,3.3124,3.3124,3.3124,3.3124,3.3124,3.3124,3.3124,3.3124,3.3124,3.3124,3.3124,3.3124,3.3124,3.3124,3.3124,3.3124,3.3124,3.3124,3.3124,3.3124,3.3124,3.3031,3.2918,3.2403,3.2127,3.1888,3.0959,3.0269,2.9792,4.2974,4.2974,4.2974,4.2974,4.2974,4.2974,4.2974,4.2974,4.2974,4.2974,4.2974,4.2974,4.2974,4.2271,4.158,4.1028,4.0475,4.0023,3.971,3.9697,3.9697,3.9697,3.9697,3.9697,3.9697,3.9697,3.9697,3.9697,3.9697,3.9697,3.9697,3.9697,3.9697,3.9697,3.9697,3.9697,3.9697,3.9697,3.9371,3.8869,3.8241,3.7676,3.7123,3.6619,3.6405,3.6405,3.6405,3.6405,3.6405,3.6405,3.6405,3.6405,3.6405,3.6405,3.6405,3.6405,3.6405,3.6405,3.6405,3.6405,3.6405,3.6405,3.6182,3.5918,3.5571,3.5119,3.4575,3.3709,3.3294,3.3124,3.3124,3.3124,3.3124,3.3124,3.3124,3.3124,3.3124,3.3124,3.3124,3.3124,3.3124,3.3124,3.3124,3.3124,3.3124,3.3124,3.3124,3.3124,3.3124,3.3124,3.3124,3.3124,3.3124,3.3124,3.3124,3.3124,3.3124,3.3124,3.3124,3.3124,3.3124,3.3124,3.3124,3.3124,3.3124,3.3124,3.3124,3.3124,3.3124,3.3056,3.2792,3.2303,3.1662,3.0896,3.0269,2.9792]}]]